ECMWFFLT1_850_thetae_057.txt.gz
Theta_e
349 349 350 350 349 349 348 347 346 345 344 344 342 341 341 342 344 345 345 346 347 347 347 347 347 347 347 347 347 347 347 345 342 340 338 338 338 338 338 338 338 338 337 337 336 337 337 338 339 339 340 341 341 341 342 344 345 345 345 344 343 341 341
349 348 349 349 349 349 348 347 346 345 344 344 344 343 342 341 341 342 343 344 345 346 346 346 346 346 346 347 347 347 346 346 344 341 339 339 338 338 338 337 337 337 337 336 336 336 336 337 337 338 339 340 341 341 342 343 344 344 344 344 343 341 340
347 348 348 348 348 348 348 348 347 346 345 344 345 344 343 342 340 341 342 342 343 344 344 345 345 346 345 346 346 346 346 346 345 344 343 342 341 339 338 337 336 337 337 336 336 335 336 336 336 336 337 338 340 342 342 343 344 344 343 344 344 342 340
345 346 347 347 347 347 347 347 347 347 346 345 344 343 342 341 341 341 342 342 343 342 342 342 343 344 345 345 346 346 345 345 345 345 345 344 343 342 340 339 337 337 337 336 336 335 335 336 335 335 335 336 338 341 343 343 343 343 343 343 343 342 341
342 343 345 346 346 346 346 347 347 347 346 346 344 344 343 342 342 343 343 343 343 343 342 342 342 343 344 344 345 345 345 345 345 345 345 345 344 344 343 341 340 337 336 336 335 335 335 335 336 335 335 335 336 339 342 343 343 343 342 342 343 342 341
340 340 342 343 344 345 345 345 346 346 346 346 345 344 343 343 344 344 344 343 343 343 344 344 344 343 343 343 343 344 344 345 345 345 346 346 345 345 344 344 343 340 338 336 335 335 335 335 336 336 336 336 336 338 340 342 342 342 342 342 342 342 341
338 338 338 340 341 343 343 344 345 345 345 346 345 345 345 345 345 345 344 344 343 343 344 344 345 344 343 343 343 344 344 344 345 345 345 346 346 346 345 344 344 343 340 338 336 335 334 334 335 336 337 337 337 338 339 340 341 342 342 341 341 341 341
335 337 336 337 339 340 341 342 343 345 345 345 346 346 346 345 345 345 345 344 344 344 344 344 344 343 343 343 343 343 343 344 344 345 345 346 346 346 346 345 345 344 343 342 339 336 335 334 334 335 336 337 338 338 338 339 340 341 342 342 341 341 341
335 337 336 337 337 339 341 341 341 343 344 345 345 345 345 346 346 345 345 345 344 345 344 343 343 343 342 343 343 342 343 344 344 344 345 345 346 346 346 346 345 344 344 344 341 339 336 335 334 334 334 335 337 338 338 338 339 340 341 342 342 342 341
336 337 336 337 337 338 339 340 341 342 343 344 345 345 345 345 345 345 345 345 345 345 344 343 343 343 342 343 342 342 343 344 344 344 345 345 345 346 346 345 345 345 344 344 344 342 339 337 336 335 334 334 335 336 337 338 338 338 339 340 341 342 342
335 335 336 337 337 338 338 339 340 340 342 343 343 344 345 345 345 345 344 344 344 344 344 344 344 343 343 343 343 343 343 343 344 344 345 345 345 345 345 345 345 345 345 344 345 344 342 340 339 337 336 334 333 334 336 337 337 338 338 339 340 342 343
333 334 334 336 337 337 338 338 338 339 340 341 342 343 344 344 344 344 344 344 344 344 344 344 344 344 343 344 344 343 343 342 343 344 344 344 345 344 344 345 345 345 345 345 345 345 344 343 342 340 337 335 333 333 334 335 336 337 338 338 339 341 342
331 332 333 334 336 337 338 338 338 339 339 340 340 341 342 343 343 344 344 344 343 344 344 344 344 344 343 344 344 344 343 342 342 343 344 344 344 344 344 344 344 344 345 345 345 345 345 345 344 342 340 337 334 333 333 334 335 336 337 337 338 339 341
331 332 333 334 334 335 337 337 338 339 338 339 339 340 341 341 342 343 343 343 343 343 344 344 343 344 343 344 344 344 343 342 342 342 343 344 344 344 344 344 344 345 345 345 345 346 345 346 346 345 343 340 336 334 333 333 334 335 335 337 337 338 339
329 329 330 332 333 334 336 336 338 338 338 339 339 339 340 340 341 342 342 343 343 343 343 343 343 343 344 343 344 344 342 343 343 343 344 344 344 344 344 345 345 345 345 345 345 346 346 346 346 346 346 345 341 337 335 334 333 334 335 336 336 337 338
326 326 327 328 329 330 332 334 337 338 338 339 339 339 340 340 340 341 341 342 342 343 343 343 343 343 343 343 343 343 343 343 344 344 344 345 344 344 345 345 345 345 345 345 345 346 346 346 347 347 347 347 346 342 339 336 334 334 334 335 336 336 337
326 326 326 326 327 328 329 332 335 337 338 338 339 339 339 340 340 340 341 341 341 342 342 342 343 343 343 343 342 343 344 344 344 344 344 344 344 345 345 345 345 345 345 346 346 346 346 346 347 347 347 348 348 346 343 338 335 334 334 334 335 336 336
326 327 326 327 328 330 330 331 333 335 337 338 339 339 339 340 340 340 341 341 341 341 342 342 342 343 343 343 343 343 344 344 344 344 344 345 345 345 345 345 346 346 346 346 346 346 346 346 347 347 348 348 349 348 346 341 338 337 336 335 335 336 336
327 327 327 327 330 331 331 332 333 333 335 337 338 339 339 340 340 340 341 341 341 341 341 342 342 342 343 343 343 344 344 344 344 344 344 345 345 345 345 345 345 346 346 346 346 347 347 347 347 347 348 348 349 349 348 344 341 339 338 337 336 336 337
327 328 329 329 331 331 331 333 334 334 334 336 337 338 339 340 340 340 340 341 341 341 341 342 342 342 343 343 343 343 344 344 344 344 345 345 345 346 346 345 346 346 346 346 347 347 347 347 347 348 348 348 349 350 349 346 343 341 340 339 337 337 338
332 332 333 333 331 330 329 332 335 336 335 335 337 339 340 340 340 340 340 340 341 341 341 342 342 342 343 343 343 344 344 344 344 344 345 345 345 346 346 346 346 346 346 347 347 347 347 347 347 348 348 349 349 350 350 349 345 342 340 339 338 337 338
335 335 335 334 331 329 330 333 337 338 337 337 337 338 339 340 340 340 341 341 341 341 342 342 342 343 343 344 344 344 344 344 344 344 345 346 347 347 347 347 346 346 347 347 347 347 347 347 348 348 348 349 349 350 350 351 347 343 341 340 339 339 339
336 336 337 337 334 333 335 337 338 338 338 338 338 339 339 340 341 341 341 341 341 341 342 342 343 343 343 343 344 344 344 344 345 345 345 346 347 347 347 347 346 347 347 347 348 347 348 348 348 348 349 349 350 350 350 351 350 346 343 341 340 340 340
339 340 341 340 339 339 339 341 340 338 338 340 340 340 340 340 341 341 341 342 342 342 342 342 342 343 343 343 343 343 344 344 344 345 346 346 346 346 347 347 347 348 348 348 348 347 348 348 348 348 349 349 349 350 350 351 351 347 344 341 341 341 340
345 344 345 343 342 342 342 343 343 339 339 339 340 340 341 340 341 341 341 342 342 342 342 342 342 343 343 343 343 343 344 344 345 346 346 346 346 346 347 347 347 348 348 348 348 349 349 349 349 349 349 349 350 350 350 352 352 350 347 345 342 342 340
349 348 347 345 342 342 343 344 343 341 339 339 339 340 340 341 341 341 342 342 343 343 343 343 343 344 343 344 344 344 345 345 345 346 346 346 347 346 347 348 348 348 349 349 349 350 350 351 351 350 349 351 353 352 351 352 353 352 351 349 345 343 342
354 352 349 345 343 342 344 345 344 342 340 340 340 340 340 341 341 341 342 343 343 343 344 344 344 344 344 345 345 346 346 346 346 347 347 347 347 347 348 349 349 349 350 350 351 351 351 351 352 352 353 353 355 355 355 354 353 352 352 352 349 347 345
356 357 354 351 347 344 344 344 345 344 343 342 342 342 341 342 341 342 343 343 344 344 345 345 345 345 345 346 345 346 346 346 346 347 347 348 349 349 349 350 350 351 351 351 352 352 352 353 354 355 357 356 355 356 357 356 355 353 352 353 352 351 350
357 358 358 357 355 352 350 348 346 345 344 344 344 344 344 343 343 344 344 344 345 345 345 346 346 346 347 347 347 348 348 348 348 348 348 349 349 350 351 351 351 352 352 352 353 353 353 354 355 356 357 357 356 357 357 356 356 356 353 354 354 354 353
354 355 356 357 356 357 357 356 354 353 351 348 346 345 345 345 345 345 345 345 346 346 346 347 347 347 348 348 348 348 348 349 349 349 350 350 350 351 352 352 353 353 353 353 354 354 355 356 356 356 356 356 356 356 356 356 356 356 355 355 355 355 354
350 351 353 355 355 356 357 357 358 358 357 356 355 352 350 348 347 346 346 347 347 347 347 347 347 347 348 348 348 349 349 349 350 350 351 351 351 352 352 353 354 355 354 355 355 355 355 356 357 357 356 355 356 357 357 356 356 356 356 356 356 355 355
345 346 348 350 352 354 354 355 355 355 355 356 356 356 356 354 353 352 352 352 352 352 352 352 352 352 351 351 351 350 349 350 349 350 351 351 352 352 352 353 354 354 355 356 356 356 356 357 357 358 358 357 358 359 358 357 357 357 356 356 356 355 355
344 344 345 346 347 349 350 351 352 352 352 352 353 353 354 354 355 355 355 356 356 356 356 356 357 357 357 357 357 357 356 355 353 352 352 351 351 351 351 352 353 354 355 356 356 357 358 359 359 359 359 359 359 359 359 358 357 357 356 356 356 355 355
343 344 344 343 343 343 344 345 346 347 348 348 348 349 349 350 350 350 351 351 351 351 352 352 352 353 354 355 357 357 358 358 358 358 357 356 354 353 352 352 352 354 355 355 356 358 359 359 360 359 359 359 359 358 358 357 356 356 356 356 356 355 355
344 343 343 343 342 340 340 341 341 342 342 343 344 345 346 346 346 346 346 346 346 346 346 347 347 347 348 348 349 349 350 351 353 355 357 359 359 358 356 355 354 354 354 354 355 356 356 357 358 359 359 359 359 358 357 356 355 354 353 356 356 355 355
344 344 344 344 343 342 342 342 342 342 342 342 343 343 343 343 342 342 342 341 341 341 341 342 342 343 343 344 344 344 344 345 345 346 348 350 352 353 354 353 353 353 354 355 356 356 355 356 356 356 357 359 358 358 356 355 355 354 353 355 356 356 356
343 343 343 343 343 343 343 343 344 343 343 343 342 341 341 341 340 340 339 338 338 338 339 339 340 340 341 342 342 343 343 343 343 344 344 344 344 343 341 340 340 342 344 345 347 349 352 354 355 356 357 357 357 358 357 357 357 356 355 356 356 356 356
344 344 344 343 342 342 341 341 341 341 340 339 337 337 337 338 338 339 339 338 338 338 339 339 340 340 342 343 343 343 342 340 339 339 340 340 339 335 332 331 332 332 333 333 333 335 338 343 348 351 355 357 357 357 357 357 357 357 356 356 356 356 356

ECMWFFLT1_850_thetae_060.txt.gz
Theta_e
351 353 354 355 357 357 358 359 358 357 358 355 351 349 347 345 343 342 340 339 340 340 341 341 341 340 340 340 340 340 340 339 339 339 339 339 339 339 338 338 338 337 337 336 337 337 337 337 337 337 338 339 338 338 340 340 341 345 348 349 348 349 350
349 351 353 355 356 357 357 358 358 357 356 353 349 347 347 345 342 340 339 338 339 340 340 340 340 340 340 340 341 340 340 340 339 340 339 339 339 339 338 338 338 338 338 337 336 337 337 337 337 337 337 338 338 338 340 341 341 342 346 349 349 348 348
349 350 352 354 355 357 357 358 358 357 355 353 350 346 345 344 340 338 337 337 338 339 340 340 339 340 341 342 341 341 341 342 342 341 341 340 339 338 338 338 338 338 338 338 337 337 337 336 336 337 337 338 338 338 340 344 344 341 343 347 348 348 346
349 350 351 353 355 356 357 358 358 357 356 353 349 345 343 342 340 338 336 336 336 337 338 339 339 341 342 343 344 344 345 345 345 344 344 343 342 341 340 339 338 338 338 338 338 338 337 337 336 336 337 337 337 338 339 342 344 341 342 345 346 347 346
348 350 350 352 354 355 357 357 357 357 355 352 348 344 344 343 342 340 337 335 334 334 335 338 340 341 343 344 344 346 346 346 346 346 346 346 345 344 342 339 338 338 337 337 338 338 337 337 336 336 336 336 336 337 336 338 340 341 342 344 344 346 346
346 349 351 351 353 354 356 356 356 356 354 354 351 346 345 345 344 341 339 337 334 334 335 337 339 341 342 343 344 345 345 346 346 346 346 346 346 346 344 340 339 339 338 338 337 337 337 336 336 336 336 336 335 336 335 336 337 339 342 343 343 344 345
343 349 351 351 351 353 355 355 354 354 354 355 355 352 351 350 348 345 342 340 337 336 335 336 337 339 340 341 343 344 344 345 345 345 346 346 346 346 345 343 342 342 341 340 338 337 336 336 336 336 335 335 336 335 335 335 336 337 340 341 343 343 343
340 349 350 349 350 351 353 354 354 354 354 355 355 355 355 354 353 350 346 342 340 339 337 336 336 337 338 339 340 342 342 343 344 344 345 345 346 346 345 344 344 343 343 342 340 337 336 336 336 336 336 336 336 336 336 336 335 337 338 340 342 343 342
339 349 350 349 349 350 351 353 354 353 354 355 355 355 355 355 355 354 350 346 344 341 340 339 337 336 337 337 337 338 340 341 342 343 343 344 345 344 344 345 344 344 344 344 343 340 337 336 336 335 336 336 336 336 336 336 337 336 337 338 340 342 342
345 350 351 349 348 348 348 350 353 353 353 354 355 354 355 355 355 354 353 352 349 345 342 340 340 339 339 338 338 338 338 339 340 341 342 343 343 344 344 344 344 344 344 344 344 344 341 338 337 336 336 336 336 336 336 336 337 337 337 338 339 340 341
350 349 347 346 346 346 346 348 350 351 352 352 353 354 354 354 354 354 353 353 352 348 345 343 342 341 340 340 340 340 340 340 339 339 340 341 342 343 343 344 344 344 344 344 345 345 344 341 340 339 337 336 335 335 335 335 336 337 337 338 338 339 340
348 342 338 342 345 345 344 345 347 349 349 349 351 353 352 352 354 353 352 351 351 351 350 348 347 344 341 340 341 341 341 341 341 340 340 341 341 341 342 343 344 344 344 344 344 345 345 344 342 342 340 337 335 335 334 335 335 335 336 337 338 339 339
342 336 336 342 347 346 342 342 343 346 347 347 349 351 351 350 352 353 352 351 350 352 352 352 351 348 345 342 341 341 341 341 341 341 341 341 341 341 342 342 343 343 343 343 343 344 345 345 344 343 342 340 337 335 335 335 335 335 335 335 337 338 339
340 339 342 344 343 343 340 338 340 343 345 345 348 351 351 350 350 352 353 352 352 352 353 354 353 351 349 346 343 342 341 341 341 341 341 341 341 341 342 342 343 343 343 343 344 344 344 345 344 344 344 342 340 337 336 336 336 336 335 335 335 336 337
342 341 342 338 333 333 333 332 335 338 341 344 347 350 351 351 351 350 350 352 352 352 353 352 351 350 349 347 345 344 342 342 341 341 341 342 342 341 342 342 342 343 343 343 344 343 344 344 345 345 344 344 342 340 339 338 338 336 335 335 334 334 334
337 337 338 337 333 330 327 328 331 334 337 339 342 345 348 349 349 348 348 350 351 352 352 352 350 349 348 347 346 344 343 342 342 342 342 342 342 342 342 342 342 342 343 343 343 343 344 343 344 345 345 345 345 344 343 342 339 336 335 334 334 334 333
333 333 336 340 339 336 331 328 330 332 334 335 337 340 343 344 345 346 349 351 351 350 351 351 350 348 346 346 346 344 343 343 342 343 343 342 342 342 342 342 342 342 343 344 344 343 344 344 344 345 345 345 345 345 345 344 342 339 337 336 335 335 334
335 335 338 341 339 336 332 329 328 330 331 332 334 337 339 340 342 343 347 350 351 350 350 351 349 347 345 345 345 344 343 342 343 343 342 342 342 342 342 343 342 343 343 344 344 343 344 344 344 344 345 345 345 345 345 345 345 344 342 340 338 337 337
333 333 340 343 338 331 330 330 329 330 332 331 333 334 336 339 340 340 342 347 351 352 351 350 348 346 346 345 345 343 342 343 343 343 343 343 343 343 343 343 343 344 344 344 343 344 344 344 345 345 345 345 346 346 346 346 346 346 346 345 343 342 341
332 332 338 342 337 332 331 329 328 330 332 335 338 339 339 338 338 339 340 343 348 351 350 350 349 347 346 345 343 343 342 343 343 342 343 343 343 344 344 343 343 344 344 345 345 344 344 344 345 345 345 345 346 346 346 346 346 346 347 347 347 346 346
331 337 340 338 334 331 330 328 329 329 329 335 340 342 343 341 339 341 342 341 343 345 346 347 347 347 346 344 343 342 342 342 342 342 343 343 343 344 344 344 344 344 344 346 346 345 345 345 345 345 345 345 346 346 346 346 346 347 347 347 348 348 348
338 343 343 338 332 331 330 328 329 329 329 333 337 340 345 346 344 345 345 343 342 342 343 344 344 344 343 342 342 342 342 342 342 342 343 343 343 344 344 343 344 344 344 345 346 346 346 345 345 345 346 345 346 346 346 346 346 346 347 347 347 348 349
342 340 335 332 329 330 329 328 329 328 329 332 335 340 346 349 348 347 347 346 344 342 342 342 342 342 342 342 341 341 342 342 342 342 343 343 344 344 344 344 344 344 345 345 346 347 346 346 347 346 346 346 346 346 346 346 347 346 347 347 347 348 349
334 332 330 330 331 331 331 330 330 329 331 336 337 339 344 348 349 348 347 347 347 346 343 341 341 341 341 341 341 342 342 342 342 343 343 343 344 343 343 344 344 344 345 345 346 346 346 348 349 348 348 347 347 348 348 349 349 347 346 348 348 348 349
337 336 334 333 332 334 335 333 333 334 336 339 338 338 342 346 349 349 347 346 346 347 344 340 340 341 341 341 342 342 342 342 342 343 343 343 344 344 345 345 345 346 347 346 346 347 348 350 352 352 351 351 352 352 351 351 353 351 347 347 348 348 349
342 340 339 339 338 338 338 337 339 340 341 340 338 339 343 346 348 349 348 345 344 346 345 341 340 341 341 341 341 341 342 343 342 343 343 343 344 344 345 345 346 346 347 347 349 350 351 352 353 354 354 353 354 354 350 352 356 355 349 350 351 349 349
341 340 341 343 342 341 341 341 342 343 343 341 339 339 344 348 350 351 350 347 343 344 345 343 342 341 341 341 342 342 342 342 343 343 343 343 344 344 345 346 346 347 348 349 351 352 352 353 353 354 355 353 353 354 351 351 357 357 352 352 354 352 349
345 345 347 346 343 342 343 343 343 342 342 340 339 339 342 346 349 351 349 346 344 345 346 346 344 342 342 342 342 342 343 342 343 343 343 344 344 344 346 346 347 347 348 350 352 353 355 356 355 357 357 354 355 357 354 351 356 358 354 352 354 353 351
352 354 355 354 351 349 348 346 344 343 341 340 340 340 340 344 350 353 351 349 349 351 352 350 347 344 344 343 343 343 344 344 344 344 344 345 345 346 347 347 348 349 349 350 352 355 358 360 360 361 360 358 358 360 357 355 358 358 356 354 354 354 352
355 356 357 356 354 354 354 352 349 345 343 342 341 341 342 346 352 354 352 349 348 348 347 346 345 344 345 345 344 344 345 345 345 345 345 345 346 347 347 348 348 350 351 352 353 355 358 360 361 361 361 360 360 359 359 359 360 359 358 357 356 355 354
355 356 356 356 355 356 356 355 354 351 347 345 344 342 343 345 346 346 345 345 345 344 345 344 345 345 345 346 346 346 347 348 348 349 350 351 351 350 350 350 351 353 356 358 358 358 359 360 360 360 361 360 361 360 360 360 360 359 359 359 358 358 356
354 354 355 355 355 356 356 356 355 354 351 349 347 344 343 344 343 344 344 345 346 346 345 344 345 346 346 346 347 347 348 351 353 354 355 355 356 356 356 356 357 358 360 360 360 359 360 360 359 360 360 360 360 360 360 360 360 360 360 360 359 359 358
351 352 353 353 353 354 356 356 355 354 354 352 351 349 347 347 347 347 348 350 353 355 354 352 350 350 350 350 350 350 350 352 355 357 357 356 358 359 360 361 361 361 361 361 361 361 361 361 360 360 360 360 361 361 360 360 361 361 360 360 360 359 359
349 349 350 351 352 353 354 354 353 353 354 354 354 354 352 352 353 353 354 355 356 358 360 360 359 360 360 360 360 359 358 356 356 357 359 359 359 359 360 360 360 360 360 360 360 361 361 361 361 361 361 361 361 361 361 361 361 361 361 360 360 359 359
347 347 348 349 350 350 351 351 351 351 351 351 351 351 351 351 351 351 351 351 352 354 356 358 360 361 361 361 360 361 361 361 360 360 360 361 360 360 360 360 360 360 360 360 360 361 361 361 362 362 362 362 361 362 362 362 361 361 361 361 360 359 359
346 346 347 347 348 348 348 349 349 349 348 348 348 347 346 346 345 345 346 348 351 352 352 352 353 353 352 352 353 353 354 355 355 355 356 357 357 355 354 352 352 353 354 354 354 355 355 355 354 353 354 355 355 355 357 359 360 360 361 361 360 359 359
345 345 346 346 347 347 347 347 347 347 347 347 347 346 346 345 345 345 345 347 348 349 347 344 344 344 344 344 344 344 345 345 345 345 345 344 342 341 338 335 335 336 337 337 337 337 338 338 337 337 338 341 341 340 342 346 348 352 356 360 361 361 361
344 345 345 345 346 346 345 345 346 345 345 346 346 346 346 346 346 346 346 346 348 348 346 343 341 341 340 340 340 340 340 340 339 337 334 332 331 331 330 330 331 331 329 329 330 330 331 331 332 331 332 333 333 332 333 335 335 337 342 347 353 356 359

ECMWFFLT1_850_thetae_063.txt.gz
Theta_e
346 346 348 354 358 360 361 362 362 362 362 364 364 361 362 362 362 362 356 345 339 339 337 337 338 338 339 341 342 342 344 342 336 334 336 334 338 343 342 341 342 341 344 348 346 341 338 340 350 355 351 342 337 340 342 344 345 346 345 345 347 350 350
345 343 345 350 355 359 360 363 363 363 363 364 365 363 362 362 362 361 356 346 339 338 337 336 337 337 337 338 337 340 342 339 335 334 335 335 336 338 340 341 342 339 339 345 350 348 343 339 342 351 354 348 339 339 342 343 345 344 342 343 346 349 348
342 344 346 346 351 358 361 363 364 363 363 364 365 364 362 361 361 358 352 347 341 338 338 337 337 337 337 336 336 339 339 336 336 337 336 336 336 337 340 341 341 340 337 337 345 350 350 345 340 340 346 346 340 340 343 343 345 343 341 341 344 348 349
342 344 344 345 351 359 361 362 365 364 363 364 365 365 363 360 360 357 350 345 340 337 337 337 337 337 337 337 337 337 337 336 338 337 337 338 338 338 341 341 339 340 341 338 338 344 350 352 347 338 338 340 338 339 342 343 346 346 344 344 343 345 348
342 343 343 345 352 358 361 361 363 365 363 365 365 365 364 360 360 359 353 346 340 337 335 337 337 338 338 338 337 337 337 337 337 338 338 338 339 340 339 341 340 339 341 341 339 339 342 350 352 343 337 339 337 337 339 340 343 345 345 346 345 344 347
339 343 344 345 352 357 361 361 362 364 364 364 365 366 365 363 361 361 357 350 343 339 336 336 336 337 338 338 338 338 338 337 337 338 338 338 339 340 338 337 340 341 342 342 342 342 340 342 347 346 341 339 338 338 340 340 341 345 345 345 346 344 345
339 344 346 346 350 355 359 360 361 363 363 362 364 366 366 364 362 362 361 355 346 341 340 339 337 336 337 338 337 338 337 337 337 337 337 338 337 338 338 337 338 340 344 346 345 346 346 341 341 343 342 341 341 341 341 342 339 341 344 344 345 343 343
338 343 346 347 349 352 356 360 360 361 363 362 363 365 365 364 364 362 363 360 353 348 342 339 337 335 335 336 337 337 337 336 337 337 336 337 337 337 338 339 338 338 343 348 347 344 346 345 339 339 339 341 345 343 340 343 341 339 341 343 342 341 340
337 341 344 346 346 347 350 356 360 359 362 361 361 364 365 364 364 362 362 361 359 355 345 338 336 333 333 336 336 335 337 336 336 337 337 337 338 339 339 341 342 340 341 346 350 347 344 343 341 339 338 338 343 342 339 341 341 339 341 343 340 338 338
336 337 340 345 347 346 347 352 358 359 361 361 360 363 364 364 364 363 362 361 361 357 349 344 344 337 331 332 335 335 336 336 337 337 338 339 340 340 343 347 348 346 341 340 348 352 347 342 341 341 338 336 338 339 338 338 338 338 340 342 342 339 337
345 343 343 347 348 347 347 351 357 358 359 361 360 361 363 363 363 363 361 361 360 359 355 352 352 346 334 328 332 334 335 336 337 338 337 339 341 342 345 352 355 352 346 339 342 353 354 347 342 343 341 337 335 337 336 336 336 337 338 341 344 344 338
356 355 353 352 351 351 350 351 357 357 357 359 360 361 361 363 363 362 361 361 359 360 359 357 355 350 339 331 331 332 334 335 335 337 337 338 342 346 349 354 356 357 355 346 339 347 356 354 346 342 342 339 337 335 336 336 336 335 336 338 342 344 341
349 348 350 352 351 351 350 351 356 358 358 359 361 360 360 361 362 361 362 362 360 360 360 359 358 354 344 337 335 333 331 333 334 334 335 336 338 345 351 354 355 356 358 356 348 345 353 358 353 345 342 341 340 337 335 335 335 335 336 336 338 340 339
339 338 346 353 354 354 354 353 355 359 361 360 359 360 360 360 361 360 361 361 361 360 360 360 360 357 351 344 340 337 333 332 333 332 333 336 336 338 345 351 354 355 357 360 357 349 349 356 358 354 346 342 341 339 337 336 335 334 335 335 336 337 338
336 336 346 355 355 353 351 348 348 355 361 361 358 359 361 359 359 360 360 362 361 360 359 360 360 359 357 351 344 341 338 335 336 335 334 336 337 336 338 344 350 353 356 359 360 357 353 353 357 359 355 347 342 341 340 338 336 334 333 333 335 336 337
334 337 343 348 351 350 346 344 343 345 352 358 359 359 360 359 358 360 359 361 360 360 359 359 360 360 360 356 349 345 343 339 338 339 338 337 338 338 336 338 343 348 353 357 359 359 357 354 355 360 360 355 347 341 341 340 338 335 334 333 333 333 335
333 335 337 340 346 349 350 353 353 348 345 348 352 358 359 359 359 359 359 359 359 359 359 359 360 360 359 359 356 351 347 343 340 339 341 340 340 340 339 339 340 344 349 354 356 356 357 357 355 356 359 361 355 345 340 342 339 337 335 334 333 332 333
332 334 335 335 341 347 349 353 356 356 352 348 348 353 356 357 359 359 358 358 358 358 358 359 361 361 360 359 359 357 352 349 346 342 341 341 340 341 342 341 341 343 346 349 350 350 354 355 352 350 353 359 361 353 342 341 342 340 337 335 334 334 334
332 332 334 335 339 346 348 348 349 355 361 359 354 352 352 354 357 358 357 357 358 358 357 358 360 361 361 361 360 358 355 353 350 348 345 343 342 342 341 341 342 342 343 345 346 346 349 350 347 345 344 350 359 360 352 344 342 342 342 341 339 337 337
333 332 333 335 336 339 348 351 347 345 352 358 357 355 355 354 355 357 358 356 356 358 357 357 359 361 361 360 359 357 355 353 353 351 349 348 346 345 344 342 342 342 342 345 346 346 347 346 344 345 344 344 351 358 358 354 348 344 344 343 344 343 342
332 332 331 334 335 340 348 354 351 347 347 351 354 356 356 357 357 358 358 357 356 357 357 355 357 359 360 360 358 356 354 352 352 353 353 352 349 348 346 344 343 344 345 347 348 347 346 345 344 345 345 345 346 352 356 358 355 350 345 344 344 345 345
333 333 335 344 352 353 352 348 346 347 346 344 347 353 355 355 358 358 358 357 356 357 356 355 355 358 360 359 357 354 353 350 352 353 353 352 350 348 346 345 345 344 347 349 352 351 350 348 347 348 349 349 348 348 351 354 354 352 349 345 345 344 344
335 332 335 349 356 352 343 335 332 333 333 331 335 345 351 354 356 358 358 358 356 356 357 356 354 355 358 359 357 354 353 351 351 352 351 349 349 347 345 346 347 347 347 348 351 355 357 357 355 354 353 352 351 349 349 351 353 353 349 348 346 345 345
335 331 340 350 351 343 334 329 328 328 329 328 329 337 346 352 355 357 359 358 356 357 358 357 353 352 355 358 357 355 353 351 349 349 348 347 345 345 346 349 349 349 349 348 350 356 360 362 362 358 355 353 352 350 350 350 350 350 348 348 347 346 345
336 340 343 344 341 337 332 328 327 327 327 329 329 331 341 351 355 356 359 358 357 356 357 357 354 353 353 356 357 356 355 352 350 348 347 347 347 348 349 349 350 350 351 350 351 352 356 360 362 363 360 357 354 355 355 354 352 351 351 351 350 349 347
351 352 349 347 344 338 332 328 328 331 339 342 338 337 344 351 355 355 357 358 357 356 356 358 358 356 354 355 357 357 357 355 352 350 349 349 349 349 349 348 349 350 350 350 351 354 356 359 362 363 364 362 362 362 360 357 355 354 353 353 353 352 350
355 349 346 347 346 338 335 338 335 335 345 349 345 345 351 353 354 356 356 357 359 357 357 358 359 358 357 358 359 358 356 354 352 349 349 349 348 347 348 347 349 352 353 355 358 360 360 361 362 363 363 364 365 366 365 361 359 357 355 355 354 353 353
354 351 345 341 337 334 340 349 348 346 352 351 344 348 356 356 355 357 357 358 359 359 359 360 360 360 361 359 357 357 355 353 350 350 349 350 351 351 351 351 354 359 361 362 363 364 363 363 364 363 363 363 364 364 365 365 364 363 361 360 359 357 357
358 358 355 352 350 347 351 358 360 359 361 358 351 349 356 359 359 358 359 360 360 359 359 361 362 362 363 360 356 357 358 356 355 354 352 354 355 355 355 355 357 361 363 362 363 364 365 365 364 363 362 363 362 362 363 363 363 364 363 363 362 361 360
355 358 360 361 360 358 358 362 362 359 359 360 358 356 358 361 360 359 361 363 362 359 360 363 365 366 365 361 357 357 360 361 361 360 359 358 356 355 357 360 360 361 361 361 362 364 364 364 364 363 363 362 362 362 362 362 362 362 362 362 362 362 361
357 360 362 361 359 359 359 361 360 358 357 360 363 363 364 364 363 364 365 366 365 364 364 365 365 363 361 358 354 355 359 364 364 365 365 362 359 358 360 362 364 363 361 360 362 363 363 363 363 362 362 362 362 362 362 362 361 361 361 361 361 361 361
359 360 359 358 357 358 358 359 359 358 358 360 362 364 366 366 366 366 366 366 365 364 363 362 360 357 358 359 357 356 359 362 363 363 364 363 363 362 363 364 364 363 362 362 363 363 363 363 363 362 362 362 362 362 362 361 361 361 361 361 361 361 361
358 358 359 358 357 357 358 358 357 357 357 358 359 360 362 363 364 364 363 362 362 360 360 360 359 358 360 363 362 360 361 362 362 362 364 365 364 364 363 364 363 363 363 364 363 363 363 362 362 362 362 362 361 361 362 362 361 361 362 362 361 362 362
355 356 356 356 356 357 358 357 356 356 356 356 356 357 358 359 360 360 360 360 361 360 360 361 361 361 362 364 364 364 364 364 364 364 365 364 364 363 363 364 363 363 363 362 362 363 363 363 363 363 363 362 362 362 362 362 363 362 362 361 361 361 361
352 353 353 354 355 355 355 355 354 354 354 354 355 355 356 357 358 358 360 361 363 363 362 363 364 365 365 365 365 364 364 363 364 364 363 363 362 361 362 363 362 362 363 363 363 363 363 363 363 363 363 363 362 363 363 363 363 363 362 362 362 361 359
351 352 353 354 353 353 353 353 352 352 352 352 353 353 354 355 355 357 358 359 361 362 362 363 364 363 363 363 363 362 363 363 363 363 363 362 362 362 363 363 363 362 362 362 362 362 362 362 362 362 362 362 361 359 357 354 351 350 349 349 349 348 348
351 351 351 351 351 351 351 350 350 350 350 350 350 350 351 352 352 353 355 356 357 358 359 359 358 357 357 358 358 358 359 359 360 360 360 360 361 361 358 357 359 361 361 361 361 359 358 356 356 355 354 351 347 343 339 336 334 333 333 333 333 332 333
350 350 349 349 350 349 349 348 348 349 348 348 348 348 349 349 350 351 352 353 354 354 354 354 354 353 353 353 354 354 354 354 354 354 354 353 354 353 348 346 348 348 345 344 345 344 342 340 340 339 337 334 332 330 329 329 329 329 329 329 329 330 330

ECMWFFLT1_850_thetae_069.txt.gz
Theta_e
351 351 351 352 353 353 353 354 353 353 352 352 353 354 355 355 355 354 354 354 353 353 352 352 352 351 350 350 349 348 345 341 337 335 335 335 333 332 331 334 336 337 340 340 339 338 337 340 342 341 341 341 340 340 341 343 345 345 345 344 344 342 341
350 350 352 352 353 354 354 354 353 353 352 352 353 354 355 355 355 355 355 354 353 352 352 351 351 351 350 348 348 348 345 341 338 337 336 334 333 332 331 333 335 336 338 339 338 337 336 337 339 340 342 343 341 340 339 342 345 346 346 346 345 343 341
351 351 352 352 354 354 353 353 353 352 353 352 353 354 355 355 355 355 355 354 354 352 352 352 351 350 349 348 347 346 343 341 339 337 336 335 333 333 333 332 334 335 338 338 337 337 336 335 335 337 340 342 341 341 340 340 343 345 345 346 346 344 343
351 352 352 352 352 352 352 352 352 351 351 351 353 354 355 355 355 356 355 355 355 353 353 352 351 350 349 348 346 344 341 340 338 336 335 334 334 334 334 333 333 334 336 337 336 336 335 335 335 336 338 341 341 341 340 339 341 342 344 345 346 345 343
351 352 352 351 352 351 352 352 351 351 351 351 351 353 354 355 355 356 356 355 355 354 353 352 351 351 350 348 345 342 340 337 337 335 335 335 335 334 334 332 331 332 333 334 334 335 336 336 336 336 337 339 340 339 339 339 339 340 340 342 344 344 343
350 351 350 351 351 351 352 352 351 351 351 351 352 353 353 354 355 356 356 356 356 356 354 353 352 352 351 349 346 342 340 338 337 336 336 335 335 335 334 334 333 332 332 333 335 335 336 338 338 339 338 338 338 339 338 337 338 340 339 339 340 341 341
349 350 350 351 351 351 351 352 352 352 352 353 353 353 354 354 355 357 357 357 357 356 355 355 353 352 351 349 346 343 340 338 338 337 337 336 335 335 334 334 335 334 333 333 334 335 336 338 339 341 341 341 339 339 339 337 336 337 339 339 339 340 341
348 348 349 350 351 350 351 352 352 352 352 353 353 353 353 353 355 357 358 358 358 358 357 356 354 353 351 349 347 343 339 338 337 338 337 336 335 334 333 334 334 334 333 334 333 334 335 337 339 340 343 344 343 342 341 339 338 336 337 339 340 341 342
347 347 348 349 349 350 350 350 352 352 352 352 352 353 353 354 356 357 359 360 358 359 358 357 355 353 352 351 349 345 341 339 338 337 337 336 335 334 333 333 333 334 334 333 333 333 335 336 338 339 340 344 346 345 343 342 340 339 339 338 339 340 340
346 347 347 348 349 350 348 348 350 351 352 352 353 355 355 356 358 359 361 361 360 360 359 358 357 355 353 352 351 350 347 345 342 340 339 338 335 335 334 333 334 334 334 334 334 335 335 336 338 341 341 342 344 346 346 343 341 341 341 339 339 340 339
345 346 348 348 348 349 349 349 349 350 351 352 353 356 357 358 360 361 362 362 361 361 360 359 358 356 354 352 351 351 350 348 347 345 343 340 337 336 334 334 334 335 335 335 336 336 335 336 338 341 343 342 341 342 343 343 341 341 340 340 339 339 339
343 344 346 347 347 349 349 349 349 349 349 350 352 354 356 359 361 362 362 363 362 363 362 361 360 359 357 354 352 350 350 348 347 347 345 343 340 338 336 336 336 336 335 336 336 336 336 337 338 339 340 341 341 340 339 340 341 341 340 339 339 339 339
343 344 345 345 345 346 348 349 349 348 349 350 351 353 355 358 361 362 362 363 363 363 363 364 362 361 360 358 355 351 350 347 346 345 344 343 342 340 339 338 337 337 337 336 337 337 338 338 339 339 338 339 340 340 340 338 340 341 341 341 340 339 338
344 345 346 346 345 346 347 349 350 350 350 352 355 357 359 360 363 363 364 364 363 363 364 365 365 364 362 361 358 354 350 347 344 343 343 343 342 341 341 339 339 339 337 337 338 338 339 339 339 338 338 338 340 340 340 340 340 341 342 342 343 342 340
347 345 347 347 347 347 348 348 351 352 354 356 358 362 363 363 365 365 364 364 364 363 365 366 366 366 365 364 361 357 353 349 346 344 344 344 344 343 341 340 340 340 339 338 338 338 339 340 339 339 340 341 341 341 341 343 341 340 340 340 341 342 341
345 344 346 349 348 348 349 349 351 353 357 359 361 362 365 365 366 366 365 365 364 364 365 366 366 367 367 366 364 361 357 353 349 348 346 345 345 343 342 341 341 342 343 341 339 337 339 340 342 341 340 341 343 342 342 344 341 339 338 338 337 338 340
344 344 347 349 348 349 350 350 350 352 354 357 361 364 365 365 366 366 365 365 365 365 364 365 366 367 367 366 365 363 361 357 352 351 349 347 345 343 342 341 342 343 344 343 341 340 340 341 343 344 343 342 343 343 344 343 342 340 338 337 336 337 339
349 348 349 350 348 348 348 347 346 347 348 349 353 358 362 365 366 366 367 365 365 365 365 365 366 366 367 366 366 364 362 360 356 353 350 348 346 343 341 341 343 343 344 344 344 343 343 343 344 346 347 346 344 345 345 344 342 341 340 338 336 337 337
352 351 351 349 348 348 349 347 345 346 346 346 348 351 357 362 366 366 366 366 366 366 365 365 366 366 366 366 365 365 364 362 360 356 352 349 346 343 342 342 343 343 344 343 344 345 345 345 345 347 349 351 350 349 346 345 343 343 343 340 339 339 338
349 349 348 348 347 348 349 349 349 350 351 352 354 354 356 361 363 365 366 365 366 366 365 366 365 365 366 366 365 365 363 362 362 359 356 351 347 345 344 343 341 342 342 343 345 347 348 347 348 348 350 352 353 352 350 346 344 344 344 343 342 341 341
343 346 348 350 351 351 353 352 352 353 356 359 361 363 364 364 363 363 365 365 366 366 365 366 365 365 365 365 365 365 363 363 362 361 358 356 351 349 346 343 341 341 342 343 345 345 347 347 348 349 349 352 354 354 354 350 346 344 344 344 344 345 346
336 339 341 343 344 344 346 346 344 347 349 351 356 359 361 363 365 363 364 364 365 365 366 365 365 365 364 364 364 365 364 363 361 360 359 357 354 352 348 345 342 340 341 343 344 345 346 347 349 348 349 350 351 354 354 352 350 349 347 346 346 348 350
331 335 337 338 341 344 344 345 350 351 352 351 354 356 355 357 358 361 363 363 363 364 365 365 365 364 364 364 364 364 363 363 361 360 360 358 356 354 350 347 343 342 342 343 344 345 345 345 346 347 347 348 348 350 350 350 350 351 352 352 353 353 355
336 339 341 342 346 350 351 352 356 359 358 357 357 359 360 358 356 354 356 361 363 363 362 363 363 363 363 364 364 364 363 363 361 361 360 358 357 355 352 349 347 344 344 345 344 343 343 343 345 346 347 347 346 346 346 347 348 351 354 355 357 359 360
355 358 359 356 355 356 355 357 356 352 348 343 343 351 358 361 359 356 352 352 357 361 362 362 362 362 362 362 363 364 364 363 362 361 360 359 358 357 355 353 350 349 347 346 346 346 345 346 348 348 347 347 347 347 349 351 351 354 356 357 359 360 361
357 357 356 353 349 346 345 344 343 342 337 331 328 334 347 357 361 360 357 352 352 355 358 359 360 361 361 361 361 363 363 363 363 362 361 361 359 359 358 357 355 354 352 351 349 349 349 350 351 351 351 350 351 352 353 354 355 356 358 359 360 360 361
355 351 346 343 343 348 352 347 345 348 347 344 337 329 334 348 357 360 361 358 354 353 351 352 357 360 360 360 360 362 363 364 364 362 362 361 360 360 360 360 359 359 358 356 353 352 352 352 352 354 355 356 355 356 356 357 357 358 359 360 360 361 361
362 359 356 351 350 356 360 354 347 346 346 349 353 347 336 338 347 354 358 359 359 357 354 352 354 356 358 360 360 360 363 363 364 364 363 363 363 363 363 363 363 363 362 361 359 357 356 356 355 357 358 359 360 360 360 361 361 361 361 362 362 362 362
363 363 361 357 352 352 351 345 338 336 336 342 353 358 352 341 338 344 350 354 357 359 358 356 355 356 357 359 359 360 362 363 364 364 365 365 365 364 365 366 366 366 365 364 363 362 361 361 360 360 360 361 362 363 364 364 364 365 364 364 364 364 364
362 362 360 358 353 350 346 343 338 336 338 341 346 352 352 348 342 342 347 351 353 357 359 358 357 357 358 358 359 359 361 362 364 364 364 365 365 365 366 366 367 367 367 366 365 364 364 363 363 362 362 362 362 363 364 365 365 365 366 366 366 366 366
359 360 360 359 355 352 349 350 349 349 350 351 353 354 351 350 350 352 354 352 352 356 360 360 358 358 358 358 358 358 360 361 363 364 364 365 366 366 366 366 367 368 367 367 366 366 365 365 365 364 365 364 363 363 363 364 364 364 365 364 365 364 365
355 357 358 358 356 354 352 353 357 359 358 359 363 365 361 357 358 361 360 357 355 358 360 361 359 359 359 359 358 358 359 360 362 363 365 365 366 366 366 366 367 367 367 367 367 367 367 367 366 366 366 366 365 364 364 364 364 364 363 363 362 362 362
353 353 354 356 354 353 352 354 358 361 358 359 364 368 368 365 364 363 362 361 360 361 361 361 360 359 359 360 359 359 360 362 363 364 365 367 367 367 367 367 368 367 368 368 368 367 368 367 367 367 367 366 366 365 365 365 364 363 362 362 362 362 362
351 351 351 353 354 353 355 357 358 359 357 358 362 367 368 367 367 365 364 363 362 361 361 361 360 360 360 360 361 361 362 364 365 367 368 369 369 368 368 369 368 368 368 368 368 368 368 367 368 368 367 367 367 366 366 365 364 363 362 362 362 362 362
351 350 349 350 351 354 357 358 358 357 356 356 359 363 364 366 366 366 366 365 363 362 362 361 362 363 362 362 362 362 363 364 366 368 368 369 369 369 369 370 369 368 368 367 368 368 367 367 367 367 367 366 365 365 365 364 363 362 361 361 360 360 360
350 350 350 350 352 354 357 356 355 355 355 355 356 359 362 363 364 365 365 364 364 364 363 364 365 365 364 364 363 363 362 365 367 368 368 368 368 368 369 369 369 368 368 367 367 367 367 367 366 366 366 366 364 363 363 363 362 361 360 358 356 354 353
349 350 351 351 353 355 355 354 353 353 352 352 354 357 360 361 361 363 363 362 362 364 365 366 366 365 365 366 365 365 365 366 366 366 367 367 367 367 368 368 368 368 367 367 367 366 366 366 365 364 363 363 362 362 361 361 360 358 356 353 348 344 341
348 349 350 352 353 354 354 353 352 350 349 350 353 356 357 358 360 363 363 363 363 364 365 365 364 364 365 365 366 366 367 366 366 366 367 367 367 367 367 367 365 364 364 364 363 364 364 364 363 362 361 361 361 360 359 357 354 350 346 341 337 333 332

ECMWFFLT1_850_thetae_072.txt.gz
Theta_e
348 349 350 350 351 351 350 350 349 350 351 351 350 352 352 352 352 352 352 353 352 352 352 352 352 352 351 351 350 348 348 348 348 346 344 342 339 338 337 337 337 336 335 333 332 331 331 335 340 340 338 338 339 340 341 341 342 343 343 344 343 344 343
348 349 349 350 351 350 351 350 350 350 350 350 351 351 352 352 352 353 353 353 352 352 353 352 352 352 351 351 350 349 347 347 347 347 346 344 342 340 337 336 336 334 332 331 330 330 332 336 339 340 340 338 338 339 340 341 342 342 343 343 343 343 342
348 348 349 350 351 350 351 351 350 351 350 351 351 351 352 352 352 352 353 352 353 353 353 353 352 352 351 351 351 350 349 348 348 348 346 344 342 340 339 337 334 333 331 330 331 333 334 336 338 340 341 339 337 339 340 340 341 342 342 342 342 343 342
347 349 349 349 351 351 351 352 350 350 350 350 351 351 352 351 352 352 352 353 353 353 353 353 353 353 351 352 351 350 349 348 348 347 345 344 342 340 339 337 334 333 332 330 331 333 335 336 338 338 340 340 340 341 340 339 339 340 342 343 342 343 342
347 349 349 349 351 350 350 352 351 351 351 351 352 351 351 352 352 353 353 353 353 353 353 353 353 353 352 352 351 350 349 348 346 345 344 343 342 341 339 336 334 333 331 331 332 334 335 336 337 337 337 338 339 340 341 340 339 339 340 342 342 342 342
348 349 349 348 350 350 351 351 351 352 351 351 352 351 352 352 353 353 353 353 353 353 354 354 353 353 352 352 351 350 350 349 347 346 345 344 343 341 338 335 334 332 330 332 333 334 335 336 337 337 336 335 335 337 340 341 341 339 339 341 341 341 341
348 349 349 348 350 351 351 352 351 351 352 351 351 352 352 352 353 353 353 353 354 353 353 354 353 353 353 352 352 351 349 348 347 346 345 345 345 343 339 335 334 332 331 332 333 334 335 335 336 335 334 334 333 335 338 340 340 339 338 339 340 340 340
348 349 349 349 350 351 351 352 352 352 352 351 351 352 352 352 352 352 353 353 353 354 354 354 353 353 353 352 352 350 349 346 346 346 345 345 345 343 340 336 334 332 331 331 332 333 334 334 334 333 334 334 334 334 335 337 338 338 337 338 338 339 339
348 349 349 350 349 350 351 351 351 352 352 352 352 352 352 353 353 353 353 353 353 354 354 353 353 353 352 352 351 350 348 346 345 344 344 345 344 343 340 337 335 334 332 330 330 332 332 332 331 331 333 334 335 335 335 335 335 336 337 336 336 338 338
349 348 349 350 349 350 351 351 351 352 352 353 352 352 353 353 354 353 354 354 354 354 354 354 354 353 353 352 352 351 350 348 347 345 345 345 343 342 340 338 337 335 333 331 330 331 331 331 332 332 333 333 335 335 335 335 334 334 335 335 335 336 336
348 349 349 349 350 350 351 351 352 352 352 353 352 353 353 353 353 354 354 355 354 354 354 353 354 353 353 353 352 352 351 350 349 347 345 344 343 342 341 340 339 337 335 333 331 331 330 331 332 333 334 333 333 334 335 335 334 334 334 335 335 335 334
349 349 349 349 350 350 351 351 352 352 352 353 352 352 352 353 353 354 354 354 354 354 354 354 354 354 353 354 354 353 352 351 349 346 345 344 342 342 341 341 340 338 337 335 334 332 331 331 331 332 332 333 332 333 333 333 334 334 334 334 334 335 336
348 349 348 350 350 350 350 351 352 352 352 352 352 351 352 352 353 353 354 355 355 355 355 354 354 354 354 355 354 354 353 351 349 345 343 342 341 341 341 340 339 338 337 335 335 334 332 332 331 331 331 332 332 332 332 333 334 334 334 334 335 336 336
348 348 349 350 349 350 351 351 350 352 351 351 351 351 351 352 352 352 354 355 355 356 355 355 355 355 355 355 355 355 354 352 350 348 344 342 341 341 340 340 340 339 337 336 335 335 334 332 332 331 331 332 332 332 333 334 335 335 336 336 336 337 337
347 346 348 348 348 350 350 349 350 350 350 351 351 351 352 351 352 353 354 355 356 355 356 356 357 356 356 356 356 356 356 354 353 350 347 345 343 342 341 341 340 339 338 337 336 335 335 334 333 333 333 333 333 333 335 337 337 336 336 336 336 336 337
346 346 346 347 348 349 349 349 349 348 348 350 350 351 352 352 353 353 353 354 355 356 356 357 357 358 358 357 358 358 357 356 354 352 351 348 346 344 343 342 342 341 340 338 336 335 335 335 336 336 335 334 334 335 337 337 337 335 335 336 336 336 336
344 345 345 347 347 347 348 349 349 349 349 350 350 350 351 351 352 353 353 354 355 356 357 358 359 359 359 359 359 359 358 357 356 355 353 351 348 346 344 343 344 344 342 339 338 337 337 337 337 337 337 336 335 335 337 337 336 334 335 336 335 337 338
344 345 345 346 346 346 348 348 348 349 349 349 349 350 349 350 352 353 354 355 356 357 359 359 360 360 360 361 360 360 360 359 358 356 355 354 351 349 346 346 346 346 344 343 341 339 338 338 338 338 338 337 337 337 337 336 335 335 335 335 336 338 340
343 344 344 345 345 346 346 347 348 348 349 348 348 347 347 348 351 353 354 356 358 358 360 361 361 362 361 362 362 361 361 360 360 359 358 356 355 353 351 349 348 347 346 344 343 343 341 340 339 339 339 339 338 337 337 336 335 335 336 336 337 339 342
343 343 343 345 344 345 346 345 347 348 347 347 346 345 346 346 347 349 351 354 357 358 360 361 362 362 363 362 362 363 362 362 362 361 360 360 358 356 354 352 350 348 347 348 347 346 344 341 341 341 341 340 339 337 337 337 336 336 337 337 337 339 342
343 343 343 344 344 345 345 345 346 347 347 346 345 345 346 347 348 350 352 354 357 358 360 362 362 363 363 363 363 363 363 363 363 363 363 362 361 359 357 354 352 350 349 349 349 347 344 343 342 342 341 341 340 339 339 337 337 338 339 339 339 341 343
345 344 344 345 345 344 344 344 344 345 345 346 346 348 350 351 354 356 358 360 361 362 363 363 364 364 363 363 364 364 364 364 364 364 364 364 363 362 359 357 355 351 350 350 349 348 346 345 344 342 343 342 342 342 340 337 337 339 339 340 343 345 347
348 346 347 345 346 345 345 345 345 345 346 346 349 351 353 356 358 361 363 363 363 364 365 364 364 364 364 364 364 364 364 364 365 365 365 364 364 363 362 360 358 355 353 351 350 349 347 345 344 343 344 344 344 344 341 337 337 340 341 342 346 348 351
351 351 351 348 348 349 347 347 347 347 348 348 349 350 350 354 357 360 363 364 364 365 365 365 365 364 364 364 364 364 364 364 365 365 365 365 365 364 363 362 360 358 356 353 351 349 347 346 346 345 346 346 345 345 344 341 341 343 344 346 348 350 353
354 354 353 351 352 353 353 354 354 354 356 358 357 356 354 354 354 355 358 361 364 365 366 365 366 365 365 365 364 364 365 365 365 364 365 364 364 364 363 362 362 360 358 355 353 350 348 349 350 350 347 347 347 347 348 348 348 349 350 351 353 354 355
356 356 356 354 354 353 354 356 358 359 359 359 360 361 360 361 360 359 359 360 362 365 365 366 366 365 365 365 365 365 365 365 365 365 364 364 364 364 363 363 362 362 359 358 355 352 351 351 351 352 351 350 351 351 352 353 353 354 355 355 356 357 357
355 356 354 353 353 352 351 351 353 354 350 347 348 351 355 360 360 358 359 360 361 362 362 364 364 365 365 366 366 366 365 365 365 364 364 364 364 363 363 363 362 362 360 359 358 355 353 352 351 351 351 351 352 353 354 355 355 355 356 356 357 358 358
353 352 350 347 345 345 345 347 350 350 346 345 345 345 349 354 357 357 357 356 357 357 356 358 360 362 364 366 365 366 366 365 365 365 364 364 364 363 363 363 362 362 361 361 359 357 355 354 352 352 352 352 353 353 355 355 355 356 356 356 356 356 356
353 351 349 346 342 340 339 338 339 340 340 342 345 347 346 347 350 356 358 357 359 358 355 355 356 357 360 363 363 364 364 363 364 364 364 364 363 363 363 363 362 362 361 361 360 359 358 356 355 353 353 353 354 354 355 355 356 356 356 356 357 358 357
354 352 351 350 348 345 341 338 336 335 335 336 338 342 344 344 343 348 352 355 358 359 358 357 356 354 355 357 358 360 362 362 362 363 363 364 364 363 363 363 363 362 361 361 361 360 359 358 357 357 356 356 355 357 357 356 357 358 359 361 362 361 362
352 351 350 350 350 347 345 342 338 336 334 334 334 336 338 337 336 338 343 349 352 356 358 358 358 358 356 355 355 356 358 361 362 361 363 363 363 364 364 363 362 362 362 362 361 361 361 361 361 360 359 359 358 358 359 359 360 361 362 363 363 364 364
350 349 348 347 348 349 348 347 346 346 344 343 346 351 349 343 337 333 335 338 343 348 352 354 356 358 358 357 357 355 356 359 360 361 362 363 363 363 364 363 363 363 363 363 363 363 364 364 364 364 363 362 362 361 362 362 362 363 363 363 363 364 365
349 349 348 348 348 349 350 350 351 354 353 351 354 360 362 358 351 345 340 336 335 338 344 347 350 353 356 358 358 356 356 357 359 361 362 363 363 364 364 365 365 364 364 365 365 366 366 367 367 366 365 365 365 364 364 364 364 364 364 363 363 364 364
348 348 348 348 348 349 350 352 353 354 354 352 352 358 364 365 363 361 357 352 346 343 345 348 348 350 355 358 359 358 358 358 359 361 363 364 365 367 367 368 367 366 366 366 366 367 367 367 368 367 367 367 366 366 365 366 365 364 364 363 363 363 362
348 348 348 348 349 350 351 353 354 353 352 351 349 352 359 364 365 365 365 362 359 356 355 355 354 354 358 360 360 359 359 359 360 361 362 364 366 368 369 370 369 369 369 368 367 367 366 366 367 367 367 366 366 366 366 366 366 365 364 363 363 362 361
348 347 347 346 348 350 351 352 352 351 351 350 348 348 352 358 363 365 365 365 363 361 360 360 359 360 361 361 360 359 359 359 361 362 363 365 366 367 369 369 369 369 368 368 368 368 367 367 367 367 367 367 367 366 366 365 365 365 364 363 363 361 360
348 348 348 347 347 348 350 350 351 351 350 350 347 345 348 353 358 362 363 365 365 364 362 362 361 361 361 361 360 360 360 360 362 364 365 366 366 367 368 368 369 370 369 369 369 369 369 369 368 368 367 367 367 367 366 364 364 364 363 362 361 360 360
345 346 348 348 348 349 349 350 351 350 349 348 346 345 348 351 355 358 360 363 364 364 364 364 364 361 361 361 361 362 362 363 364 365 367 368 368 368 368 367 368 369 369 369 369 370 369 368 368 368 368 367 367 367 366 364 362 361 360 359 358 358 356

ECMWFFLT1_850_thetae_075.txt.gz
Theta_e
345 347 347 348 348 348 348 348 347 348 348 347 348 348 349 349 349 350 350 350 350 350 350 350 350 350 350 350 350 350 350 350 350 349 347 345 342 342 343 342 341 339 338 337 335 336 335 335 337 337 337 336 336 338 339 339 339 340 342 343 344 344 343
344 346 347 348 348 348 348 348 348 348 348 348 348 349 349 349 349 349 349 350 350 350 350 351 351 350 350 350 351 351 351 350 350 350 349 347 344 343 342 343 342 340 339 337 336 336 335 335 336 336 336 337 337 337 338 339 339 340 341 342 342 343 343
344 345 346 347 348 348 348 348 348 348 348 348 349 349 349 349 349 350 349 350 350 350 351 351 350 350 350 351 350 350 351 350 351 350 349 348 345 343 343 343 343 341 340 338 337 336 336 335 335 335 335 337 337 337 338 338 339 339 340 341 342 342 341
344 345 346 347 348 348 349 348 348 349 349 349 349 349 349 349 349 350 350 350 351 350 351 351 350 350 350 351 351 350 351 350 350 350 349 347 345 343 344 344 344 342 340 339 337 337 336 334 334 334 334 337 338 338 337 338 339 339 340 340 341 341 341
344 345 346 346 348 348 348 349 348 348 349 349 349 349 349 350 350 350 350 350 350 350 351 351 350 351 350 351 351 351 351 351 350 351 350 348 347 345 343 343 343 342 340 340 339 338 336 334 332 331 333 335 338 338 338 337 338 338 338 339 340 340 340
344 345 346 346 348 347 348 349 348 349 348 349 350 349 350 350 350 351 350 351 351 351 350 351 350 351 351 351 351 351 351 351 351 351 350 349 348 345 342 340 340 341 340 340 340 340 338 335 332 331 332 335 336 337 337 337 338 338 338 338 338 338 339
344 345 346 346 347 348 348 349 348 349 349 348 349 349 350 350 351 351 351 351 351 351 351 351 351 351 351 351 351 351 352 351 351 351 350 350 349 347 344 341 340 340 340 340 340 339 339 335 332 331 333 335 335 337 337 337 338 339 339 338 338 338 338
345 345 346 346 347 348 348 349 349 348 349 349 349 349 350 351 351 351 352 351 351 352 351 351 351 351 351 351 351 351 351 351 351 351 351 350 350 348 346 343 341 339 340 340 338 338 338 335 332 331 333 335 336 336 336 337 338 339 340 340 338 338 338
345 345 346 347 347 348 348 348 349 349 349 349 349 350 350 350 351 351 352 351 352 351 351 351 352 351 351 352 351 351 351 351 351 351 351 351 350 349 347 345 342 340 340 338 337 337 337 335 332 331 333 334 336 336 335 334 335 336 339 340 339 339 337
345 345 346 346 346 347 348 348 350 350 349 349 349 350 350 349 351 351 352 352 352 352 352 352 352 352 351 351 351 351 351 351 351 351 351 350 350 349 347 346 344 342 340 338 337 337 335 334 333 331 333 334 335 336 335 334 333 334 335 337 339 339 338
344 345 346 347 346 348 348 349 350 349 350 350 349 349 350 350 350 351 351 352 351 352 352 352 352 352 352 352 352 352 351 352 352 351 351 351 349 349 348 346 345 343 340 339 338 335 334 333 333 332 333 334 334 335 334 333 333 334 334 335 336 337 337
343 345 345 346 346 347 348 349 349 350 350 350 350 350 350 350 351 351 351 352 352 352 352 352 352 352 352 352 352 352 352 352 352 352 351 351 350 349 348 346 345 343 340 338 336 335 333 333 332 331 332 332 333 333 332 332 333 333 334 334 334 334 334
343 345 345 346 346 347 348 349 349 349 350 350 351 350 350 350 350 351 351 352 352 352 352 352 352 353 352 352 352 352 352 352 352 352 352 351 350 349 348 346 345 343 340 338 336 335 334 333 332 331 331 331 332 331 331 331 332 333 334 334 334 334 334
344 345 345 346 347 347 348 348 349 350 350 350 351 351 350 350 350 350 351 351 352 352 352 352 353 353 353 352 352 352 352 352 352 351 351 351 350 349 348 347 344 343 340 338 336 335 335 333 333 331 331 331 331 330 331 332 332 332 333 333 334 334 334
345 345 346 346 347 348 348 348 349 349 349 350 350 350 350 350 350 351 351 351 352 352 352 353 353 352 353 353 353 353 352 352 352 352 352 351 350 350 348 346 345 343 340 338 336 335 335 334 334 333 331 331 331 331 332 333 332 332 331 332 333 333 332
345 345 347 346 347 348 348 348 349 349 350 350 350 350 350 351 351 351 351 352 352 352 353 352 353 353 353 353 353 352 353 353 352 352 352 352 351 350 349 348 346 344 341 338 336 335 334 334 334 334 332 331 331 331 331 332 331 331 331 331 331 332 332
346 346 346 347 347 348 348 348 349 350 351 350 350 351 350 350 351 351 352 352 352 353 353 353 353 353 353 353 353 352 353 353 353 352 352 352 352 351 351 350 348 346 343 340 338 336 335 335 335 334 333 332 332 331 332 331 330 330 331 330 332 332 333
345 346 346 348 348 348 348 348 349 349 350 350 350 351 349 350 351 351 352 352 352 353 353 353 354 354 353 353 353 353 353 353 353 353 353 352 353 352 352 351 350 348 346 343 340 338 336 336 335 335 334 334 333 333 332 331 330 331 330 331 331 332 333
346 345 347 348 347 348 348 348 349 350 349 350 349 350 349 349 350 351 351 352 353 353 353 354 354 353 353 353 353 353 353 353 353 353 353 353 354 354 354 353 352 350 348 346 343 341 339 337 336 336 335 335 335 334 333 332 332 332 331 331 332 333 334
345 345 347 347 347 348 348 348 348 349 349 349 348 348 348 349 350 350 351 352 353 353 353 354 354 354 353 353 353 354 353 354 354 353 354 355 355 355 355 355 354 352 351 350 347 345 341 339 337 337 337 336 336 335 334 334 333 333 333 333 333 334 336
344 346 345 346 348 348 347 348 348 349 349 349 348 348 349 349 350 350 351 351 352 352 352 353 353 354 353 352 353 353 354 354 354 354 355 356 357 357 357 357 356 355 354 352 350 348 345 341 339 338 338 337 338 338 336 335 334 335 334 334 335 337 339
344 346 345 346 348 347 348 348 348 348 348 348 348 349 349 349 350 350 350 351 351 351 352 352 353 353 352 353 353 353 353 354 355 356 357 358 358 358 358 359 358 357 356 355 353 352 350 347 344 340 339 338 339 339 339 336 336 337 337 337 339 341 342
343 344 345 346 346 346 347 347 347 348 348 348 348 348 347 348 349 349 350 350 351 352 352 352 353 352 352 353 353 353 355 355 357 358 359 359 360 359 360 360 359 359 358 357 356 355 354 352 348 345 343 342 340 340 339 337 338 339 340 341 343 345 345
341 342 343 343 345 346 346 346 346 348 348 348 347 347 347 348 348 349 350 351 351 352 353 353 353 353 353 353 354 355 356 357 359 359 360 361 361 361 360 361 361 361 360 360 359 359 357 355 352 350 347 345 342 340 339 338 339 341 341 343 345 346 346
344 343 343 343 343 343 344 345 345 346 347 347 348 348 348 348 349 350 350 351 352 353 353 353 353 353 354 354 354 356 358 358 360 361 361 362 362 362 362 362 362 362 362 362 362 360 359 358 356 354 351 348 345 343 341 340 341 342 342 344 346 347 348
352 349 347 346 345 344 344 344 345 345 347 348 348 349 348 348 348 349 349 350 351 352 352 353 353 353 355 355 356 357 358 360 362 362 362 363 363 362 363 363 363 363 363 362 363 362 361 360 358 357 355 352 350 348 344 342 341 342 343 345 347 348 349
359 358 356 354 353 351 349 349 348 349 351 351 350 350 350 349 350 351 351 351 352 353 353 354 354 356 356 357 358 359 360 361 363 363 363 363 363 363 363 363 364 363 363 363 363 362 362 361 360 359 358 356 354 352 349 345 343 343 343 345 347 348 349
354 357 359 361 360 358 357 356 356 356 356 357 357 356 354 355 354 355 356 357 357 357 358 359 361 360 361 361 361 362 362 363 363 363 363 364 363 364 364 363 364 364 364 364 363 363 362 362 361 360 359 358 356 355 352 350 348 346 346 346 348 348 350
349 350 351 353 356 357 359 359 358 358 359 359 359 360 359 360 359 360 360 359 360 359 360 361 363 363 363 364 363 364 364 364 364 364 364 364 364 364 364 364 364 364 364 363 364 363 363 362 362 361 361 359 358 357 355 353 352 351 350 350 351 352 352
349 348 346 344 344 344 347 349 349 350 352 351 353 356 358 358 361 360 361 361 361 362 362 362 363 364 365 365 365 365 364 364 365 365 364 365 364 365 365 365 364 364 364 364 364 364 363 363 362 362 361 360 359 358 357 355 354 354 353 354 354 354 355
348 350 349 347 344 339 337 338 337 338 338 339 340 344 346 350 353 355 357 359 359 360 362 361 361 363 363 363 365 365 365 365 365 365 365 365 365 365 365 365 365 364 364 364 364 364 363 363 363 362 361 361 360 359 358 356 356 355 355 355 355 355 356
347 349 350 349 349 346 341 337 334 333 333 333 335 336 336 338 341 344 347 350 351 354 357 358 359 360 360 360 361 361 362 363 363 364 364 364 364 364 365 365 365 364 364 364 364 364 363 363 363 362 362 361 360 360 359 358 358 357 357 357 357 357 357
347 348 350 351 352 351 348 342 337 335 335 335 335 336 335 334 336 339 341 341 342 345 347 349 352 355 356 358 358 358 359 359 360 361 362 362 363 364 364 364 364 364 364 364 363 363 363 363 362 362 362 362 361 360 359 360 360 359 359 359 359 359 360
349 348 348 350 350 351 350 347 345 343 341 339 338 338 337 337 340 345 348 349 349 349 348 348 348 348 349 352 355 356 357 358 357 358 359 360 362 363 363 364 364 364 364 364 364 364 363 363 363 363 362 362 361 362 362 363 362 362 361 361 361 361 361
350 349 348 348 349 349 349 348 347 346 344 341 340 338 336 337 339 343 348 353 356 356 355 355 352 350 350 350 351 353 355 356 357 357 358 359 360 362 363 364 364 365 364 364 364 364 364 363 363 363 362 363 363 364 365 365 364 364 364 363 363 363 363
348 348 349 348 348 348 348 346 346 346 344 342 339 336 334 334 333 336 343 353 359 359 358 358 357 355 355 355 355 356 355 356 357 358 358 358 358 359 361 362 363 365 365 364 365 364 364 365 364 365 365 366 366 366 366 366 366 365 365 364 364 364 363
347 347 348 349 348 347 347 346 345 344 343 342 340 338 338 338 337 339 343 350 357 359 360 361 359 358 359 359 360 360 359 359 359 359 358 358 358 359 360 361 362 364 365 365 365 365 366 367 367 367 368 367 367 368 367 366 366 365 365 365 363 362 362
346 347 348 348 348 348 347 347 345 344 343 343 343 344 345 345 344 345 347 349 353 358 361 363 362 361 360 360 362 362 361 361 360 359 359 358 359 361 361 362 363 364 365 366 367 367 368 368 368 369 369 368 367 367 367 367 367 365 364 362 361 361 361

ECMWFFLT1_850_thetae_078.txt.gz
Theta_e
347 347 347 347 346 346 347 346 347 347 348 348 349 349 349 349 349 350 350 349 350 349 349 348 348 349 348 348 348 348 348 347 346 346 344 344 343 343 341 340 340 339 338 337 336 336 337 338 339 340 340 340 339 339 338 338 338 339 340 341 341 341 342
345 346 347 347 347 346 347 347 346 347 347 348 349 348 349 349 349 350 350 350 349 348 348 348 348 348 349 348 348 349 348 347 346 345 345 344 344 343 343 341 340 340 339 338 337 337 337 337 338 339 339 339 339 338 337 338 339 339 340 341 341 340 341
344 345 346 346 347 347 346 347 346 347 346 347 348 348 349 349 349 349 349 349 349 349 348 348 348 348 348 348 348 349 348 348 347 346 345 344 344 344 343 342 341 341 340 340 339 338 337 337 337 337 338 339 338 338 337 336 337 339 340 341 341 340 340
343 344 345 346 347 347 347 347 346 347 346 347 347 347 348 348 349 349 348 348 348 348 348 348 348 348 348 348 349 349 349 349 348 347 346 345 346 345 346 345 344 342 342 341 341 340 339 338 337 337 338 338 338 338 337 336 336 337 338 339 340 340 340
342 343 344 345 346 347 346 347 347 347 347 346 347 347 347 348 348 349 348 348 348 347 347 347 348 348 348 348 349 348 349 349 349 348 348 347 346 347 347 347 346 345 343 342 342 341 339 338 337 336 337 337 337 337 337 337 338 338 337 338 339 340 340
342 342 343 345 345 346 347 347 347 347 347 347 347 347 347 348 347 348 348 348 347 347 347 347 348 347 348 348 348 349 349 350 349 349 349 349 348 348 347 347 347 346 344 343 342 342 340 339 337 336 336 336 337 337 336 337 338 338 338 338 338 339 339
342 342 343 344 344 345 346 347 347 347 347 347 346 347 347 347 348 347 347 348 348 347 347 348 347 348 348 349 349 349 349 350 350 349 349 350 349 349 347 347 347 346 346 345 343 342 341 339 337 336 336 336 336 335 335 336 338 339 338 337 337 337 338
342 343 343 344 344 345 345 346 346 347 347 347 347 347 347 347 347 347 348 347 347 347 348 348 348 348 348 348 349 349 349 349 350 350 350 350 349 349 349 349 348 348 347 346 343 343 342 339 337 336 335 336 335 334 334 334 337 339 339 338 337 337 337
342 342 342 343 343 344 345 346 346 347 347 347 347 347 347 347 347 347 347 348 347 348 347 348 348 348 348 348 349 349 349 349 350 350 350 350 350 350 349 349 349 349 349 347 344 343 341 340 338 337 336 336 334 333 333 333 336 338 339 338 337 337 338
342 342 342 344 343 343 344 345 347 347 347 347 347 347 347 347 348 348 348 348 347 348 348 348 348 348 348 349 349 350 349 350 350 349 349 350 350 350 350 350 349 349 349 347 346 344 342 340 339 338 337 336 334 332 332 333 335 337 338 337 337 338 338
340 341 342 343 343 344 344 345 346 346 347 348 347 347 348 348 348 348 348 348 348 348 348 348 348 349 349 349 349 350 350 349 349 349 349 350 350 350 350 350 350 349 348 348 347 345 343 342 340 338 336 335 333 331 331 332 334 336 337 337 337 337 337
339 341 342 342 343 344 344 345 346 347 347 347 347 347 348 348 348 349 348 349 348 348 349 349 349 349 349 349 349 350 350 350 349 350 350 350 350 350 350 350 350 349 348 348 346 346 344 342 341 338 336 334 332 331 330 331 333 334 336 336 336 335 335
338 340 341 342 343 343 344 345 346 346 347 347 347 347 348 348 348 348 349 349 349 349 349 350 349 349 349 350 350 350 349 350 349 349 350 350 350 350 350 350 350 349 348 348 347 346 344 343 341 339 337 334 333 331 330 331 332 333 334 335 334 334 334
335 337 339 342 343 343 344 345 346 346 347 347 347 347 348 349 349 349 349 349 350 350 349 350 350 349 350 350 350 350 350 349 349 349 349 350 350 350 351 350 350 349 348 347 346 345 344 343 341 340 337 335 333 332 330 330 330 332 333 334 334 333 333
332 336 339 341 343 344 344 345 346 347 347 347 348 348 348 349 349 349 350 349 349 350 350 350 350 350 350 350 350 350 350 350 349 349 349 350 350 350 350 350 350 349 348 347 345 343 342 342 342 340 338 335 333 332 331 330 330 330 331 332 332 332 332
331 336 339 341 343 344 344 345 346 347 347 348 348 348 348 348 349 349 349 349 350 350 350 350 351 350 351 350 350 350 349 350 349 350 350 350 350 350 350 350 350 349 348 346 344 343 342 341 341 340 338 336 334 333 331 331 329 329 329 329 329 330 330
333 337 339 341 343 344 344 345 346 347 348 348 348 349 348 348 349 349 349 350 349 350 350 350 350 350 351 350 350 350 350 350 350 350 350 351 350 350 350 351 351 350 349 347 346 344 343 341 341 339 338 337 335 334 332 331 329 329 329 328 328 329 329
337 339 340 341 342 344 344 346 346 347 348 348 349 349 348 348 349 349 350 349 349 350 350 350 351 351 350 350 350 350 350 350 350 351 350 350 350 350 351 351 351 350 349 348 347 345 344 343 340 339 338 338 336 334 333 330 329 329 329 328 329 328 329
339 340 341 341 342 343 345 345 346 347 347 347 348 348 349 349 349 349 349 350 350 350 350 350 351 350 350 350 350 350 350 350 350 351 350 349 350 350 350 351 351 351 350 349 348 347 346 344 341 339 339 338 336 334 332 331 330 329 329 329 329 329 329
341 341 341 343 342 343 344 344 345 346 346 347 347 347 349 349 349 350 349 350 350 350 351 351 350 351 350 350 350 350 350 351 350 350 350 350 350 350 351 351 350 351 350 350 350 349 347 345 342 340 338 337 336 334 333 332 331 330 330 330 331 331 330
342 341 342 343 343 344 345 344 346 346 346 348 347 348 349 349 349 350 349 350 350 350 351 350 350 350 350 350 351 351 351 351 350 350 350 350 351 351 351 351 351 351 351 351 351 351 349 347 345 342 339 338 337 336 334 333 332 332 332 331 331 332 332
342 342 343 344 343 344 344 343 345 345 346 347 348 348 349 349 350 350 349 350 350 350 351 350 350 351 350 350 351 350 350 350 350 351 351 351 351 351 351 352 351 352 352 351 352 353 352 351 349 345 342 340 338 337 335 333 333 333 333 333 333 334 334
341 342 343 344 343 344 344 344 345 346 346 348 348 348 348 349 349 349 350 350 350 350 351 351 350 351 350 351 350 350 351 351 351 351 351 351 352 352 352 352 352 352 352 353 353 354 355 354 352 349 347 345 343 340 336 333 334 334 334 335 335 336 336
341 343 343 344 344 345 345 346 346 346 348 348 348 349 349 349 349 350 350 350 350 351 351 351 350 350 350 350 350 350 351 351 351 352 351 352 352 352 352 352 353 353 354 354 355 356 356 356 355 354 352 350 348 344 340 336 334 335 335 336 337 337 338
340 343 343 344 345 345 346 347 346 347 347 348 348 349 349 349 350 349 350 351 350 350 350 350 350 349 349 349 349 350 351 350 351 351 351 351 352 351 352 353 354 355 356 356 357 357 357 358 357 357 356 355 352 350 347 342 339 339 339 338 338 339 338
340 341 343 344 344 345 346 346 347 347 348 348 348 349 349 349 350 349 350 350 350 350 350 348 347 347 347 347 348 349 349 350 351 351 351 352 352 353 354 355 356 357 357 358 358 358 359 359 359 359 359 357 357 356 353 349 347 346 345 343 341 341 341
345 341 342 343 344 345 346 346 347 347 347 348 348 349 348 349 349 350 350 350 350 349 348 346 346 346 346 347 348 349 349 349 350 351 351 352 353 354 356 356 358 358 358 359 360 359 360 360 360 360 361 360 359 358 357 355 354 352 350 348 347 346 346
353 347 344 342 343 344 345 345 346 347 347 347 347 348 348 349 348 349 349 350 349 349 347 347 347 347 348 348 349 350 350 350 351 351 352 353 354 355 356 358 359 359 360 361 361 361 361 361 361 362 361 361 361 360 359 358 357 356 355 353 351 350 349
357 356 352 347 347 346 344 345 346 345 347 347 347 348 348 348 349 349 349 349 349 349 349 349 349 348 349 349 349 351 351 351 352 353 353 354 356 356 358 359 360 360 361 361 361 361 362 362 362 362 362 362 362 361 360 360 359 358 357 356 355 353 352
358 359 359 357 355 353 350 350 351 350 349 348 347 348 348 348 349 348 348 349 349 350 350 350 350 350 351 351 351 352 353 354 354 355 355 357 357 358 359 360 361 361 362 362 362 362 362 363 363 363 363 363 362 362 361 360 360 359 358 357 356 355 354
355 357 358 359 360 359 357 357 357 357 356 355 353 351 351 351 350 351 351 351 351 352 353 353 353 354 355 355 356 356 357 357 357 358 358 359 359 360 361 361 362 362 363 363 363 363 363 363 364 363 364 363 363 362 362 361 360 360 359 358 357 356 355
354 353 353 355 357 358 359 359 359 358 359 358 358 358 358 357 356 355 356 357 357 358 359 359 359 360 360 360 361 361 361 361 361 361 361 361 361 362 362 363 363 363 364 363 363 364 364 364 364 364 364 363 363 363 362 362 361 360 359 358 358 357 357
353 352 351 351 350 351 353 354 355 356 357 357 358 357 358 359 359 359 359 360 360 360 360 360 360 360 361 361 361 361 362 362 363 363 363 363 363 363 363 363 363 363 364 364 363 364 364 364 364 364 364 364 363 363 362 362 361 361 361 360 359 358 358
351 351 351 350 349 347 347 346 346 349 351 355 357 357 355 355 356 356 355 355 356 356 356 357 357 357 358 358 358 359 359 360 360 361 362 362 363 363 363 364 363 363 364 364 364 364 364 364 364 364 364 363 363 363 362 362 362 361 361 360 360 360 360
350 350 350 350 349 348 346 345 344 344 343 345 349 353 353 352 350 348 346 344 344 346 346 348 348 349 351 352 354 355 356 357 358 359 360 361 362 362 363 363 363 363 364 364 364 364 364 365 364 364 364 363 363 363 363 362 362 362 361 362 362 362 362
347 349 349 349 349 348 346 346 345 345 344 343 342 343 345 346 346 344 343 341 340 339 340 340 340 342 344 345 347 350 353 354 357 358 359 360 360 361 362 361 362 362 363 363 363 363 364 364 364 364 364 364 364 363 363 363 363 363 364 363 364 364 364
346 346 347 348 348 347 346 346 345 346 348 347 346 344 342 340 341 342 342 343 344 346 348 347 346 345 347 348 348 349 351 353 354 356 357 359 360 360 360 360 360 361 361 362 363 363 363 363 364 364 364 364 364 364 364 364 365 365 365 364 364 364 364
344 345 346 347 347 346 346 346 346 346 347 347 347 347 344 342 340 340 341 342 344 348 351 354 354 353 354 355 356 356 356 355 356 356 357 358 359 359 360 360 360 360 360 360 361 362 363 364 364 364 364 364 364 365 365 366 365 365 365 364 363 363 364

ECMWFFLT1_850_thetae_084.txt.gz
Theta_e
351 352 353 355 356 357 357 357 357 357 357 358 358 357 357 356 356 356 352 345 342 344 346 348 347 347 348 346 345 344 343 341 339 338 338 337 335 335 335 337 337 338 340 342 342 341 341 343 345 346 345 344 344 343 344 344 343 341 342 343 341 339 340
349 349 350 354 355 356 357 357 357 357 357 357 358 356 357 357 356 355 351 347 343 344 346 347 348 348 348 347 346 346 344 341 339 338 337 337 336 337 337 338 340 339 340 343 344 342 341 342 343 344 344 344 344 344 344 344 344 342 340 343 344 341 339
345 347 348 351 354 355 356 357 357 357 357 358 358 356 355 356 355 353 350 347 345 345 346 347 348 348 348 348 347 347 346 343 342 341 339 338 338 338 340 340 341 341 340 341 342 341 341 341 342 343 343 344 344 344 344 345 345 343 341 341 344 343 339
342 344 347 350 354 354 355 356 357 357 357 357 357 356 354 353 353 350 347 346 345 344 346 347 347 347 347 347 348 348 346 345 345 345 342 342 341 340 341 341 340 342 342 341 342 341 340 341 342 342 341 342 344 345 345 346 345 344 342 341 343 345 342
341 343 345 350 352 354 355 355 356 356 356 356 357 357 356 353 351 349 347 344 344 345 346 346 346 347 347 347 348 348 347 346 345 345 344 343 343 342 342 342 342 342 343 343 342 341 340 341 340 341 341 341 341 343 344 345 345 344 343 342 342 343 343
342 343 346 349 352 353 355 355 355 355 355 356 357 357 357 355 353 351 348 346 345 345 345 345 346 346 346 348 348 347 346 346 344 344 345 345 344 345 343 342 343 343 343 344 343 342 341 340 341 340 341 341 341 343 344 344 344 344 343 343 342 341 342
341 343 346 347 351 353 353 354 354 354 355 355 356 358 358 357 355 354 353 350 346 346 346 345 346 346 347 347 347 347 346 346 345 345 346 346 345 345 345 344 344 344 345 344 343 343 342 340 340 340 340 340 340 343 345 343 343 343 342 343 343 342 341
340 344 347 348 349 351 353 354 353 354 355 355 355 357 356 356 356 355 356 353 350 350 349 346 345 346 347 347 347 347 347 346 347 347 346 346 346 346 346 346 346 345 345 344 343 342 342 340 340 340 339 340 340 341 342 341 341 342 341 342 342 341 340
337 344 348 347 347 350 351 353 353 354 355 354 355 356 356 356 357 357 356 355 353 351 350 348 348 346 345 347 347 347 347 347 347 347 346 346 347 347 347 347 347 346 345 344 343 342 341 340 340 339 339 340 340 341 340 340 340 340 340 340 339 338 339
337 343 348 349 347 349 351 353 354 353 354 354 354 355 356 355 356 356 356 356 355 352 351 351 352 348 345 345 347 346 347 347 347 346 346 347 348 348 348 348 349 346 344 343 344 342 341 341 340 340 339 339 339 340 340 339 339 339 340 339 337 336 337
338 345 349 350 349 350 352 352 354 353 354 354 354 354 356 355 356 356 356 356 356 355 354 354 355 352 346 343 345 346 347 347 346 347 347 347 347 347 348 350 351 349 346 345 346 345 343 341 341 340 340 339 340 339 339 339 338 339 338 338 336 336 335
339 344 347 349 349 350 352 352 354 355 354 353 353 354 355 355 356 355 355 355 356 356 357 356 356 354 349 342 343 345 346 347 347 347 347 347 348 348 349 351 352 351 348 347 347 347 345 343 342 341 340 339 340 339 338 338 339 338 337 337 337 335 334
340 342 345 347 348 349 352 352 354 355 354 352 353 354 354 355 355 355 355 356 356 356 357 356 357 357 352 344 343 344 345 346 346 346 347 346 347 349 351 351 353 353 351 348 347 348 348 346 342 341 340 340 339 339 338 338 338 338 337 336 337 336 334
336 338 342 346 348 348 351 354 355 356 354 352 353 353 354 355 355 354 355 355 355 356 357 356 357 357 353 347 345 344 343 344 345 345 346 347 346 348 350 351 353 353 352 349 348 349 350 349 344 340 340 341 340 339 339 338 337 337 337 336 336 335 333
334 331 335 343 348 350 351 352 353 354 352 351 352 353 354 354 354 354 355 355 356 356 356 357 357 355 353 349 346 344 343 343 344 345 345 347 346 347 348 350 351 351 350 349 348 349 351 351 349 345 342 342 341 340 339 338 337 336 335 334 334 334 333
339 336 337 338 344 349 351 351 349 348 349 350 351 352 355 354 354 354 355 355 355 355 356 357 356 354 352 349 346 345 343 343 343 344 346 346 346 346 347 347 349 349 349 348 348 349 349 350 351 350 347 343 341 341 340 338 337 335 334 333 333 333 332
345 349 351 348 346 346 349 351 352 349 349 349 348 351 353 354 354 354 355 355 355 355 356 356 356 353 350 348 347 346 344 343 343 343 345 346 347 346 347 347 348 348 348 348 348 348 348 349 350 351 351 348 342 341 340 338 336 333 332 332 332 332 332
351 355 357 359 358 355 350 350 352 353 349 344 346 350 352 353 354 354 354 355 355 355 355 356 356 353 351 350 348 346 345 344 343 344 344 345 345 346 347 347 348 348 348 348 348 348 348 349 349 349 351 351 347 342 340 338 336 334 333 332 332 332 332
355 356 358 360 362 361 357 351 349 352 350 345 344 347 349 351 351 351 351 354 355 355 355 357 357 354 352 351 349 346 345 345 344 344 344 344 345 346 347 347 347 348 348 348 348 348 348 349 349 348 350 352 349 344 341 340 337 334 333 332 331 332 332
356 358 359 359 360 361 363 359 351 349 352 350 344 344 348 352 351 349 351 354 356 355 355 357 358 355 352 350 348 346 346 346 345 344 344 344 345 346 347 347 347 348 348 348 348 349 348 349 349 349 349 350 348 345 344 342 339 334 333 333 332 331 332
356 357 358 360 361 361 363 363 354 346 349 353 350 348 351 354 354 353 353 354 355 355 356 357 358 356 352 349 347 346 346 346 346 345 345 345 345 346 347 347 347 348 348 349 349 348 349 349 349 350 349 349 348 347 345 342 339 335 334 333 333 333 332
353 356 358 359 361 362 363 362 355 346 345 352 353 352 353 355 355 354 353 354 355 356 356 357 356 354 351 348 347 346 346 346 346 346 345 345 345 346 346 347 348 348 348 349 350 349 349 349 349 350 349 349 348 347 346 341 338 335 333 333 333 333 333
348 354 358 359 360 363 360 355 352 347 346 351 352 351 353 355 355 354 354 355 356 356 356 356 354 351 348 347 346 346 346 346 347 347 346 346 346 346 346 348 347 348 349 348 350 351 349 348 349 349 349 349 348 347 345 343 339 336 334 334 333 334 334
348 353 358 359 361 359 353 350 350 349 349 353 352 350 352 355 355 354 354 355 355 356 357 355 352 348 347 346 346 346 346 346 346 347 347 347 347 346 347 348 347 349 349 348 349 351 350 349 349 349 349 349 349 348 345 344 343 339 335 335 335 334 335
348 354 357 360 360 355 349 349 351 349 351 354 352 350 353 354 355 355 355 356 356 357 357 354 349 346 346 346 346 347 347 347 347 347 347 347 348 348 347 348 348 348 348 349 349 350 351 351 349 349 349 349 349 349 347 346 347 343 339 337 337 336 337
347 355 357 360 359 354 350 352 352 351 353 354 351 352 354 354 355 355 355 355 357 357 356 350 346 345 346 346 347 347 347 347 347 347 348 348 348 348 348 348 349 349 348 349 349 349 351 352 350 349 349 349 349 349 348 348 349 346 342 340 339 338 339
349 355 356 358 358 354 352 354 353 352 353 353 353 353 354 355 356 355 354 355 355 354 352 349 346 347 347 346 347 348 347 347 348 348 347 348 348 348 349 348 348 349 349 349 349 349 349 350 351 350 349 350 350 350 350 350 350 349 348 345 343 343 343
348 354 355 356 358 357 355 354 353 352 353 354 354 354 354 355 355 353 352 353 350 349 351 351 348 346 347 346 347 348 347 348 348 347 348 348 348 349 349 348 349 350 349 349 349 349 349 349 350 351 352 354 353 353 352 351 351 350 351 350 349 348 348
348 352 354 355 357 358 357 355 353 352 354 355 355 354 355 355 352 351 349 347 347 348 351 351 348 346 347 347 347 348 347 348 347 349 349 349 349 349 349 349 350 350 350 349 350 351 351 350 350 352 354 357 358 357 355 355 355 354 353 353 354 353 352
346 351 354 354 356 357 358 358 355 352 354 357 356 356 355 353 348 347 346 345 347 349 349 348 346 346 347 347 347 348 348 349 348 348 348 349 349 350 350 349 349 350 351 350 351 351 352 352 354 355 356 358 360 359 359 360 360 359 357 356 355 355 354
345 350 353 354 355 356 357 360 360 357 356 358 357 356 354 352 348 346 347 347 347 347 348 347 346 347 348 347 348 348 348 349 349 348 348 349 349 349 350 350 350 351 352 353 354 355 355 355 357 359 359 359 360 360 361 361 361 361 360 359 358 357 357
345 351 352 354 356 356 356 359 360 361 360 359 359 359 356 352 349 348 348 348 348 347 348 348 347 347 348 348 348 349 349 350 350 350 349 349 350 350 350 350 351 351 352 353 355 357 358 359 360 361 360 360 361 362 362 362 362 361 362 361 360 359 359
343 348 351 353 355 357 357 357 358 360 361 360 360 360 358 354 353 351 349 349 349 349 349 349 348 348 348 348 348 349 349 350 352 353 351 350 350 351 350 350 351 351 351 352 353 355 357 359 361 362 361 361 362 363 363 363 363 362 363 362 362 361 360
341 347 350 351 353 355 356 357 357 358 359 360 359 358 358 358 358 357 352 349 349 350 349 348 349 349 349 349 350 350 351 351 351 354 354 352 351 352 352 351 351 352 351 352 353 354 356 358 361 362 362 362 363 364 364 365 364 363 364 364 363 362 361
338 344 348 349 351 353 354 356 357 356 357 358 358 357 358 359 361 361 357 351 348 349 349 349 349 349 349 349 350 351 352 351 352 354 357 356 353 351 352 353 353 354 354 352 353 353 355 357 359 361 362 363 363 364 365 365 365 364 364 364 363 363 362
334 342 347 348 349 351 352 354 356 356 357 357 357 358 359 359 360 361 358 353 350 350 349 349 349 350 350 351 352 353 352 352 352 353 357 360 359 356 353 353 354 355 355 355 355 356 356 357 358 360 362 364 364 365 365 366 366 365 364 363 364 363 362
331 337 344 347 348 349 349 351 353 354 356 358 357 358 358 357 357 356 355 353 353 351 350 350 350 350 350 350 351 352 350 351 353 353 354 359 362 362 359 354 354 356 356 357 357 358 359 358 359 360 361 363 364 365 365 365 365 365 364 364 363 362 362
328 333 340 344 346 347 347 349 350 350 352 355 357 358 359 358 358 358 357 357 356 353 351 350 349 352 355 355 356 355 351 350 353 353 352 357 362 363 363 361 358 357 358 358 359 359 360 360 360 360 361 361 362 363 364 365 365 364 364 363 363 362 362

ECMWFFLT1_850_thetae_087.txt.gz
Theta_e
349 351 353 354 357 359 359 360 361 360 361 362 361 360 359 359 359 359 361 359 351 344 340 339 338 337 337 337 337 337 336 336 336 333 334 333 335 343 345 342 337 335 338 343 345 348 348 347 349 355 354 347 345 345 344 344 343 344 344 341 343 344 344
348 349 352 354 355 358 360 360 361 361 361 362 362 361 359 359 360 360 362 359 352 345 341 339 340 339 339 340 339 339 339 339 339 336 335 334 333 339 345 345 342 337 336 345 351 352 352 349 342 347 353 350 345 345 344 345 344 343 345 344 343 341 340
348 349 351 352 353 355 359 361 360 361 360 362 363 362 361 360 361 361 361 360 355 348 344 340 341 341 342 343 343 343 344 343 343 340 339 338 335 337 344 345 344 341 338 342 351 353 353 351 342 339 347 348 347 347 344 344 345 344 344 344 344 344 339
347 348 349 350 351 354 358 360 360 360 361 361 362 362 361 361 361 362 362 361 356 351 346 342 341 342 343 345 346 346 346 345 346 344 343 343 339 337 343 344 340 344 346 346 349 352 353 352 345 339 342 344 345 347 345 344 345 345 344 343 343 346 341
342 345 348 349 350 353 357 360 361 361 360 360 361 362 362 362 362 362 363 362 359 352 347 344 342 342 342 344 346 345 346 346 345 343 342 343 342 338 339 342 340 341 349 351 351 353 353 350 345 341 341 342 341 343 344 343 345 345 344 343 343 346 347
338 340 344 348 349 352 356 359 360 361 360 360 361 362 363 362 362 363 363 364 363 358 352 347 344 342 342 343 345 346 347 346 343 342 341 340 341 339 336 340 343 342 348 354 353 354 353 346 342 343 342 341 342 343 345 345 345 346 344 343 343 345 350
335 337 340 344 348 350 353 356 359 361 359 358 360 362 362 362 362 363 363 364 364 362 358 351 346 344 343 344 346 347 346 345 344 342 343 341 338 339 338 338 342 343 347 353 353 355 354 345 341 343 341 342 344 346 349 349 346 347 345 342 343 343 346
335 335 337 341 345 349 351 352 355 359 360 359 360 361 362 362 362 362 363 364 364 363 361 357 351 347 343 344 345 347 346 346 346 344 345 344 341 341 343 341 340 341 345 352 353 354 354 347 342 342 342 344 346 345 349 350 346 343 345 343 342 342 343
334 335 338 341 342 346 348 351 354 357 359 358 359 360 361 361 362 362 363 364 364 364 363 360 357 351 346 345 345 347 347 346 347 345 345 347 345 344 347 347 344 341 343 349 353 353 352 350 346 343 340 343 346 342 344 347 345 341 341 342 342 341 344
334 335 338 341 342 343 346 348 351 357 359 359 358 360 361 361 361 362 363 363 364 364 363 362 361 358 350 346 346 346 348 347 347 347 346 348 349 348 350 352 350 345 341 346 353 353 351 350 350 347 340 339 341 339 338 341 341 339 339 339 341 341 342
336 337 339 341 341 342 342 344 351 355 358 360 358 359 361 361 362 363 362 363 363 364 364 362 362 361 355 348 348 349 348 348 348 349 347 349 353 353 352 354 354 350 344 344 351 356 353 348 350 350 343 337 338 339 337 338 338 338 338 339 340 341 341
336 340 341 342 343 343 342 345 352 357 359 360 359 359 361 361 362 362 361 362 363 362 364 362 361 362 359 355 353 351 349 348 348 349 348 349 354 356 355 355 356 355 352 347 349 355 355 350 346 347 343 337 337 338 337 337 337 337 337 339 342 343 341
337 341 344 345 346 345 346 350 355 359 359 360 360 359 360 361 361 361 361 361 363 363 363 362 361 363 362 360 358 354 350 348 346 348 352 352 353 357 356 355 355 356 355 353 350 352 356 354 347 342 339 337 338 338 338 337 337 338 336 338 343 345 343
335 338 341 343 344 345 347 352 357 360 360 361 361 358 359 361 360 360 361 361 362 363 363 362 361 363 363 363 361 356 349 347 345 347 353 356 354 355 358 356 354 354 357 357 354 352 354 355 352 345 339 338 337 337 338 338 337 338 337 335 338 342 342
337 335 336 339 344 346 347 351 356 361 361 361 359 358 358 360 360 360 360 361 361 361 362 362 361 363 365 363 361 357 350 346 346 345 350 355 356 355 357 358 355 354 357 358 357 355 353 354 356 352 345 341 338 338 340 340 337 336 337 336 335 337 339
341 340 339 341 344 347 349 351 355 359 361 362 360 359 358 358 360 360 360 361 361 360 360 362 362 362 365 364 362 360 355 350 347 346 347 352 356 356 356 358 358 355 356 358 358 356 354 352 354 356 353 348 343 339 339 342 339 336 335 335 334 334 337
341 342 345 343 345 347 348 350 353 357 361 362 359 359 358 358 359 360 360 360 360 360 360 361 362 363 364 365 365 363 359 353 348 345 346 350 354 354 354 357 359 356 356 359 359 358 356 354 354 356 357 355 352 346 342 342 341 338 336 335 335 334 335
337 340 344 346 347 349 350 350 351 354 359 361 360 359 357 357 359 359 359 359 359 359 359 361 362 363 364 365 367 365 361 356 350 346 344 346 350 350 350 354 358 358 358 359 360 359 357 356 356 355 357 358 359 356 352 345 340 339 336 335 335 334 335
342 344 347 349 350 351 350 347 346 350 355 359 361 360 357 356 358 360 359 359 359 359 359 360 363 363 363 366 366 365 362 358 354 348 343 344 347 348 348 350 356 360 360 360 362 361 358 357 357 357 357 358 359 361 359 354 348 342 338 335 335 335 334
349 349 350 352 352 353 353 352 352 356 359 358 357 359 360 357 357 359 359 358 359 359 358 360 362 363 364 365 366 364 361 359 357 350 345 344 344 346 347 347 350 357 361 362 362 361 358 356 357 357 356 357 358 360 361 361 357 351 343 338 336 336 336
344 346 346 349 352 354 356 359 361 362 363 361 356 356 360 359 357 358 359 358 359 360 359 359 361 363 364 366 366 363 360 359 359 353 347 345 343 344 345 345 346 352 358 361 363 361 355 352 356 357 355 355 357 359 361 362 361 358 352 343 337 337 337
340 341 342 345 349 352 356 360 362 363 365 365 362 358 357 359 358 357 358 358 358 359 360 360 360 363 365 366 366 363 359 358 359 355 349 344 344 343 344 345 344 347 352 358 362 362 357 350 352 356 355 352 353 357 361 361 360 358 355 346 340 339 339
336 337 340 343 346 350 355 359 362 364 364 364 362 358 354 357 359 357 358 358 358 359 360 359 360 363 365 365 365 364 360 358 357 354 349 346 344 343 343 344 345 345 348 354 359 362 360 354 352 354 355 354 352 353 357 359 359 357 352 346 342 340 339
334 336 340 344 346 349 354 359 362 364 362 359 357 355 353 356 358 358 358 358 358 359 359 359 361 363 364 364 364 363 360 357 355 352 350 347 345 344 343 343 345 345 346 348 353 359 362 360 356 355 355 355 354 351 351 355 358 354 349 345 342 340 338
333 338 344 347 347 349 355 359 361 362 360 356 355 353 351 354 357 359 359 358 358 359 360 359 361 363 363 363 364 364 361 358 357 353 350 348 345 345 344 343 343 345 345 346 349 354 359 361 361 360 358 357 357 355 351 351 354 353 351 347 343 339 339
333 340 346 348 348 351 356 359 359 360 358 354 354 352 351 353 358 359 359 359 358 359 360 359 359 363 365 364 365 365 363 360 357 354 350 348 346 347 348 345 344 345 345 345 348 352 357 360 361 362 361 359 359 358 355 352 353 352 351 348 343 340 340
335 341 346 348 350 353 356 359 359 360 359 356 354 353 352 354 357 358 358 359 358 358 359 359 359 365 367 366 365 366 366 364 359 354 351 348 347 349 350 347 346 345 344 346 350 353 356 358 359 362 362 360 360 359 359 357 354 350 347 344 343 341 341
336 343 346 350 351 353 356 358 358 360 360 357 354 354 355 355 356 357 358 358 357 358 359 360 362 366 366 364 364 366 367 366 360 354 353 353 350 350 351 349 348 349 347 348 352 353 354 355 357 360 361 360 360 360 360 360 357 353 348 344 344 343 343
333 338 345 349 351 353 356 359 358 359 359 357 354 355 356 355 355 357 358 358 357 358 360 362 364 366 365 362 362 365 367 365 360 354 356 358 353 350 351 350 350 352 351 351 353 355 354 354 355 360 362 361 361 360 361 362 361 359 353 349 348 347 346
331 336 343 348 350 353 357 359 359 359 358 356 356 356 355 355 356 357 358 358 358 359 362 364 365 366 364 361 362 364 365 365 360 354 358 360 354 350 351 350 350 352 353 353 353 355 356 355 354 357 361 362 361 361 361 362 363 362 359 355 353 350 350
330 335 340 345 349 352 357 359 360 360 358 357 356 356 355 356 358 359 359 360 360 360 363 366 367 367 365 362 362 362 363 364 360 356 358 358 353 350 351 350 350 351 352 353 352 354 357 358 357 357 359 362 362 362 361 362 363 362 361 360 357 354 353
329 334 339 344 348 352 357 359 361 361 361 358 357 358 358 358 359 360 362 363 363 362 364 367 369 368 366 364 363 362 362 364 362 358 357 356 353 350 349 349 350 351 352 352 352 353 355 358 360 361 362 362 363 363 363 363 363 362 362 361 360 358 358
328 332 337 341 344 349 356 359 360 360 361 360 360 359 359 359 361 362 364 365 364 363 365 368 369 368 365 364 363 362 362 364 364 362 360 358 357 355 352 351 351 351 352 353 353 355 356 357 361 364 363 362 362 362 362 363 363 362 362 361 361 361 360
326 330 335 339 342 348 355 358 360 360 361 362 362 361 361 362 362 363 364 365 364 364 367 369 368 366 365 365 364 363 363 364 364 363 363 362 361 361 359 357 357 355 354 353 354 356 359 361 362 363 363 362 362 362 363 364 363 363 363 362 361 361 361
325 327 331 336 340 345 352 357 359 360 361 362 362 362 361 362 362 363 364 365 364 365 367 368 368 366 366 367 366 365 365 365 364 364 365 365 365 365 364 363 362 362 361 358 355 355 359 362 363 362 362 362 363 362 364 364 364 364 364 363 363 362 362
324 326 329 334 338 343 349 354 357 360 360 360 361 362 362 363 363 364 364 364 364 365 367 368 367 367 367 368 367 365 365 365 364 364 366 366 366 366 365 363 363 365 365 364 360 356 358 361 363 363 363 362 362 363 364 364 364 364 364 364 364 363 363
322 325 327 331 335 341 346 351 355 358 359 360 361 362 363 364 364 365 364 364 364 365 366 366 366 367 367 366 366 365 364 365 364 364 365 367 366 366 366 363 361 363 365 365 363 359 357 358 361 362 362 361 362 363 364 364 365 365 365 365 364 364 364
321 325 326 328 332 339 344 347 351 354 355 357 360 361 362 363 364 364 364 365 364 364 366 366 365 365 366 365 365 364 364 364 365 365 365 366 366 367 366 363 359 360 362 363 364 362 359 357 358 360 362 362 362 363 364 364 365 365 366 366 365 365 365

ECMWFFLT1_850_thetae_093.txt.gz
Theta_e
351 350 350 351 353 353 355 353 352 352 350 351 350 350 352 352 352 352 351 352 351 350 348 347 344 340 335 329 325 326 329 330 329 326 325 325 327 326 326 328 329 330 329 328 329 328 329 337 341 342 344 344 342 344 343 341 343 345 345 350 352 348 345
350 350 349 350 352 352 354 354 353 353 352 351 351 351 352 352 353 353 353 353 352 352 350 348 346 342 336 330 327 325 325 329 329 328 326 325 325 325 326 327 328 329 330 328 329 330 329 330 334 337 342 344 343 342 342 340 340 342 342 346 351 347 345
350 350 349 350 353 353 354 355 354 354 353 353 352 352 353 353 354 354 354 354 354 353 353 350 348 345 339 334 329 325 324 325 327 328 327 326 326 326 326 326 326 327 329 328 329 331 331 330 331 333 338 343 343 341 342 341 341 341 340 342 346 345 344
350 350 349 349 352 354 354 355 354 354 354 354 354 354 354 354 355 355 354 355 356 355 355 353 351 348 344 339 333 328 325 324 325 326 327 327 326 326 326 326 325 326 327 327 328 330 332 332 332 332 334 338 342 342 342 341 341 341 341 340 341 341 341
351 350 350 350 352 353 355 354 354 355 354 355 354 354 354 355 355 355 356 356 356 356 356 355 353 351 348 343 337 331 327 324 323 325 325 326 326 326 326 327 326 326 326 326 328 331 332 332 333 334 333 334 338 341 342 342 340 340 340 341 340 339 339
349 350 350 352 352 353 354 354 354 355 354 354 354 354 355 355 355 356 355 356 356 356 357 357 355 353 351 347 341 335 330 326 324 324 324 324 325 326 326 326 326 326 326 326 328 331 332 333 334 335 336 334 336 340 342 342 341 339 339 340 340 340 339
350 351 352 353 354 354 354 354 354 353 353 354 354 355 356 356 356 356 357 356 356 357 358 358 357 355 353 350 346 341 335 330 326 324 324 324 325 325 325 325 326 326 326 326 328 332 333 333 333 335 337 336 335 337 341 342 341 340 339 338 339 340 340
350 352 353 354 354 354 353 353 352 351 353 353 353 356 357 357 357 357 357 357 357 357 358 358 358 357 355 352 349 345 340 335 331 328 325 324 324 325 325 325 326 325 326 327 330 333 334 334 333 334 337 339 338 336 338 341 341 341 340 338 338 339 340
350 352 352 352 352 353 352 351 350 352 353 354 354 356 356 358 358 357 358 358 357 358 358 358 359 358 357 355 352 349 345 341 337 332 329 326 325 325 326 325 326 326 328 329 331 333 335 334 334 333 335 338 339 337 338 339 340 341 340 340 339 339 339
349 349 350 351 351 353 353 351 351 352 353 354 356 357 357 358 358 358 358 358 358 358 359 359 359 359 358 357 355 352 350 346 342 337 333 330 328 327 327 327 328 328 330 332 333 334 335 336 335 334 335 336 337 337 338 338 338 339 339 339 339 339 339
348 350 351 351 351 353 353 353 354 354 354 355 356 357 358 358 359 359 359 359 359 360 360 360 361 360 360 359 358 357 353 350 347 343 339 336 333 331 331 331 332 332 333 334 335 335 337 337 337 337 336 336 335 336 337 338 337 338 338 338 338 339 339
348 349 350 350 351 351 352 352 353 354 355 356 356 357 357 359 360 361 360 360 359 360 361 362 362 362 362 360 360 358 357 354 351 347 343 340 337 336 335 335 336 336 336 336 336 338 339 339 339 338 338 336 335 335 336 337 337 337 337 337 338 339 339
350 349 350 351 352 352 353 352 352 353 355 356 356 356 356 358 359 360 360 360 360 360 362 363 364 363 363 362 361 360 358 356 353 350 346 342 339 339 339 339 339 339 338 338 340 341 341 340 339 338 337 337 336 335 335 336 337 337 337 337 338 337 338
349 350 352 355 354 352 352 351 351 352 354 356 356 356 356 357 358 358 358 360 360 361 362 363 364 364 364 364 363 361 360 358 355 352 349 345 342 340 341 341 342 342 342 343 344 344 343 340 338 339 338 337 338 336 335 335 336 336 336 337 337 336 337
346 346 348 352 355 355 354 354 354 353 354 354 355 355 355 355 355 357 359 360 362 361 362 364 364 364 365 364 364 363 361 359 357 355 351 348 345 343 343 343 345 346 346 346 346 345 344 342 340 339 338 338 338 338 337 336 336 336 335 335 336 335 335
342 342 343 345 349 350 351 354 358 358 357 358 357 356 355 355 357 359 361 362 362 362 363 364 364 365 365 365 364 364 363 361 359 356 354 351 348 345 345 346 348 349 348 347 345 344 346 346 345 342 340 339 339 339 339 337 335 336 336 336 335 334 334
340 340 339 339 341 344 344 347 353 358 358 359 358 358 357 357 359 361 362 363 362 362 363 363 365 365 365 365 365 364 364 362 360 358 356 354 351 349 348 349 350 350 350 348 346 345 345 348 349 348 344 342 340 339 339 337 336 335 335 336 336 335 334
338 338 338 337 338 340 339 339 344 352 356 357 358 359 359 359 361 363 362 361 362 362 363 363 365 366 365 366 365 365 365 364 362 360 357 355 353 351 350 350 351 352 351 350 349 348 347 348 351 351 348 346 344 340 339 336 334 334 335 335 335 335 335
335 336 336 337 338 339 339 338 339 342 348 354 356 357 359 359 359 360 359 358 359 361 363 364 365 365 366 366 366 365 365 364 363 361 358 356 354 353 352 352 352 352 352 352 352 352 350 349 351 352 352 350 348 344 341 338 334 334 334 335 335 335 335
333 334 335 336 337 338 339 341 342 340 342 350 355 358 360 358 357 356 355 355 358 359 361 363 364 365 366 366 366 366 365 365 364 362 360 358 356 354 353 353 353 353 353 354 355 355 354 352 351 353 354 353 351 349 345 341 337 335 335 334 335 335 335
332 333 334 335 337 339 340 341 343 341 340 345 352 358 359 359 359 358 355 354 357 358 360 362 363 364 366 366 366 366 365 365 364 363 362 359 357 356 355 354 354 354 354 355 356 356 355 354 352 352 353 354 354 352 350 346 341 339 338 337 336 336 337
331 332 333 334 337 338 340 341 342 343 342 342 347 353 356 358 359 358 357 353 353 357 360 362 362 363 365 366 366 366 365 364 364 364 362 360 358 357 356 355 355 355 355 356 356 356 357 356 354 353 353 353 354 354 352 350 346 344 343 343 342 342 342
330 332 333 335 336 338 339 342 344 345 343 342 344 349 354 357 357 358 358 355 353 357 359 360 361 363 363 364 365 365 365 364 364 363 362 362 360 357 357 356 355 356 356 356 357 357 357 357 356 354 353 353 354 354 353 352 349 348 347 346 348 349 349
328 331 334 335 336 337 339 341 344 346 345 344 344 345 347 351 353 355 356 355 354 358 359 359 360 361 362 363 364 365 365 364 364 363 363 362 361 359 358 357 356 356 356 356 357 357 357 356 356 356 354 352 353 353 355 354 352 350 350 350 352 353 353
326 330 332 334 335 337 338 340 341 343 343 344 345 345 345 347 352 357 358 356 356 358 359 359 358 359 361 361 362 365 365 364 364 363 363 363 362 361 359 358 357 356 355 356 357 356 357 356 356 356 355 354 353 352 354 355 355 354 353 355 355 355 356
324 327 330 333 335 336 338 340 340 341 341 340 341 343 344 347 353 359 359 358 359 360 359 358 357 358 359 360 361 363 365 365 364 363 363 364 362 361 361 359 359 358 357 356 356 356 357 356 356 356 356 355 354 352 353 354 355 356 356 355 356 357 358
322 325 329 331 334 336 338 339 340 341 341 341 341 342 344 347 352 356 358 359 360 360 359 358 357 357 358 358 360 362 363 365 364 364 364 364 363 363 362 361 360 359 358 356 356 356 357 357 357 357 356 356 356 355 354 353 353 354 354 355 356 357 358
320 324 328 330 333 335 337 338 340 340 341 341 342 343 344 346 348 351 355 359 360 359 359 359 357 358 358 359 360 360 363 365 365 365 364 364 364 363 362 362 361 360 359 358 356 356 357 357 357 357 357 357 357 356 356 355 354 352 352 351 352 354 357
319 322 326 329 331 334 336 338 340 341 341 341 342 343 345 348 348 346 350 356 358 359 359 359 359 357 356 359 360 359 361 364 365 366 365 365 364 363 364 364 362 361 360 359 358 357 356 357 358 358 359 359 358 358 357 356 356 355 354 352 352 351 353
319 321 323 326 329 332 335 337 339 340 341 341 343 344 346 349 351 350 349 351 356 360 360 360 360 357 355 358 360 358 360 362 365 365 366 366 365 365 365 365 364 362 361 360 359 357 356 357 358 359 360 360 360 359 359 357 358 356 354 353 352 351 351
320 320 321 323 326 330 333 335 338 339 340 342 343 346 348 350 353 355 355 353 355 360 361 360 360 356 354 357 359 359 359 361 363 365 366 366 366 365 365 366 365 364 363 361 360 359 357 356 356 358 360 361 360 360 359 358 357 356 355 354 353 352 352
321 320 320 321 324 328 331 333 336 338 340 341 343 346 350 353 356 359 358 357 358 360 359 360 360 356 354 359 360 359 360 361 364 365 366 366 367 366 366 366 366 365 364 363 362 360 358 357 356 357 359 360 360 359 357 357 357 356 356 355 355 354 354
321 321 320 320 322 326 329 331 334 335 337 340 342 346 350 354 357 359 360 360 361 361 359 359 360 356 356 360 361 360 360 362 363 365 367 367 367 367 367 366 366 366 365 365 363 361 359 358 356 356 357 358 360 359 357 356 356 356 356 355 356 356 357
321 321 320 320 322 326 329 329 331 332 334 337 341 344 349 353 357 359 361 362 362 361 359 359 358 356 358 361 361 361 361 361 363 364 366 367 367 367 367 368 366 366 366 366 364 363 361 359 357 356 355 355 357 358 358 357 357 355 353 353 353 354 356
320 322 322 320 321 326 329 328 328 330 332 334 337 341 345 351 356 359 361 362 363 364 363 360 356 357 361 362 362 361 361 361 363 364 365 367 367 368 367 367 366 366 366 366 365 364 362 360 358 355 353 352 353 354 356 357 355 351 349 348 348 349 351
321 323 323 320 321 325 328 328 327 329 330 332 334 336 340 345 352 358 361 362 363 367 368 365 358 358 362 364 363 361 361 362 363 364 365 366 367 367 367 367 367 367 367 367 367 366 364 362 358 354 351 350 348 348 348 347 346 344 345 346 345 345 345
321 324 323 321 321 323 325 326 326 328 329 331 332 333 336 343 350 355 359 362 363 365 368 368 365 363 364 364 363 362 362 363 363 364 366 366 366 367 368 368 368 369 368 368 368 367 366 363 361 356 353 350 348 345 344 343 341 342 343 344 345 345 347
322 323 323 321 320 320 322 323 325 325 325 327 331 333 337 342 347 350 355 360 362 364 366 368 369 367 365 364 364 363 363 363 364 364 365 366 367 367 368 368 369 369 370 369 368 367 366 364 363 360 356 353 349 346 345 345 346 346 346 346 347 348 349

ECMWFFLT1_850_thetae_096.txt.gz
Theta_e
351 353 352 351 351 350 350 350 349 349 349 349 348 348 348 347 347 346 345 345 345 343 344 342 343 342 339 336 333 331 330 329 330 331 332 335 334 332 335 339 339 339 341 342 340 338 338 340 342 342 343 343 341 340 339 339 342 343 346 347 346 345 342
350 351 352 352 351 350 350 350 349 350 349 349 349 348 348 347 347 347 346 346 346 344 344 343 343 343 341 338 334 330 330 329 329 331 331 332 333 331 330 332 334 335 336 337 336 334 333 336 340 344 344 343 342 341 340 339 338 339 342 346 347 344 343
351 351 352 351 352 351 351 350 349 350 349 349 350 348 349 349 348 348 347 347 347 345 345 345 344 343 342 340 336 332 330 329 329 330 329 329 330 330 330 329 329 330 331 331 330 330 329 330 335 340 342 344 343 341 341 340 339 338 337 341 346 345 342
350 351 351 351 352 351 351 351 349 350 350 349 350 349 350 349 348 349 348 348 348 347 346 346 345 344 343 343 339 334 331 330 330 329 328 327 328 328 329 329 329 328 328 328 327 327 328 328 330 334 336 340 343 342 341 340 339 338 337 338 342 344 342
350 351 351 350 352 351 352 351 350 351 350 349 350 349 349 350 349 349 349 349 348 348 348 348 347 346 345 344 342 337 331 330 330 330 328 328 327 327 327 328 329 327 326 326 326 326 328 329 329 330 330 334 340 342 342 341 340 340 340 338 339 341 342
350 349 350 351 350 352 352 351 351 350 350 350 350 349 349 350 349 350 350 349 349 349 349 348 348 348 347 346 345 341 334 331 331 331 330 329 328 326 326 326 327 326 326 326 326 327 327 328 329 330 329 330 336 342 343 341 340 339 340 340 338 339 340
349 349 350 350 350 351 352 352 352 351 350 350 350 350 350 350 350 350 350 350 350 349 349 349 349 349 349 348 347 345 340 333 330 330 331 330 330 328 326 326 325 325 326 326 326 326 326 327 328 329 330 329 333 338 341 342 341 340 340 339 338 338 338
349 349 349 349 350 351 352 352 353 351 351 351 350 350 350 350 350 350 351 350 350 351 350 350 350 349 350 350 349 348 345 339 333 331 331 330 330 329 328 327 326 325 325 325 326 326 325 325 327 328 330 330 331 334 337 340 342 341 339 338 337 338 338
348 349 349 349 350 350 351 353 353 353 353 352 350 350 350 351 351 351 351 351 351 352 351 351 351 351 351 351 351 350 349 345 339 334 333 332 331 330 328 327 327 326 326 326 326 326 326 326 326 328 330 330 331 332 334 337 340 342 341 338 337 337 337
350 348 349 350 349 350 351 351 353 353 353 353 352 351 351 351 352 351 351 352 352 352 352 352 353 352 353 353 352 352 351 349 346 340 336 334 332 329 328 327 326 326 326 326 326 325 326 325 325 328 330 330 331 332 333 335 338 341 342 340 338 337 336
349 348 349 349 349 350 352 352 353 353 353 354 353 353 353 352 352 352 352 353 353 353 353 354 354 354 354 354 353 353 353 351 350 346 342 337 333 331 328 327 326 326 325 326 326 326 326 325 325 327 331 331 331 331 333 334 336 339 341 341 340 338 336
350 350 350 350 350 350 351 353 353 353 353 354 354 354 354 353 353 354 354 354 354 354 355 355 355 355 355 355 355 355 354 353 353 351 347 342 338 333 330 329 327 326 325 325 325 325 325 325 326 326 330 332 331 331 332 333 335 337 339 340 340 340 339
348 350 351 351 351 351 352 353 354 354 354 354 354 354 353 354 354 354 355 355 355 355 355 356 356 356 356 356 356 356 355 355 354 353 351 348 344 339 334 331 329 327 326 325 325 325 325 325 325 326 329 331 331 332 332 333 334 335 337 339 339 340 339
343 345 347 349 351 352 353 353 353 354 355 355 355 354 354 355 355 354 355 356 356 356 356 356 357 357 357 357 357 357 356 356 355 355 354 351 349 345 340 336 333 330 328 326 326 325 325 325 326 327 329 332 332 332 333 333 334 334 336 337 338 339 338
338 339 341 344 346 348 351 352 353 353 354 355 355 355 355 355 355 356 356 355 356 357 357 357 358 358 358 358 358 358 357 357 356 356 355 354 352 349 346 342 338 335 332 330 329 327 327 327 327 329 331 332 333 333 334 335 334 334 335 336 337 337 337
336 336 338 340 341 342 343 347 352 353 354 355 355 354 355 356 356 357 357 357 358 358 358 359 359 358 359 358 358 358 358 358 357 357 357 356 355 353 350 347 343 340 337 334 332 330 330 330 331 332 333 333 334 335 336 336 335 334 333 334 335 337 336
333 334 335 336 338 339 340 342 347 352 354 355 356 356 355 356 357 357 358 358 358 358 359 359 359 359 359 359 359 359 359 359 359 359 359 358 357 356 354 351 347 345 341 339 336 335 334 335 335 336 335 335 334 335 336 336 335 334 333 333 334 335 335
331 331 332 333 335 338 340 340 342 348 351 352 354 356 356 356 357 357 358 359 359 359 359 359 359 360 360 360 360 360 360 361 361 360 360 359 358 357 356 354 351 348 345 343 342 339 338 338 338 338 337 337 337 337 336 336 335 335 335 333 333 334 334
330 330 331 334 335 337 341 341 339 342 348 351 351 353 356 357 357 358 358 359 359 359 360 360 360 361 361 361 361 361 362 362 362 362 362 361 360 358 357 356 353 350 348 347 345 343 342 341 340 340 340 340 339 338 336 336 335 336 336 335 334 334 334
328 329 331 334 335 336 339 341 338 338 343 347 348 350 354 355 357 357 357 359 359 358 359 359 359 360 362 363 363 363 363 363 363 363 363 362 361 360 358 356 355 353 350 348 347 347 345 344 342 343 343 343 341 338 336 336 336 337 337 336 336 335 334
327 329 331 332 334 335 336 338 338 338 342 344 344 347 352 355 356 356 356 357 358 359 359 360 360 361 362 363 364 364 363 363 363 364 363 364 363 362 360 358 356 355 352 350 349 348 347 345 345 346 346 345 342 339 337 337 337 336 338 338 337 337 338
326 329 330 330 333 334 336 337 338 338 340 342 342 345 350 354 356 356 355 356 358 358 359 360 360 361 361 361 363 364 365 364 364 364 364 364 364 363 362 360 358 356 354 352 350 350 349 348 348 348 347 346 344 341 340 338 337 338 338 339 339 340 341
323 327 329 330 331 332 334 336 337 337 337 338 340 343 345 347 352 356 357 357 359 359 359 358 358 358 358 358 360 362 365 365 365 364 364 365 364 364 363 362 360 357 356 354 352 352 352 351 351 350 349 347 345 344 342 340 338 338 338 339 340 342 343
321 324 326 328 329 330 332 334 336 337 336 335 336 339 341 343 346 350 352 353 356 360 359 359 359 359 358 357 357 359 362 364 365 365 365 365 364 364 364 363 361 359 357 355 354 353 353 353 353 352 351 349 347 346 345 342 341 339 338 338 341 344 346
320 321 324 326 328 329 331 332 334 335 335 335 335 335 338 339 339 340 343 347 352 357 358 358 359 361 361 360 359 358 358 361 364 365 365 365 365 365 365 363 363 362 358 357 355 354 354 354 354 353 353 351 350 349 348 347 344 342 339 339 342 346 349
320 320 322 324 326 328 330 331 332 333 333 335 336 337 338 339 337 337 340 344 348 352 355 356 357 359 360 361 361 360 359 360 364 365 365 364 364 365 365 364 363 363 361 358 356 355 355 355 355 355 354 353 353 352 352 351 349 346 344 342 343 347 350
320 320 320 322 324 326 329 330 331 333 334 334 335 336 338 339 339 338 338 338 339 344 349 353 355 356 358 360 361 362 361 362 363 365 364 363 364 365 364 364 364 363 362 360 358 356 356 356 356 356 355 355 355 355 354 353 352 350 347 345 345 346 351
320 320 319 321 323 324 327 330 331 332 334 334 335 336 337 339 340 341 339 337 335 335 338 343 349 352 355 358 359 361 362 362 363 365 364 363 364 364 364 364 364 364 362 361 359 358 356 356 356 356 356 356 356 357 356 355 354 352 350 348 346 347 350
320 319 319 320 321 323 326 329 331 332 333 334 335 336 337 338 340 342 343 343 339 336 333 334 339 345 351 355 357 359 361 362 362 364 365 365 364 364 365 364 364 363 363 362 361 359 357 357 357 357 357 357 357 357 357 356 356 354 352 351 349 348 349
320 319 318 319 321 323 325 328 329 330 332 333 334 335 336 337 339 341 343 344 344 341 338 335 336 340 346 352 356 358 360 361 362 362 364 365 364 364 364 365 364 363 363 362 361 360 359 358 357 357 357 357 357 357 357 357 357 356 354 352 351 350 350
320 319 318 319 320 322 324 326 328 329 330 332 334 335 336 337 339 341 342 344 345 345 344 344 344 344 345 348 353 357 360 360 361 362 363 364 365 364 364 364 364 364 363 363 362 361 360 359 359 358 357 357 357 357 357 357 357 356 355 354 352 352 351
320 320 319 318 320 322 323 324 326 327 329 331 333 335 336 337 339 340 342 343 345 347 348 349 351 351 350 350 353 357 360 360 361 361 362 363 365 364 363 363 364 364 364 363 363 362 361 360 359 358 358 357 357 357 357 357 357 356 356 355 354 353 352
319 320 319 318 320 321 322 322 323 325 327 329 331 334 335 337 338 339 341 343 344 345 348 350 353 354 354 354 355 357 359 360 359 361 362 363 365 365 365 364 364 364 364 364 363 363 362 361 360 359 358 358 357 357 357 357 357 356 356 355 354 353 353
320 320 319 319 320 321 321 321 322 323 325 327 329 331 334 336 338 339 341 342 344 345 346 348 352 355 357 358 360 359 359 359 359 360 361 363 365 366 365 365 365 364 364 364 364 363 362 362 361 360 359 358 357 357 358 358 358 357 356 354 353 353 352
320 320 320 319 320 321 321 320 321 322 323 325 327 328 331 334 336 338 340 342 343 345 345 346 350 355 358 361 362 362 360 359 361 361 361 362 364 365 365 365 364 364 363 363 364 364 363 362 362 361 360 359 358 357 357 357 357 356 355 354 351 349 349
319 320 320 320 321 321 321 320 321 321 322 324 325 326 328 332 335 337 339 340 342 344 345 346 349 354 358 361 363 364 362 362 364 363 362 362 363 364 366 366 365 364 363 363 363 363 362 363 362 362 361 361 359 358 357 356 355 355 355 356 353 349 347
320 319 320 320 321 321 320 319 320 321 322 323 324 325 326 330 334 336 337 338 340 342 345 347 349 352 356 359 362 365 365 365 366 365 362 362 363 364 366 367 366 366 366 365 364 364 363 364 364 363 363 362 361 360 358 356 356 356 356 356 354 351 348
319 320 320 321 321 321 320 318 318 320 321 322 324 324 326 329 333 335 337 338 339 341 343 346 348 350 353 357 361 364 365 367 367 366 363 362 364 365 366 367 367 367 366 366 366 366 365 365 364 363 363 363 362 362 361 359 357 356 356 355 355 353 349

ECMWFFLT1_850_thetae_102.txt.gz
Theta_e
349 349 348 347 347 346 346 346 346 347 347 347 348 347 347 347 347 346 346 345 345 345 345 345 344 342 339 338 339 340 341 339 336 334 334 335 334 335 337 340 342 342 341 339 338 338 338 337 338 340 341 340 340 341 341 343 345 345 345 345 345 344 343
350 349 349 348 347 347 347 346 346 346 346 347 347 347 347 347 347 346 346 345 345 345 345 345 345 344 341 338 337 339 340 341 338 335 333 333 334 334 335 337 339 340 340 340 340 340 340 339 338 339 340 341 340 340 340 341 343 345 345 346 346 345 344
350 350 350 349 349 348 347 347 346 346 346 346 346 347 347 347 346 346 346 346 345 345 345 345 345 345 343 340 337 337 339 340 340 338 334 332 332 332 333 335 336 337 338 339 340 342 342 342 340 340 340 340 340 340 340 341 342 344 345 346 347 346 345
346 349 350 350 349 349 348 347 347 347 346 346 346 346 346 347 346 346 346 346 345 345 345 346 345 345 345 342 339 337 337 337 338 338 336 333 331 330 331 333 333 334 334 336 338 341 342 343 343 342 341 341 341 341 341 341 342 343 344 345 346 347 346
342 345 349 351 349 349 349 348 348 347 347 346 346 346 346 346 346 346 346 346 346 345 345 346 346 345 345 344 342 340 338 337 336 336 337 336 333 330 329 330 331 331 331 332 335 338 341 342 342 343 343 341 341 342 342 342 341 341 342 343 344 345 346
338 343 347 349 350 350 349 349 349 348 348 347 346 346 346 346 346 346 346 346 345 345 345 346 346 345 346 345 344 342 340 339 338 336 337 336 335 332 328 327 329 330 330 330 331 334 338 340 341 342 342 341 340 340 341 343 343 342 341 342 342 342 343
335 339 344 347 349 351 350 349 349 348 348 348 347 347 346 346 346 346 346 345 345 345 345 346 346 346 346 345 345 344 342 342 340 339 338 337 336 334 331 328 328 328 329 329 329 331 334 338 340 341 340 340 339 337 337 339 341 342 342 342 341 341 340
334 336 341 345 347 349 350 350 349 348 349 348 347 347 346 346 346 345 346 346 345 346 345 346 346 346 346 346 345 344 344 344 343 341 340 338 336 335 333 331 328 327 328 329 329 329 330 332 335 336 336 336 335 334 333 332 334 337 338 340 341 340 339
335 335 338 343 346 348 349 350 350 349 349 348 347 347 346 346 347 346 346 346 346 346 346 346 346 346 346 346 345 345 344 345 345 343 342 341 339 336 334 332 330 329 328 328 328 328 328 328 328 330 330 330 330 330 330 329 330 331 332 334 337 340 340
335 336 337 340 343 347 348 349 350 349 349 348 347 347 347 346 346 346 347 346 346 347 346 346 346 346 346 346 346 345 345 345 345 345 344 343 342 340 337 334 331 329 329 328 328 328 327 327 326 327 327 327 327 327 327 327 328 329 330 330 332 337 340
332 335 337 338 340 343 346 348 349 348 348 348 348 348 347 346 346 346 346 346 346 346 347 347 346 346 346 346 346 345 345 345 346 346 345 345 345 344 342 340 335 331 329 328 328 327 327 327 327 327 326 326 326 326 325 326 326 327 329 329 330 332 335
329 331 334 336 337 339 342 344 346 348 348 347 347 348 347 347 347 347 346 346 347 347 346 347 346 346 346 346 346 345 345 346 346 346 346 345 346 345 345 344 342 337 332 329 328 328 327 327 326 326 326 326 326 325 325 325 325 326 326 327 328 330 331
326 328 330 333 336 338 339 341 343 345 347 347 348 347 347 348 347 347 347 346 346 346 346 346 346 346 346 346 346 346 346 347 347 347 347 346 346 346 346 346 346 343 339 334 330 328 327 327 327 326 326 326 325 325 325 325 325 325 325 325 326 327 329
325 326 327 328 332 334 336 339 341 343 345 346 348 347 347 347 347 347 348 347 347 347 346 347 346 346 347 346 346 347 347 347 347 347 347 347 347 347 347 347 347 347 346 342 336 330 328 328 328 327 326 326 326 325 325 326 325 325 326 325 325 325 326
324 325 325 325 327 329 331 334 337 341 343 344 347 348 348 347 347 347 348 347 347 347 347 347 347 346 347 347 347 347 347 347 347 347 347 347 347 347 348 348 348 348 348 347 344 337 332 329 328 328 327 327 327 326 326 326 325 325 325 325 325 325 325
322 323 324 325 325 326 327 330 332 336 340 343 345 347 348 349 348 348 348 348 348 348 348 348 347 347 347 347 348 348 347 347 347 347 347 347 348 348 348 348 349 350 349 349 349 346 342 336 331 328 327 326 326 326 326 326 325 325 325 325 325 325 325
321 321 322 324 324 324 325 326 328 331 334 339 342 345 347 349 349 349 349 349 348 348 348 348 348 348 348 347 348 348 348 348 348 347 348 348 348 348 348 349 349 350 351 351 351 350 349 346 341 335 331 327 326 325 325 324 324 324 325 325 325 325 325
321 321 322 323 323 324 323 324 326 329 330 332 336 341 344 346 349 351 350 350 349 349 349 349 348 349 348 348 349 348 348 348 348 348 348 348 349 348 349 350 350 350 351 352 352 352 351 351 349 345 340 335 331 328 326 325 324 324 324 324 324 324 324
320 320 321 322 322 323 324 323 323 327 330 329 330 335 338 341 346 349 351 351 351 350 350 350 349 349 349 349 349 349 349 349 349 349 349 349 349 349 349 350 351 351 352 352 353 353 353 353 352 351 349 345 341 335 331 328 326 325 324 324 324 324 324
321 320 320 321 322 322 324 324 323 324 329 330 328 329 333 337 341 346 349 351 352 352 351 351 351 350 350 350 350 349 350 350 349 350 350 350 350 350 351 351 351 352 353 353 354 354 354 354 354 353 353 351 349 344 338 333 329 328 328 327 326 326 327
321 321 320 320 321 321 323 325 324 323 326 330 330 327 329 333 336 342 347 350 353 353 352 352 352 352 351 351 351 351 351 351 351 351 351 352 352 352 352 353 353 354 354 354 355 355 355 355 355 355 355 354 354 352 347 339 333 332 332 331 331 331 332
320 321 320 319 319 320 321 324 325 324 324 329 331 329 327 328 331 336 342 346 350 353 354 354 354 354 353 353 352 353 352 352 353 353 353 353 353 354 354 354 355 355 356 356 356 356 356 357 357 356 356 356 356 355 352 345 338 336 335 334 335 335 335
320 320 320 320 319 319 319 321 324 324 324 327 330 331 330 329 329 332 336 341 345 349 352 355 356 355 355 355 355 354 354 354 353 354 354 355 355 355 355 356 356 357 357 357 357 357 358 358 358 358 358 358 357 357 353 347 341 340 337 336 337 338 337
320 319 319 320 319 319 319 319 321 322 323 325 327 329 331 332 332 331 332 335 340 342 345 350 355 357 356 356 357 356 356 356 356 356 356 356 356 356 356 357 357 357 358 358 358 358 359 360 360 360 360 359 359 358 355 349 343 341 340 338 339 339 339
320 319 319 319 319 319 319 319 319 321 323 325 325 326 329 331 333 333 332 332 334 336 339 343 348 354 357 357 358 358 358 358 358 358 358 357 357 357 358 358 358 359 359 359 359 360 360 360 360 361 361 361 360 360 358 354 347 342 341 341 340 340 340
320 319 319 319 319 319 319 319 319 320 322 324 324 326 328 329 331 333 334 333 332 331 334 338 341 347 353 358 358 358 359 359 359 360 360 360 360 359 359 359 360 360 360 360 360 361 361 361 361 361 362 362 361 361 361 358 353 347 342 342 342 342 342
319 319 319 319 319 319 319 319 318 319 321 323 324 325 328 329 330 331 333 335 333 331 333 337 339 342 348 355 357 358 359 359 359 360 360 361 361 360 359 359 359 360 361 361 361 361 361 362 362 362 362 363 362 362 362 361 359 355 350 346 344 344 344
319 319 319 318 319 319 319 319 319 318 320 322 324 325 326 328 330 331 332 334 334 333 334 337 339 340 342 346 351 356 359 358 358 359 359 359 359 358 358 358 357 358 360 360 361 361 361 361 362 362 362 362 363 363 363 362 362 360 358 354 350 347 345
318 319 318 318 318 318 319 319 319 318 319 321 323 324 325 326 328 330 332 333 334 335 335 337 338 339 339 340 344 349 355 356 357 358 358 359 359 358 358 358 357 358 359 360 360 360 360 361 361 361 362 362 362 363 363 363 363 361 361 359 356 353 349
316 318 318 318 318 318 318 319 319 318 318 319 321 323 324 326 327 329 331 332 333 334 336 337 338 337 337 338 339 342 346 350 353 355 356 358 359 359 360 360 359 359 359 359 360 360 360 361 361 362 362 361 362 363 363 363 363 362 362 361 360 358 354
313 316 318 318 318 318 318 318 318 318 318 318 319 321 323 325 325 327 329 331 332 333 335 336 336 335 335 334 335 338 340 341 345 349 352 355 357 359 359 359 360 360 360 359 360 360 360 361 361 362 362 361 362 362 363 363 363 362 362 362 361 361 359
311 313 316 318 318 318 318 318 318 318 318 318 318 320 321 323 324 325 327 329 330 331 333 334 334 334 334 332 331 334 337 338 339 343 347 351 354 357 358 357 358 359 360 360 360 360 360 361 361 362 362 361 362 361 362 363 363 363 363 362 362 361 361
311 312 315 317 318 318 318 319 318 318 318 318 318 319 320 321 322 324 325 325 326 327 330 333 334 334 334 332 329 331 335 338 339 340 345 350 353 354 356 357 357 358 359 359 359 359 360 361 361 362 361 361 361 361 360 361 361 362 363 362 362 362 361
312 311 313 317 318 318 319 319 318 318 317 317 318 318 319 319 320 322 323 324 323 324 326 330 332 334 334 333 329 328 331 336 341 343 348 353 355 354 354 356 357 357 357 357 357 358 358 359 360 360 359 358 357 358 359 359 359 360 361 362 361 361 360
313 311 313 316 318 318 318 319 319 318 317 317 317 318 318 318 319 320 322 323 323 323 324 327 330 332 333 333 332 329 329 333 339 343 347 353 356 356 356 355 356 357 357 356 356 357 357 358 358 356 355 355 355 355 356 356 357 358 359 359 360 360 359
314 312 312 315 318 318 318 318 319 318 317 317 317 318 318 318 318 319 321 322 323 323 323 325 328 331 332 333 334 333 331 332 337 340 344 349 354 358 359 358 357 356 356 355 356 357 358 359 358 357 356 356 356 355 355 355 355 357 359 359 360 360 360
315 313 312 315 317 318 318 318 318 318 317 317 318 318 318 318 317 318 320 321 322 323 323 324 327 331 333 334 334 334 333 334 336 338 341 345 350 355 359 360 359 359 359 358 357 358 359 359 359 359 359 358 358 358 357 358 358 359 360 360 360 361 360
315 314 313 315 317 318 318 318 318 318 317 317 317 318 318 318 317 317 319 321 322 322 323 323 326 330 334 334 334 334 335 335 336 337 340 342 345 350 356 360 360 360 360 360 360 359 359 359 358 359 359 359 360 360 359 359 360 361 361 361 361 361 361

ECMWFFLT1_850_thetae_105.txt.gz
Theta_e
349 349 349 349 348 349 349 349 349 349 348 348 348 347 347 347 347 347 347 346 347 346 346 345 344 344 343 342 339 336 333 331 330 330 331 332 333 333 334 337 341 344 347 346 343 341 341 340 340 340 340 341 341 342 343 343 344 344 345 345 344 344 343
344 346 347 348 348 348 348 348 348 348 348 348 348 348 347 348 347 347 347 347 347 347 346 346 345 344 344 343 341 337 335 333 332 331 330 330 331 332 333 333 336 340 344 346 344 343 343 342 340 339 339 340 341 341 341 341 342 343 344 344 344 344 343
339 341 344 346 348 348 347 347 347 347 348 348 348 348 348 348 348 348 348 347 347 347 347 346 346 345 344 344 343 340 337 336 336 334 331 330 330 331 332 332 333 336 339 344 344 343 343 343 342 340 338 339 341 341 341 341 341 341 343 343 344 344 345
337 339 341 344 348 349 348 347 346 347 347 347 348 348 348 348 348 348 348 347 347 347 347 346 346 345 345 344 344 343 340 337 337 336 334 332 330 330 330 331 332 333 336 339 342 343 343 343 344 342 340 339 340 341 341 341 341 341 341 342 343 345 346
337 338 340 343 346 348 349 348 347 346 346 346 347 347 347 348 348 348 347 348 347 347 347 346 346 346 345 345 345 344 342 339 336 337 337 335 333 331 329 329 330 330 332 335 338 340 342 343 344 344 342 342 342 342 342 342 342 341 341 341 342 344 346
336 337 338 341 344 346 349 349 348 347 346 346 346 346 347 347 347 347 347 347 347 347 347 347 346 346 345 345 345 345 345 342 338 336 337 337 336 334 330 328 328 328 329 331 333 336 338 340 342 343 343 343 343 343 343 343 343 342 342 342 342 342 343
335 336 336 339 342 344 347 349 349 348 347 347 346 346 346 346 346 347 347 347 347 347 347 347 347 346 345 345 345 345 345 345 342 339 337 337 337 336 333 330 328 327 327 328 330 331 333 336 340 342 342 343 343 343 343 343 344 344 344 343 342 342 342
333 334 335 337 340 343 345 348 349 349 348 348 347 347 346 346 346 346 346 347 346 347 347 347 346 346 346 345 345 345 345 345 345 343 339 338 336 336 335 333 331 328 327 326 327 329 330 332 336 339 341 342 342 342 342 341 341 342 342 342 342 342 342
331 332 334 336 339 341 344 346 348 348 348 348 348 347 347 346 346 346 345 346 346 346 346 346 346 346 346 346 345 345 345 345 345 345 343 340 339 337 336 336 334 331 329 327 327 327 328 329 331 335 338 341 341 341 340 338 337 336 335 336 336 337 338
329 330 332 335 338 340 342 344 346 347 347 347 348 347 347 346 346 346 345 345 346 346 346 346 346 346 346 346 345 345 345 345 346 345 345 343 341 341 339 337 336 334 332 330 328 327 327 328 329 331 334 338 340 339 337 334 333 331 330 330 330 331 332
328 327 328 331 335 338 340 342 344 345 345 345 346 347 347 347 346 346 345 345 346 345 346 346 345 346 346 345 345 345 345 346 346 346 345 345 344 343 342 341 339 336 334 332 331 329 327 327 327 328 330 333 334 333 331 330 330 329 328 328 328 329 329
327 326 326 327 329 332 335 338 341 343 344 344 345 346 346 347 347 346 345 346 346 346 346 346 345 345 345 345 345 345 345 346 346 346 346 345 345 344 344 343 342 340 337 335 333 331 329 328 327 327 327 328 328 328 327 327 327 327 327 327 327 327 328
326 326 325 325 326 328 331 333 336 339 342 343 344 345 345 346 346 346 346 345 345 345 346 346 346 345 345 345 345 345 346 346 346 346 346 346 346 345 345 345 344 343 342 340 338 335 332 329 328 327 327 326 326 326 326 326 326 326 326 326 326 326 326
325 325 324 324 325 326 327 329 332 335 338 340 342 344 345 345 346 346 346 346 345 345 345 346 346 346 346 345 345 345 346 346 346 346 346 346 346 345 345 345 345 345 344 344 343 341 337 333 329 327 327 327 326 326 326 326 326 326 326 325 325 325 325
324 324 324 325 325 324 324 326 328 330 332 335 338 342 344 345 346 346 345 345 346 345 345 345 346 346 347 346 346 346 346 346 346 346 346 346 346 346 346 346 346 346 346 345 345 344 343 340 336 332 329 327 327 326 326 326 326 326 325 325 325 325 325
324 323 324 324 324 324 324 323 325 326 328 330 333 336 340 343 345 347 347 346 345 345 346 346 345 346 346 346 347 346 346 346 346 346 346 346 346 346 346 346 346 346 346 346 346 346 346 345 344 340 335 330 328 327 327 326 326 326 325 325 325 325 325
323 323 322 322 322 323 324 323 323 324 325 327 329 331 334 337 342 345 347 347 347 345 346 346 346 346 345 346 347 347 346 346 346 346 346 346 346 347 346 347 347 347 347 347 347 347 347 347 347 347 344 339 333 328 327 327 326 326 326 325 325 325 326
323 323 322 321 320 321 323 324 324 324 324 325 327 328 329 332 336 342 346 348 348 347 346 346 345 346 345 346 346 346 346 347 346 346 346 346 347 347 347 347 347 347 347 347 347 347 348 348 349 349 349 347 342 335 329 326 325 326 325 325 325 325 325
323 323 322 321 319 319 321 322 324 325 325 325 325 327 327 329 331 335 341 346 349 349 348 347 346 346 346 345 345 346 347 346 347 347 347 347 347 347 347 347 347 347 347 348 348 347 348 349 349 350 351 351 349 344 336 329 324 324 324 324 324 325 325
323 323 322 321 319 319 319 320 321 323 325 325 324 325 326 327 328 330 336 342 347 349 350 349 348 348 347 347 346 346 346 347 347 347 347 347 347 347 347 347 348 348 347 348 348 348 348 349 350 351 351 352 352 351 347 339 329 325 324 324 323 324 324
323 323 322 321 320 319 319 319 319 321 323 324 324 324 324 326 328 329 331 336 342 347 350 351 351 350 349 349 348 347 347 347 348 348 348 348 348 348 348 348 348 348 348 348 348 349 349 350 350 351 352 353 353 353 353 349 340 333 330 326 325 325 325
323 323 322 321 320 319 319 319 319 319 322 324 324 324 324 325 327 328 329 331 335 340 346 349 351 352 351 351 350 350 350 348 348 348 348 348 348 348 348 349 349 349 349 349 349 349 350 351 351 352 353 354 354 354 355 354 351 346 341 335 332 332 333
320 322 322 322 321 320 319 319 319 319 320 322 323 323 323 325 325 325 327 329 331 333 338 343 348 351 352 352 352 351 352 352 350 349 349 349 349 349 349 350 350 350 350 350 350 350 351 352 353 354 355 355 355 356 356 355 354 353 349 346 344 344 342
318 319 320 321 321 321 319 319 319 319 319 320 322 322 323 325 326 325 326 328 330 330 332 336 341 346 349 352 353 352 352 353 353 352 351 350 350 350 350 351 351 351 352 352 352 352 353 354 354 355 356 356 356 357 357 357 357 356 354 353 352 352 350
315 317 318 319 320 321 320 319 319 319 318 319 321 323 324 325 325 325 326 328 331 332 331 331 334 338 343 348 352 353 353 353 354 355 354 352 351 351 352 352 352 353 353 353 354 354 355 355 356 356 357 357 357 358 358 359 359 358 358 357 356 355 354
312 313 316 318 319 319 319 318 319 319 318 319 320 321 324 325 324 324 324 326 329 331 332 332 332 333 336 341 347 351 354 354 354 356 356 354 353 353 353 353 354 354 355 356 356 356 357 357 357 358 358 358 359 359 359 360 360 360 360 359 358 357 355
311 311 312 315 317 319 318 318 318 319 318 318 319 320 322 323 323 323 323 324 326 328 331 332 333 333 333 336 341 346 352 354 355 356 357 357 356 355 355 355 355 356 357 357 357 358 359 359 359 359 359 359 360 360 360 360 361 361 361 361 360 359 357
310 311 311 312 314 316 318 318 318 318 318 318 318 319 320 321 322 323 324 323 322 325 328 331 333 333 333 334 337 341 346 351 354 356 357 358 357 357 357 356 357 357 357 358 359 359 360 360 360 360 360 360 360 360 360 361 361 361 362 362 362 361 360
310 310 311 311 311 313 316 318 318 318 318 318 318 318 318 319 320 322 324 323 321 322 326 328 330 333 333 332 333 336 340 345 349 353 357 358 358 358 359 358 359 359 359 359 360 360 359 360 360 360 360 359 359 359 359 360 361 362 362 362 362 362 361
311 310 310 310 310 310 313 316 318 318 318 318 318 318 318 318 319 320 322 323 322 321 323 326 328 331 332 331 330 331 334 338 342 346 351 353 355 357 359 360 361 361 361 360 361 361 360 359 360 360 360 359 359 359 359 360 360 361 361 362 362 362 362
312 311 311 311 311 310 310 313 316 318 318 318 318 318 318 318 318 319 320 321 323 322 322 324 327 330 332 332 330 328 329 332 336 340 343 345 348 353 358 360 360 362 361 361 362 362 361 359 360 361 361 360 360 360 360 360 360 360 361 361 362 362 362
313 312 312 311 311 311 310 312 315 317 317 317 318 318 318 317 317 318 318 319 321 323 323 323 324 328 331 333 332 330 328 327 329 333 339 342 344 348 354 356 358 360 361 361 362 363 361 360 360 361 361 361 361 361 360 361 361 360 360 361 361 362 362
313 314 313 312 312 312 311 311 314 316 317 317 318 318 319 318 317 317 318 318 319 321 323 323 323 325 328 331 332 332 330 327 326 328 333 339 342 345 348 352 355 359 361 361 362 363 363 362 362 362 362 362 361 361 361 361 361 359 360 361 361 362 362
313 314 314 313 312 313 312 312 313 316 317 317 318 318 318 318 318 317 318 318 318 319 322 323 323 323 324 328 331 332 332 330 329 328 330 335 340 343 346 349 352 356 359 360 361 362 363 363 363 363 362 361 361 361 361 360 358 356 357 359 359 360 360
312 312 313 313 312 313 313 312 313 315 317 317 318 318 318 318 318 317 317 318 318 318 319 322 324 323 324 326 329 331 332 333 333 332 331 331 335 340 344 348 351 354 356 358 359 361 361 362 363 363 362 362 361 361 359 357 355 353 353 355 356 357 358
311 312 312 312 312 312 313 313 312 314 317 318 317 318 318 318 318 318 317 317 318 318 318 320 322 324 325 327 329 330 331 333 334 334 333 331 331 335 340 344 348 351 354 354 355 358 360 361 362 362 362 363 363 361 358 356 355 355 355 356 357 357 358
311 311 312 312 313 313 314 315 314 313 316 318 318 318 318 318 318 318 317 317 318 318 318 319 321 322 324 326 328 329 331 333 334 335 335 334 333 334 336 339 343 348 352 352 351 353 356 358 359 359 360 361 361 360 358 356 356 358 358 358 358 359 359
311 312 312 313 313 314 315 316 315 314 315 318 318 318 318 318 318 318 318 317 318 318 318 318 319 321 322 324 326 329 330 332 333 334 335 335 335 335 336 337 339 343 348 350 351 352 352 353 353 354 355 356 356 357 357 356 357 358 359 360 360 360 360

ECMWFFLT1_850_thetae_108.txt.gz
Theta_e
348 349 350 352 353 352 351 353 353 352 352 351 350 350 349 349 348 347 345 345 345 345 344 345 344 344 344 344 343 339 334 331 332 335 339 339 337 336 335 337 342 346 350 351 349 346 343 344 345 344 343 342 341 343 344 344 343 343 343 343 343 344 344
345 346 347 349 351 352 351 352 354 353 353 352 351 351 350 350 348 347 346 345 345 346 345 345 345 345 345 344 344 342 339 335 332 332 335 337 336 335 333 335 338 341 345 350 350 347 343 342 342 343 342 342 342 342 343 344 343 343 343 342 344 345 344
344 344 346 346 348 350 352 353 354 354 353 353 352 352 351 351 349 347 347 346 346 346 346 346 346 345 345 345 344 344 343 340 336 332 331 333 333 333 333 333 335 338 340 344 347 346 345 343 341 342 342 342 344 343 342 344 344 343 343 342 343 345 345
343 343 344 345 346 348 351 353 353 353 354 353 353 353 352 350 349 348 347 347 347 346 346 346 346 346 346 345 345 344 344 343 339 334 331 331 331 331 332 332 333 337 339 339 342 346 346 344 342 342 341 341 343 343 342 343 343 343 343 343 343 344 345
343 343 343 344 346 347 350 352 353 353 353 353 353 352 352 350 349 349 348 348 347 348 347 347 347 347 346 346 345 345 345 344 342 336 332 331 331 330 331 332 332 334 336 336 338 341 342 342 343 343 341 340 341 342 342 342 343 343 342 343 343 344 345
341 342 343 343 344 346 348 350 352 353 352 351 351 352 353 351 350 350 350 349 349 348 348 347 347 347 347 346 346 345 345 345 344 340 335 333 333 331 329 330 331 333 335 336 336 337 338 339 342 344 343 343 343 344 345 344 343 345 343 342 343 344 348
337 339 342 343 343 344 346 348 351 352 351 351 350 351 352 352 352 351 351 351 351 350 349 348 348 347 347 347 346 346 345 345 345 343 339 335 334 333 331 330 329 331 334 334 333 334 335 335 338 341 343 346 348 349 350 347 343 345 345 343 343 343 344
335 336 339 341 342 343 344 347 349 351 351 351 351 352 352 351 351 352 351 351 352 351 351 350 349 348 347 347 347 346 345 345 345 345 343 339 336 334 333 332 329 328 330 331 330 330 331 332 335 336 338 345 347 348 350 348 344 345 347 345 345 344 344
333 334 336 338 340 341 342 344 347 348 349 349 350 351 351 351 350 350 351 351 351 351 352 352 351 349 347 347 347 346 346 346 345 345 345 343 339 336 336 336 332 328 328 329 330 329 328 329 332 332 333 340 343 342 344 346 343 344 347 346 345 344 346
332 333 334 335 336 338 340 343 345 346 347 348 348 349 351 351 350 350 350 350 350 351 351 351 352 352 349 347 347 347 346 346 346 345 345 345 344 340 340 341 339 333 329 329 332 333 329 327 328 330 329 334 339 339 340 343 342 343 344 343 343 342 342
331 331 332 332 333 335 338 340 342 343 344 345 346 347 349 350 350 350 350 350 350 350 350 351 351 352 351 347 346 347 347 346 346 345 345 345 346 345 344 344 344 341 335 331 334 337 335 329 326 328 328 329 333 336 338 340 340 341 341 340 338 335 334
331 331 331 331 331 331 333 336 338 340 342 343 344 345 346 348 349 350 350 350 350 349 350 350 350 351 351 349 348 347 346 346 346 346 346 345 346 347 347 347 347 346 341 334 334 338 340 335 328 326 328 328 329 331 335 339 339 338 337 337 338 335 333
329 330 330 331 330 329 330 332 334 336 338 341 343 344 345 347 348 349 349 349 349 349 349 350 350 350 351 351 351 348 346 346 346 346 346 345 345 347 348 348 348 348 346 340 336 337 341 341 334 328 326 327 327 328 331 336 338 337 333 332 336 336 333
328 328 329 329 330 329 329 330 330 331 333 336 340 342 344 345 347 347 348 348 349 349 349 349 350 351 350 351 351 349 347 347 346 346 345 346 345 345 347 348 348 347 347 345 341 338 340 343 341 335 329 328 328 327 328 330 333 335 331 327 329 331 329
327 327 327 328 328 329 329 329 329 329 329 330 334 338 341 344 345 346 346 347 347 349 350 350 349 350 351 351 350 348 347 347 347 346 345 345 346 345 346 346 347 347 346 345 344 343 342 342 343 342 338 331 328 328 328 328 329 328 328 326 326 327 328
327 327 327 327 327 328 328 328 328 328 329 328 328 331 336 340 343 345 346 348 348 348 348 350 350 351 351 351 351 349 347 346 346 346 346 346 345 346 346 345 346 347 346 345 345 345 345 344 343 344 344 338 331 328 328 328 328 326 326 326 325 325 327
327 327 326 327 327 327 327 327 327 327 328 329 329 328 330 334 339 342 344 347 348 348 348 349 351 352 351 351 352 352 350 348 346 345 346 346 346 346 346 346 346 346 346 345 345 345 345 346 345 344 346 345 339 333 329 328 327 327 326 326 326 326 326
327 327 326 326 327 326 327 327 327 326 326 328 329 330 329 330 333 338 342 345 347 348 348 349 350 351 353 352 352 352 352 350 348 347 345 345 346 346 346 345 345 345 346 345 346 346 345 346 346 345 346 347 347 343 337 331 327 327 327 326 326 326 326
327 327 326 326 326 326 326 327 327 327 327 327 327 328 330 330 330 333 337 341 344 346 347 348 349 350 352 353 352 351 349 348 348 349 349 346 345 345 346 345 345 346 346 346 345 346 346 346 346 347 346 346 347 348 346 341 333 327 325 326 327 326 326
326 326 327 326 326 325 326 326 327 327 327 326 325 326 328 330 330 331 332 335 338 342 345 347 348 349 350 351 353 353 351 349 348 348 348 348 346 346 345 346 346 346 346 346 347 346 346 347 347 346 347 347 347 347 348 348 344 336 328 325 325 326 326
323 324 325 326 326 326 325 325 326 326 326 326 325 325 326 328 330 330 331 332 334 336 340 343 346 349 350 350 351 353 353 353 351 349 347 347 347 347 347 346 347 347 347 348 349 349 347 347 347 347 347 347 348 348 348 349 349 346 340 333 329 327 326
321 322 322 323 324 325 326 325 324 325 326 326 326 325 325 327 329 330 331 332 333 333 334 336 340 345 349 350 351 352 353 353 354 353 351 349 349 349 350 350 348 347 347 348 351 353 352 349 347 348 348 348 348 348 349 350 351 351 350 346 342 339 336
319 319 320 321 321 323 325 324 323 324 325 326 326 324 324 325 327 329 330 331 332 332 332 332 334 338 344 348 350 352 353 353 353 353 354 354 353 353 354 354 353 351 349 348 349 353 354 352 350 348 348 349 348 349 349 350 351 352 353 352 351 350 348
318 318 318 319 319 321 322 322 323 323 324 326 325 323 321 323 324 326 329 329 330 331 332 332 332 334 336 341 345 349 351 353 352 353 354 355 356 356 356 356 357 356 354 351 351 352 353 354 354 352 351 350 350 350 350 351 352 352 353 354 354 354 353
317 317 318 317 317 319 319 320 322 323 323 324 324 323 323 322 321 323 326 327 327 329 330 331 332 333 333 335 338 343 347 349 351 353 353 354 356 358 357 355 356 357 357 356 355 354 354 355 356 355 355 354 353 352 352 352 353 354 354 354 355 355 354
317 317 317 317 317 317 316 318 320 322 323 323 323 323 324 323 320 320 323 324 323 325 328 329 330 331 332 333 334 337 340 343 347 350 352 353 355 357 357 356 356 356 357 357 357 356 356 356 356 356 357 357 356 355 355 355 355 355 355 356 355 356 356
317 317 317 317 317 315 315 317 319 319 321 322 322 323 324 323 319 319 321 322 322 323 325 327 328 329 331 332 332 332 334 336 339 343 347 350 353 355 356 356 356 356 356 356 357 358 357 357 357 357 357 358 358 358 357 357 357 357 357 357 357 358 358
317 317 317 318 317 316 316 317 317 317 319 321 322 323 323 321 319 317 319 321 322 322 322 324 327 328 328 329 329 330 330 331 332 335 340 344 348 350 353 355 357 356 355 355 356 357 357 357 358 358 359 359 359 360 359 359 358 358 358 359 359 359 359
317 317 318 318 318 318 318 316 316 317 318 320 321 322 321 320 318 316 317 319 319 319 320 322 324 326 327 327 328 329 329 329 330 331 332 336 340 343 346 349 353 355 356 356 356 356 355 355 357 358 359 359 360 360 361 361 360 360 360 360 360 360 360
317 317 317 318 318 318 319 318 316 315 315 317 319 320 321 321 319 316 316 317 317 317 319 320 322 324 326 327 328 328 326 326 328 330 330 330 331 334 337 341 346 352 356 357 357 356 354 354 354 356 357 359 360 360 361 362 362 361 360 359 360 361 361
316 316 316 317 317 318 319 319 317 314 312 313 317 320 322 323 321 318 316 316 316 316 317 319 320 321 323 325 326 327 325 324 324 327 330 329 328 329 334 339 344 349 354 356 357 357 356 355 355 354 355 358 359 359 359 360 363 363 361 360 359 360 361
315 315 315 316 317 317 317 318 318 317 315 313 315 320 323 324 324 322 319 316 315 315 316 317 318 320 321 323 324 325 326 327 325 323 327 330 329 329 334 340 344 347 351 355 357 357 357 358 357 356 355 355 356 358 358 359 360 361 361 361 361 360 361
314 314 315 315 316 316 317 317 318 318 318 316 315 318 322 324 325 324 322 320 318 316 315 316 317 318 319 321 323 324 326 329 329 324 321 327 331 330 331 336 341 345 349 353 355 355 356 358 358 358 356 354 351 353 356 357 359 360 361 362 362 361 360
313 313 314 314 314 315 316 316 317 317 318 318 316 316 318 321 323 324 324 323 322 318 316 315 316 317 318 319 321 323 324 328 330 328 322 322 329 332 331 330 334 341 345 349 353 354 355 356 357 357 356 353 350 351 354 357 358 359 360 362 363 362 360
313 313 313 313 314 314 315 315 316 316 317 318 318 318 317 319 322 323 323 323 323 321 318 315 315 316 317 318 319 321 323 326 329 330 329 324 324 331 334 331 330 334 338 342 347 350 352 353 355 356 356 355 352 350 353 356 359 358 358 360 362 363 362
312 312 312 313 313 314 314 315 316 316 317 318 318 319 319 319 320 321 323 323 322 322 320 317 315 315 317 318 318 319 322 323 325 328 330 328 324 325 331 333 332 331 332 335 339 343 346 348 350 352 354 356 356 354 354 357 359 359 357 358 360 362 363
311 312 312 313 313 314 314 315 315 316 317 317 318 318 319 319 319 320 322 322 322 322 321 320 317 316 316 317 318 318 320 321 323 326 328 329 328 324 325 330 333 332 332 333 334 337 340 341 342 345 347 350 352 352 354 357 359 360 359 359 360 360 362
312 312 313 313 314 314 314 315 315 316 316 317 317 318 319 320 319 320 321 322 321 321 321 321 320 318 316 316 317 318 318 319 322 325 326 327 328 327 324 324 328 331 332 332 332 333 334 335 337 341 343 344 344 343 345 351 356 358 359 359 360 361 362

ECMWFFLT1_850_thetae_111.txt.gz
Theta_e
353 353 352 353 353 352 352 352 353 354 354 353 353 352 351 351 351 350 354 357 350 343 342 340 340 342 340 338 335 331 330 333 337 340 344 349 350 350 351 351 352 353 354 353 352 352 352 352 354 354 350 345 345 345 343 343 343 344 344 344 346 346 345
352 352 352 352 352 352 352 352 352 354 354 353 353 353 352 352 352 351 355 356 350 344 343 341 341 344 344 343 341 338 333 331 332 335 341 348 349 349 351 351 350 351 353 353 353 353 351 349 349 352 350 346 346 346 343 344 344 344 345 344 344 346 345
350 351 352 351 352 354 353 352 353 353 352 352 352 353 353 352 352 352 355 357 350 344 344 343 342 343 344 344 344 343 340 335 332 331 338 347 348 348 350 351 350 350 351 352 352 353 351 348 344 344 345 347 349 347 343 344 345 343 344 343 344 347 344
348 350 349 349 351 353 353 353 353 353 353 353 352 353 353 353 353 354 355 356 350 345 344 344 343 343 344 344 344 344 343 341 337 333 337 346 349 349 350 350 350 349 350 351 351 352 352 350 346 341 341 344 347 348 346 347 347 344 342 343 344 345 345
346 348 348 348 349 350 353 353 353 353 353 353 353 353 354 353 354 354 355 356 354 350 347 345 344 344 343 344 344 345 344 343 342 338 339 344 349 349 349 349 349 348 349 350 350 351 351 351 349 343 339 339 342 347 347 346 347 345 342 343 344 346 349
344 346 346 347 347 348 352 353 353 354 352 352 352 352 353 353 353 354 354 356 357 357 354 352 351 348 344 343 345 346 345 344 345 342 340 341 345 348 349 348 348 348 348 348 349 350 349 350 350 348 345 343 344 349 350 348 349 350 347 344 345 348 353
342 344 345 346 346 347 349 352 354 354 353 352 351 351 352 352 352 353 353 355 356 357 357 355 356 354 349 345 346 348 346 344 345 344 342 341 341 344 348 349 348 348 348 348 348 350 349 348 349 350 350 350 349 351 352 352 352 353 352 347 344 345 350
339 341 342 344 345 346 347 350 351 353 354 353 351 352 352 351 352 352 352 354 354 354 355 355 355 356 355 350 347 349 347 345 346 344 344 346 343 341 345 348 347 346 347 348 349 349 350 350 348 349 350 351 351 350 351 354 353 352 353 351 346 344 349
338 339 339 341 343 345 346 346 348 350 352 352 353 354 353 351 352 352 351 352 353 352 353 354 354 355 357 355 350 348 347 348 350 347 345 349 348 345 345 346 346 344 343 345 348 348 348 349 349 349 348 348 349 348 347 351 351 349 352 354 351 346 349
337 337 337 338 339 342 344 345 346 347 349 350 352 353 353 352 351 352 352 350 351 352 352 353 353 354 356 357 354 350 347 347 351 351 350 350 350 348 347 347 347 346 341 340 344 347 347 347 348 350 348 344 345 342 340 343 345 345 347 351 352 348 347
336 336 337 337 337 338 340 343 344 344 345 347 348 349 351 352 351 352 352 351 350 351 351 351 352 352 356 358 358 356 353 349 350 353 353 352 350 348 347 346 345 347 346 343 342 344 346 346 346 349 349 344 338 336 335 337 339 341 345 349 351 349 348
335 335 335 336 336 336 336 339 342 343 343 343 345 347 349 350 350 351 352 353 352 351 351 352 352 352 354 356 357 358 357 355 353 353 353 352 350 348 346 346 344 345 347 347 345 343 344 346 346 345 344 340 334 333 333 333 335 338 341 347 350 349 348
334 334 334 334 335 334 335 336 338 341 342 342 344 346 347 348 348 349 350 351 351 351 352 352 352 353 353 354 355 356 356 357 357 355 353 353 352 349 346 346 345 343 344 347 347 345 342 344 347 344 339 334 331 335 335 331 332 335 337 342 349 350 349
332 333 332 333 333 333 334 334 334 336 338 340 342 345 346 347 347 348 349 350 350 350 350 350 350 352 353 353 354 354 355 357 358 357 356 354 353 352 349 347 346 345 344 344 346 347 344 342 345 347 343 337 330 332 339 337 331 331 334 337 344 348 349
331 331 332 332 332 332 332 333 334 334 333 335 338 342 344 346 346 347 348 348 349 348 349 350 350 350 352 352 352 354 356 357 358 358 358 356 355 354 352 350 348 347 345 345 345 346 346 343 343 345 348 346 338 332 337 342 339 331 330 334 338 340 345
331 331 331 331 331 332 332 332 333 333 332 332 333 337 340 343 345 346 346 347 348 348 349 351 351 350 350 351 352 354 357 357 358 358 358 358 357 356 356 353 352 350 347 347 347 346 346 345 344 344 346 349 348 341 337 341 344 339 331 330 333 334 337
331 330 330 331 331 331 332 332 332 332 332 331 330 332 335 338 341 343 345 347 348 348 348 350 351 351 350 351 352 353 356 358 358 358 358 358 357 357 357 355 354 353 351 349 349 348 348 348 347 345 344 346 350 349 346 342 342 341 334 329 330 331 333
331 331 331 330 330 331 331 331 331 332 332 331 330 330 332 334 336 338 340 344 347 348 348 348 350 350 351 352 351 352 353 355 358 359 358 358 357 357 356 355 355 355 354 353 353 352 351 351 351 349 347 345 345 349 351 348 344 340 335 329 327 328 330
329 330 330 330 330 330 330 330 330 331 332 331 330 330 330 331 333 334 336 338 341 343 345 347 349 349 350 350 351 352 352 352 356 358 358 357 357 357 357 356 355 354 354 354 355 355 355 354 353 353 352 349 347 346 348 350 349 345 337 330 326 326 327
327 328 328 328 329 330 330 329 329 330 331 331 330 330 330 331 331 333 335 336 337 337 337 340 344 347 349 350 350 351 353 354 355 355 356 357 358 358 358 358 357 357 356 356 355 356 357 355 354 354 353 351 350 349 348 349 351 350 345 338 331 327 325
326 326 326 326 327 329 329 328 328 328 330 330 330 329 330 330 330 332 335 336 337 337 335 335 337 340 345 347 348 348 350 353 354 354 355 356 357 357 357 357 358 358 357 357 356 356 357 357 356 355 353 351 350 350 351 350 350 351 351 349 342 336 331
323 323 324 324 324 325 327 327 327 327 328 329 330 329 329 329 328 330 333 335 336 337 337 336 334 335 338 342 347 348 348 349 352 354 356 356 356 356 356 356 357 358 357 357 356 356 355 356 357 357 356 354 352 351 352 352 351 351 351 352 351 348 344
322 321 322 322 321 323 324 324 324 326 327 328 329 328 328 328 327 328 331 333 333 335 336 335 334 334 334 337 341 346 347 348 350 352 354 356 356 356 356 356 356 356 357 357 357 355 353 354 355 356 357 357 356 355 355 353 353 353 352 351 351 351 350
321 321 321 321 321 322 323 321 321 323 325 327 327 327 327 328 327 326 329 330 330 333 334 333 331 332 333 334 335 338 342 343 345 348 350 353 354 355 355 355 355 355 355 355 356 354 353 353 352 353 355 357 357 357 356 355 355 355 354 352 351 350 349
320 320 320 320 321 322 322 321 321 322 323 324 326 326 326 328 327 326 326 326 327 331 332 328 326 327 330 332 333 334 336 336 337 339 342 345 348 351 353 354 355 355 355 355 355 353 353 353 352 350 352 354 355 356 356 356 356 357 356 354 352 351 350
319 320 319 319 320 321 320 320 321 322 321 321 323 324 325 327 327 327 325 321 323 330 329 324 322 324 326 328 331 332 334 335 333 332 334 336 339 342 347 351 353 354 355 355 355 354 354 354 355 354 352 352 352 353 353 354 355 356 357 357 355 353 351
319 320 319 320 320 320 320 321 322 321 321 321 322 323 325 327 327 328 326 322 323 327 326 321 319 321 323 325 327 328 333 336 335 332 331 332 333 334 337 342 347 352 354 354 355 355 355 354 355 355 354 353 353 352 352 352 352 353 355 356 357 357 356
319 320 320 320 320 320 320 321 321 321 322 322 321 322 324 325 326 327 327 326 326 326 322 318 318 319 320 322 324 326 330 333 335 335 334 333 332 331 331 332 336 344 350 351 353 355 355 355 355 354 353 354 354 353 353 353 352 351 350 350 353 356 357
320 320 320 319 319 320 321 321 321 322 322 322 322 322 322 323 325 326 327 328 328 326 322 318 316 317 317 319 322 323 325 328 332 336 338 337 334 331 330 329 328 333 341 347 349 351 354 355 355 355 355 355 355 355 354 354 353 354 352 350 350 351 353
319 319 319 319 319 320 320 320 321 321 322 322 323 323 323 323 324 326 327 328 328 327 325 321 319 318 318 318 318 320 324 328 329 331 336 339 335 332 332 331 329 329 335 341 343 346 350 352 354 356 356 356 356 355 354 353 353 354 355 354 354 353 351
318 318 318 319 319 319 319 319 320 320 321 321 322 323 324 324 324 326 327 328 328 327 326 326 325 323 320 319 318 319 323 327 327 330 335 337 335 334 335 334 333 331 333 339 343 346 348 349 352 355 356 356 356 356 354 354 354 354 354 355 355 355 354
317 317 317 317 318 318 318 318 319 319 320 320 321 322 323 324 324 325 326 327 328 328 327 327 326 324 322 322 321 320 322 326 328 330 333 333 334 336 337 337 337 335 332 334 340 345 350 351 351 354 356 357 357 356 355 355 354 355 355 355 355 354 354
315 316 316 316 316 317 317 317 318 318 319 319 320 321 321 322 323 324 324 325 326 327 327 327 326 325 324 324 324 322 323 326 328 327 327 330 334 336 337 338 339 337 335 332 333 338 346 350 352 354 355 356 357 357 357 357 356 356 356 355 354 352 352
314 315 315 315 315 316 316 316 317 317 318 318 319 320 320 321 323 324 324 324 325 326 326 326 326 325 325 324 324 324 325 327 328 326 325 328 330 331 334 337 338 338 336 333 331 331 335 342 349 352 354 355 356 356 356 356 357 357 356 354 353 353 353
313 313 314 314 314 315 315 316 316 317 317 318 318 319 320 321 321 322 323 324 324 325 325 325 325 325 325 324 325 327 327 327 327 325 323 322 323 325 329 333 335 336 335 332 330 330 330 333 339 342 345 349 353 354 355 355 355 356 355 354 354 355 355
313 313 313 313 314 315 315 316 316 317 317 318 318 319 319 320 321 322 322 323 324 324 324 324 324 324 324 324 326 327 327 326 325 324 323 321 321 321 323 326 329 332 332 330 329 330 330 330 331 332 334 339 344 349 352 353 353 353 354 354 356 357 357
312 313 313 314 314 315 315 315 316 316 316 317 318 318 319 320 320 321 322 322 323 323 323 323 323 323 323 324 325 325 325 324 325 325 325 325 323 321 320 322 324 326 328 329 329 329 329 329 329 330 332 333 335 338 341 343 344 345 346 349 352 355 357
313 313 314 314 315 315 315 315 315 316 316 317 317 318 319 319 320 321 321 322 322 323 323 323 323 322 322 322 323 323 323 323 324 325 325 325 325 323 321 320 321 323 325 327 328 329 328 327 328 328 329 332 334 334 335 335 336 337 338 340 343 346 349

ECMWFFLT1_850_thetae_114.txt.gz
Theta_e
353 354 355 353 354 353 351 350 350 351 351 351 350 350 349 349 348 349 355 354 346 338 334 332 328 325 327 330 333 334 334 336 338 341 348 351 351 351 347 345 350 354 352 349 348 352 353 351 352 350 347 347 348 346 344 346 347 346 347 347 348 348 344
354 355 355 355 356 356 354 352 352 351 351 351 352 351 350 350 349 349 352 355 351 344 340 337 331 326 325 325 327 329 331 334 335 337 342 345 347 349 349 346 347 352 354 354 352 352 353 353 353 352 347 345 347 347 345 345 345 345 346 345 345 347 346
352 352 353 354 356 357 355 353 352 351 350 351 351 351 351 351 350 350 352 354 354 350 345 341 335 329 326 326 326 327 328 330 332 334 338 341 343 347 350 347 346 349 352 354 353 350 350 351 352 353 350 345 344 345 346 345 343 343 346 345 344 345 345
351 350 351 354 356 355 353 352 351 352 352 351 351 351 352 351 350 351 352 354 356 355 350 344 338 333 331 332 331 330 330 329 330 330 335 341 344 346 350 350 348 349 351 352 352 351 350 348 346 348 348 345 344 345 345 345 345 343 346 347 344 344 345
349 349 350 353 355 353 352 352 352 353 353 352 352 352 352 353 352 352 352 354 357 358 355 351 347 340 336 337 337 337 335 333 333 330 331 342 348 348 350 351 350 350 350 350 351 352 353 350 344 340 341 342 345 346 344 344 346 344 344 347 346 345 347
347 348 349 350 352 353 353 352 352 352 352 353 354 354 354 354 355 353 352 354 357 358 358 357 356 350 345 342 341 343 342 338 337 335 330 338 349 351 350 351 351 349 349 350 351 351 353 352 348 342 338 338 342 346 345 342 344 345 344 345 346 344 346
345 346 347 347 350 351 352 353 353 353 353 355 355 353 353 354 355 355 354 355 356 356 356 357 357 354 352 350 346 347 348 343 340 340 336 337 346 351 351 350 350 350 349 350 350 351 351 352 351 348 341 338 340 346 350 345 342 344 344 345 346 345 346
342 344 345 347 349 349 351 353 355 355 354 356 356 353 353 354 355 355 355 356 355 355 356 356 355 353 354 355 352 351 352 349 344 342 341 341 345 349 351 350 349 349 349 350 349 350 351 349 350 349 344 343 345 347 352 351 346 344 345 345 345 345 345
342 342 342 345 347 348 349 351 354 355 354 355 355 353 353 354 354 354 354 354 354 355 356 355 355 353 353 355 355 353 354 354 351 346 342 344 348 349 349 350 349 348 348 349 349 349 350 349 349 348 345 346 350 350 350 352 351 348 347 346 344 343 345
340 340 341 343 345 346 347 347 348 351 353 355 355 354 354 354 354 354 353 352 353 354 355 355 354 353 352 354 357 356 355 356 356 353 348 348 349 349 348 348 349 348 347 348 349 348 349 349 350 350 345 343 349 350 348 349 352 350 348 348 347 345 345
338 338 339 341 342 342 343 343 343 345 348 352 353 353 354 355 355 356 355 353 352 351 352 353 353 353 352 354 356 356 355 355 355 355 354 353 351 349 348 347 348 349 348 348 348 348 349 349 349 351 349 343 343 345 342 342 348 349 347 347 347 345 344
337 337 337 338 339 339 340 341 341 341 343 347 349 350 351 353 354 355 354 353 352 351 350 351 351 352 352 353 354 355 355 356 355 353 353 354 353 350 348 347 346 347 349 348 346 346 348 348 348 349 351 348 344 341 336 334 339 342 343 344 345 345 344
337 337 335 336 337 338 338 338 338 339 340 342 345 346 348 350 351 352 352 352 351 351 350 350 351 351 351 352 353 355 356 357 355 353 351 352 352 350 348 347 346 346 348 349 347 345 345 347 348 348 349 350 349 345 339 333 331 334 337 340 345 348 348
336 336 335 335 336 336 337 337 336 337 337 339 342 344 346 348 349 350 351 351 351 350 350 350 350 351 351 351 352 354 356 356 355 354 353 351 351 350 348 347 346 345 346 348 348 347 344 343 346 348 347 348 349 349 347 341 334 332 333 334 340 347 349
334 335 335 335 335 335 336 336 335 335 335 336 339 342 343 344 345 345 347 349 350 349 350 349 349 350 350 350 350 351 353 355 354 354 353 352 353 353 349 347 346 344 344 345 346 348 346 342 342 346 347 347 347 348 349 349 343 335 331 331 332 338 345
333 333 334 334 334 334 335 335 335 334 334 334 336 338 340 341 342 343 345 347 348 348 349 349 350 350 349 349 350 350 351 352 353 353 353 354 355 355 353 351 348 345 343 344 345 346 347 344 342 342 345 347 347 346 347 349 349 342 333 329 329 329 336
332 333 333 333 333 333 333 334 334 334 334 333 334 335 336 338 340 341 343 344 345 346 348 349 351 351 350 352 352 350 349 351 352 353 353 354 354 355 354 352 352 350 347 345 344 344 345 346 345 343 343 345 347 348 348 346 348 346 338 333 330 328 329
332 332 332 332 333 332 332 332 333 334 333 333 333 334 334 335 338 339 340 340 341 343 345 347 349 349 350 352 352 350 349 350 350 352 353 354 355 355 353 351 352 353 352 350 349 347 345 344 345 345 344 344 345 348 350 349 348 347 343 337 333 331 329
330 331 331 332 331 331 331 331 332 332 333 332 332 333 333 333 335 338 339 339 339 340 341 343 345 346 347 349 351 351 350 351 351 352 352 353 353 354 354 352 350 351 352 352 351 350 348 347 347 346 345 345 344 345 347 349 350 349 347 344 339 336 334
328 328 329 330 330 330 329 329 330 331 332 332 331 332 332 332 333 335 337 337 339 339 338 337 339 341 342 344 346 348 349 350 351 352 352 352 352 353 354 353 351 349 348 349 350 349 349 350 350 349 349 348 347 346 345 346 348 349 349 348 346 344 342
327 326 326 327 328 328 327 326 328 329 330 331 330 330 331 331 331 333 335 335 336 338 337 335 334 335 336 338 341 343 345 347 348 349 350 351 353 353 353 353 353 351 349 348 349 349 350 352 352 352 352 352 351 350 349 347 347 349 349 349 349 349 348
325 325 324 325 325 326 326 324 325 326 328 330 330 329 330 331 331 331 332 332 333 336 336 333 329 330 333 335 337 339 340 341 343 345 346 348 350 352 352 352 353 353 351 351 352 353 352 353 353 353 354 355 355 354 352 351 349 349 349 350 350 351 350
323 323 323 324 324 325 325 322 322 325 325 327 328 327 328 330 330 330 329 329 330 334 334 330 324 325 328 330 333 335 337 338 338 339 343 345 347 349 350 350 351 352 352 352 353 354 354 352 352 353 353 354 354 354 354 353 352 350 350 350 351 351 352
322 322 322 322 323 324 323 321 322 324 324 324 325 324 326 329 330 330 328 325 326 332 332 325 320 321 323 324 327 330 335 339 337 334 335 339 343 345 347 348 350 351 351 353 354 354 354 353 353 353 352 352 353 354 354 354 353 352 351 351 351 352 352
322 321 321 322 323 322 322 322 323 324 323 324 324 322 324 328 330 331 330 326 326 330 329 322 318 319 319 320 322 325 331 337 337 334 332 332 335 339 342 346 349 350 350 351 353 354 354 355 355 354 353 352 352 352 353 354 354 353 352 351 351 351 352
321 321 321 321 321 320 321 322 323 323 323 324 324 323 324 327 327 327 328 327 329 331 330 325 321 318 317 318 319 322 328 331 332 334 336 335 331 331 334 338 343 349 349 348 349 351 353 355 356 356 355 354 353 352 352 352 352 353 354 353 353 352 353
321 321 321 321 320 320 321 322 322 322 323 324 324 324 325 324 321 319 319 323 329 332 332 329 324 319 317 318 317 318 323 323 323 329 337 338 334 331 331 332 335 340 345 347 347 349 350 351 353 355 355 355 354 354 353 352 352 352 354 354 354 354 353
321 321 321 321 321 321 322 322 322 322 323 323 324 325 325 322 320 320 319 322 328 331 332 331 327 322 318 318 318 318 318 320 322 325 329 334 336 334 330 330 331 332 336 341 342 344 347 349 349 351 353 355 355 355 355 354 353 352 352 353 354 354 354
321 321 321 321 321 321 321 321 322 322 322 323 323 324 324 323 324 325 325 326 328 330 331 331 329 327 324 321 320 319 320 324 326 323 321 329 337 336 331 330 333 332 333 337 338 339 341 343 343 344 348 351 353 354 355 355 354 354 353 353 353 353 353
320 320 320 320 320 320 320 320 321 320 321 322 322 323 324 325 326 326 326 327 327 328 330 330 330 329 329 327 323 320 323 328 328 326 327 330 331 330 328 330 333 334 334 337 339 339 339 341 342 345 346 347 349 351 354 355 355 355 355 354 354 353 354
319 319 319 319 319 319 319 319 319 319 320 321 321 321 322 323 324 324 325 326 325 325 327 329 329 330 329 328 327 324 324 326 328 330 332 327 322 325 331 335 337 338 337 338 338 339 340 342 344 348 350 350 351 352 353 354 355 356 357 356 355 354 354
318 318 318 318 318 318 318 318 318 319 319 320 320 321 321 321 322 323 324 325 325 325 326 327 328 329 328 328 329 327 324 325 328 330 330 327 326 329 332 333 334 336 339 340 340 340 339 338 338 341 345 348 352 354 354 355 355 356 357 357 356 355 354
317 317 317 317 317 317 317 317 318 318 319 319 319 320 320 321 322 322 323 324 325 326 326 326 327 327 327 327 328 327 326 327 329 330 330 329 329 327 324 323 326 330 335 338 339 339 337 333 331 333 335 338 343 348 351 353 355 357 357 357 356 355 354
316 316 316 316 316 316 316 317 317 317 318 319 319 319 320 320 321 322 322 323 324 324 325 326 326 327 327 326 327 327 326 327 329 329 329 329 329 328 326 324 324 324 325 327 330 332 332 330 330 330 330 331 334 337 340 345 351 355 356 356 356 356 356
315 315 315 315 316 316 316 316 317 317 318 318 318 318 319 319 320 321 322 322 323 324 324 325 325 325 325 325 326 326 326 327 328 328 327 327 327 329 328 323 320 319 318 319 322 324 325 326 328 330 330 329 330 331 332 336 340 345 350 354 356 356 356
314 314 315 315 315 316 316 316 317 317 317 317 318 318 318 319 319 320 321 322 322 323 323 324 324 324 324 324 325 325 326 326 326 326 326 325 325 325 323 319 316 316 317 317 319 320 322 323 324 327 329 329 330 332 333 334 333 335 340 346 351 353 354
314 314 314 315 315 315 316 316 316 316 317 317 316 317 318 319 319 320 320 321 322 322 323 323 323 324 324 324 324 324 325 325 324 325 325 324 324 325 324 320 317 315 316 317 318 318 319 320 321 323 325 327 329 330 330 331 333 334 334 337 341 345 348
313 313 314 314 315 315 316 316 316 316 316 316 316 316 317 319 320 320 320 320 321 322 322 323 323 324 325 324 325 325 324 323 323 324 324 323 324 325 326 324 322 319 316 316 317 317 317 318 319 321 322 325 329 331 329 328 330 333 334 333 334 336 339

ECMWFFLT1_850_thetae_117.txt.gz
Theta_e
356 355 354 355 354 353 351 350 350 348 347 346 344 343 343 342 343 344 344 345 344 338 335 336 336 335 336 335 333 333 335 335 342 349 351 351 352 351 349 347 346 347 348 346 345 346 346 345 346 345 345 346 346 347 346 345 346 347 347 346 346 344 339
356 356 355 355 355 354 353 352 351 349 347 347 346 344 345 345 345 345 346 347 348 343 335 331 331 332 334 337 336 334 335 334 337 343 348 350 351 351 349 347 346 346 348 348 346 348 349 348 347 346 346 346 346 347 345 346 347 346 346 347 349 348 344
355 356 356 356 356 354 353 352 351 350 348 348 348 347 346 347 347 348 348 347 349 348 340 330 326 326 328 332 336 336 336 336 335 338 342 345 347 349 349 348 346 346 349 351 351 350 351 352 350 349 349 346 346 347 345 345 346 346 346 346 347 348 347
353 355 355 356 357 356 354 352 351 351 350 349 349 349 347 348 350 350 350 348 349 350 346 337 329 327 327 328 329 331 333 334 335 336 338 339 341 345 349 349 346 347 351 354 354 354 353 354 353 352 350 347 346 346 345 345 345 344 345 345 344 345 346
351 354 354 356 357 357 356 354 353 351 351 351 350 350 349 348 350 352 352 351 350 350 350 346 338 333 332 330 328 326 327 328 331 333 335 337 337 340 346 348 346 345 348 352 354 354 353 353 353 352 350 348 346 344 345 346 344 343 344 345 345 343 344
349 350 352 354 355 355 355 354 353 351 351 351 350 351 350 349 350 351 353 354 353 352 352 352 348 342 338 334 329 326 325 326 327 329 330 333 336 338 341 345 347 345 345 349 351 351 351 353 352 351 349 348 346 343 344 346 345 345 344 345 346 343 344
346 348 350 352 353 353 353 352 352 352 352 351 350 351 351 351 351 350 351 354 355 354 354 354 354 350 346 340 333 329 328 329 330 330 329 330 333 339 342 345 348 350 348 349 351 349 350 353 354 352 349 346 343 342 342 343 344 345 344 344 345 344 344
344 347 348 350 351 352 352 353 352 352 352 352 352 353 352 352 353 351 351 353 354 355 356 356 356 355 354 351 344 337 335 335 336 336 335 332 331 338 347 348 349 350 350 350 349 349 349 350 352 353 349 344 340 340 340 340 341 343 344 344 345 345 344
343 344 345 346 346 348 351 352 353 354 354 354 355 355 354 354 354 353 352 352 353 357 358 358 358 357 357 357 354 350 348 346 346 344 342 340 335 336 345 351 350 349 350 350 350 349 349 348 349 350 349 345 341 340 341 343 344 344 343 343 345 345 344
342 342 342 343 343 346 348 350 352 354 355 355 355 356 355 353 354 354 353 352 353 356 356 357 357 357 356 357 356 356 356 355 354 352 349 345 342 337 339 346 350 350 349 349 349 350 349 348 348 349 349 347 344 343 345 348 349 349 347 344 344 344 345
340 340 340 341 341 343 345 346 348 350 353 354 354 355 355 354 354 354 353 352 352 353 353 353 353 355 356 355 354 355 356 356 356 356 355 353 350 346 342 343 347 349 350 349 348 349 349 349 348 349 349 348 347 345 347 349 350 351 351 348 345 343 343
338 339 339 338 339 340 342 343 343 344 348 351 352 353 353 354 354 354 354 353 352 352 351 350 351 352 354 354 353 354 355 356 355 356 357 357 356 354 350 347 347 348 349 348 347 347 348 349 348 348 348 348 347 346 347 349 349 349 350 349 347 344 343
336 337 337 336 336 336 337 339 340 341 344 346 349 350 350 352 353 353 353 352 352 352 351 350 351 351 351 351 351 353 354 355 355 355 356 356 355 355 352 349 348 348 348 347 347 346 346 347 348 348 348 347 346 345 345 346 347 346 347 347 345 343 342
336 336 336 336 336 335 335 336 336 338 341 343 345 346 347 349 349 349 350 350 350 350 350 350 350 350 350 350 351 352 354 355 355 355 355 354 353 353 352 350 348 348 347 346 348 347 346 346 346 347 348 347 346 345 344 344 343 341 341 342 341 339 339
335 335 335 335 335 335 335 335 334 335 337 340 342 342 343 344 343 343 345 348 348 348 349 350 350 349 350 350 350 351 352 354 355 355 355 355 353 351 351 350 349 347 346 345 347 349 349 347 345 345 346 346 346 345 344 344 341 337 335 334 335 335 336
334 334 334 334 334 334 334 334 334 334 334 336 339 340 340 341 341 341 342 344 345 347 349 351 351 350 350 351 351 350 350 351 353 354 355 356 355 353 351 350 348 347 346 345 345 347 349 349 346 344 344 344 345 345 344 344 342 340 336 332 330 330 332
333 333 332 332 333 333 333 333 333 333 333 333 335 337 339 339 339 341 341 341 343 345 347 349 350 351 350 351 352 351 350 350 351 352 354 354 354 354 353 351 349 347 346 345 345 344 345 347 347 346 345 344 343 343 343 344 343 343 342 339 335 330 329
332 332 331 331 331 331 332 332 332 332 332 332 332 334 336 337 338 340 341 340 339 340 342 344 346 347 348 349 351 351 350 350 350 350 352 352 352 353 353 351 350 349 347 346 346 344 342 343 345 345 345 346 345 344 343 343 344 344 344 344 342 338 334
330 330 330 329 329 329 330 331 331 331 331 331 332 332 333 334 335 337 339 338 336 334 336 339 341 343 345 346 347 349 350 350 350 350 351 352 352 353 353 351 349 350 349 348 348 348 345 343 343 343 344 346 347 347 345 345 345 345 345 346 345 344 342
328 329 328 327 325 326 328 329 329 330 329 330 331 331 331 333 333 334 335 336 334 329 328 333 337 338 340 342 343 344 345 347 349 350 350 351 352 352 353 352 351 351 351 350 350 349 348 346 344 343 343 344 346 347 348 348 348 348 348 348 348 347 346
326 327 327 326 323 323 325 326 327 328 328 328 330 330 330 330 331 332 333 335 333 326 322 325 329 331 334 338 340 340 340 342 344 347 349 350 351 352 352 352 352 352 352 351 350 350 350 348 347 345 345 345 346 347 346 347 348 349 350 351 351 350 349
325 325 325 325 323 322 323 324 325 326 325 326 328 330 330 329 328 327 330 334 332 324 319 320 321 323 328 333 337 339 339 338 338 341 345 347 348 349 350 351 351 351 352 352 351 350 350 349 347 346 346 346 346 346 346 346 345 347 349 351 351 351 351
323 324 324 324 322 321 322 324 324 324 324 324 326 329 331 330 327 323 323 330 331 325 318 319 319 318 321 326 331 334 334 334 334 336 339 343 345 347 347 348 349 349 351 352 352 352 351 350 349 348 347 347 347 347 347 347 347 347 347 348 350 351 350
322 322 323 323 321 321 322 323 323 324 324 324 324 326 328 328 328 322 317 323 330 326 320 319 318 317 318 319 322 325 326 330 334 335 336 337 339 341 344 346 347 347 348 350 351 352 353 352 352 351 350 349 349 349 349 349 349 349 349 348 349 350 351
321 321 322 321 321 322 323 322 323 324 325 324 324 325 325 324 324 319 314 322 330 328 324 322 319 317 317 317 318 320 320 324 331 335 337 336 334 334 337 340 344 346 347 349 350 350 352 354 353 353 353 352 351 351 351 350 350 351 351 352 351 351 351
321 321 321 320 321 322 322 322 322 324 324 323 324 324 322 320 318 314 314 323 329 329 329 328 322 318 317 316 317 318 318 320 324 328 333 336 335 333 333 333 336 339 341 343 345 345 348 351 353 354 354 353 353 352 352 352 351 351 351 352 353 353 353
321 321 321 321 322 322 321 321 322 323 322 322 322 322 320 318 317 315 317 323 327 328 330 330 326 323 321 317 316 317 317 317 319 320 325 332 336 336 334 332 333 335 336 337 338 339 342 346 348 351 353 354 354 354 354 354 353 353 352 352 352 352 353
321 321 321 321 322 321 321 320 320 319 319 319 319 318 317 318 317 316 317 322 324 325 328 329 328 328 326 322 319 317 317 316 317 319 322 328 332 332 332 332 334 337 337 337 337 337 339 340 342 344 346 348 350 351 352 353 353 353 354 354 353 353 353
321 321 321 321 321 320 320 319 318 317 317 317 316 315 316 317 316 316 318 320 320 319 320 324 328 329 329 327 323 320 318 315 318 323 325 324 323 323 327 333 336 337 337 337 336 337 338 339 341 343 344 345 346 347 348 349 351 352 352 352 352 352 351
321 320 320 320 320 320 319 318 317 317 317 317 317 316 316 316 315 316 319 320 320 320 319 321 326 329 329 329 327 324 319 315 318 327 330 325 322 321 324 330 332 331 334 336 337 338 339 340 341 342 342 343 345 347 349 349 349 350 351 351 351 351 352
319 319 319 319 319 318 318 317 317 318 318 319 319 318 318 318 317 317 319 319 321 324 323 322 325 328 328 328 327 326 323 316 317 326 329 326 325 324 323 323 323 324 328 334 337 337 336 334 334 334 334 335 336 341 347 350 351 351 351 351 352 352 354
318 318 318 318 317 317 316 316 317 318 318 319 319 319 319 319 319 320 320 320 320 322 322 322 322 325 327 327 327 327 325 319 319 326 329 327 327 326 323 321 321 322 324 326 328 328 325 323 324 326 327 328 328 331 336 341 346 349 351 352 352 353 355
317 317 317 316 316 316 316 316 317 317 317 318 318 318 318 319 319 320 321 321 321 321 321 321 320 321 324 326 326 327 325 322 322 328 329 328 327 326 322 320 321 321 319 317 317 319 319 319 321 321 323 324 325 327 329 331 334 339 345 351 353 353 354
316 316 315 315 315 315 316 317 317 317 317 317 318 317 317 317 318 319 320 320 321 322 322 322 321 322 323 324 325 326 325 323 324 327 327 326 326 324 320 318 318 317 316 315 315 316 318 320 320 320 320 321 322 324 327 328 330 332 336 343 348 351 353
315 315 314 315 315 316 316 316 316 316 316 317 317 316 316 317 318 319 320 320 321 321 322 322 322 323 323 324 324 325 324 324 325 325 324 324 323 320 318 316 316 316 315 314 315 317 319 322 321 319 319 320 320 322 324 325 328 330 332 335 339 343 347
314 314 314 315 315 315 316 316 316 316 316 316 315 314 314 317 319 320 320 320 320 321 321 322 322 323 323 324 325 325 325 325 325 325 324 323 321 319 318 316 317 319 319 318 316 316 319 321 320 318 319 320 320 322 323 324 326 328 330 331 332 335 337
313 313 314 314 315 315 316 316 316 315 315 314 313 313 314 318 320 320 320 321 321 321 321 321 321 322 323 324 325 326 325 325 324 324 323 322 321 320 319 318 318 319 320 318 316 315 315 316 317 317 320 322 323 322 323 324 326 328 328 329 330 331 333
313 313 313 314 315 315 316 315 315 314 314 313 313 313 314 317 319 319 320 320 321 321 321 321 321 322 323 324 325 325 325 325 324 323 322 322 321 320 320 319 319 318 317 316 315 314 313 313 315 318 322 325 327 326 324 323 324 325 326 326 327 328 330

ECMWFFLT1_850_thetae_123.txt.gz
Theta_e
350 348 349 352 348 341 340 342 343 342 343 342 342 342 341 341 341 342 342 341 341 340 337 333 331 332 333 333 336 341 347 348 348 347 346 347 349 348 347 346 344 341 340 340 341 341 341 341 340 339 340 340 340 340 341 340 340 340 341 341 341 342 342
350 350 351 352 348 341 339 341 342 343 343 341 341 341 341 342 342 341 341 340 340 339 336 333 331 330 331 332 334 338 344 348 349 348 346 347 349 349 348 347 345 344 341 340 341 342 342 342 341 341 340 341 341 341 342 343 342 341 341 341 342 343 341
350 351 351 352 348 341 338 340 342 343 343 341 341 341 340 341 341 341 340 340 339 338 337 335 333 331 331 332 333 335 340 345 347 347 347 347 348 348 348 347 346 344 343 342 342 342 342 342 343 342 341 341 341 342 343 344 345 344 342 342 343 344 342
350 351 351 351 350 344 339 339 340 342 343 342 341 340 340 341 340 340 339 340 340 339 338 335 334 332 332 331 332 334 337 340 343 344 344 346 347 348 348 347 345 344 344 344 343 343 343 343 343 343 343 342 342 343 344 344 345 345 344 342 344 344 342
350 351 350 350 350 349 344 340 339 340 342 343 343 341 341 341 341 340 340 340 340 340 339 337 335 334 332 332 331 332 334 336 339 340 341 343 346 348 348 348 347 344 344 344 344 343 343 344 344 343 343 343 343 344 344 344 345 345 343 343 344 344 343
350 350 350 349 349 350 349 346 343 342 341 341 343 343 342 342 342 341 341 341 341 342 342 341 339 336 333 333 332 331 332 334 336 337 338 338 341 345 347 349 348 346 344 344 345 344 343 343 345 344 344 343 343 344 344 344 344 344 343 343 344 344 343
349 349 350 350 349 350 350 350 347 346 344 343 343 343 343 343 342 342 342 342 342 343 344 344 343 340 336 334 333 332 331 332 333 334 335 336 337 340 342 345 348 347 347 346 345 345 345 343 344 345 345 345 345 344 343 343 344 343 343 343 342 342 342
346 347 348 348 349 350 350 350 349 348 348 348 346 343 342 343 343 344 345 344 343 343 344 344 344 344 341 337 335 334 333 333 333 333 334 334 336 336 337 339 343 346 348 347 346 346 347 346 345 346 347 347 347 345 343 342 343 343 343 343 342 341 341
343 346 347 347 348 349 350 351 350 349 350 350 349 346 344 343 344 346 346 344 343 343 345 345 344 345 345 342 338 336 335 335 335 335 334 334 334 335 336 336 338 341 344 346 346 347 347 348 347 348 348 347 347 346 345 343 342 342 342 342 342 342 342
342 343 344 346 346 347 349 351 351 351 350 350 350 348 346 345 345 347 348 347 346 346 345 345 345 346 347 346 343 339 335 333 333 335 336 336 335 335 335 336 336 337 339 342 345 347 348 348 348 349 349 348 346 346 346 344 342 341 340 341 341 341 342
343 341 341 343 345 345 347 350 351 351 350 349 349 349 348 348 348 348 349 349 350 350 349 347 346 347 348 349 348 345 341 335 333 333 334 334 335 334 334 335 336 336 336 338 341 345 348 349 349 350 350 349 347 347 346 346 344 341 338 338 339 340 341
342 341 339 340 342 343 345 347 349 350 350 350 350 349 349 350 350 350 350 349 349 351 351 348 347 347 348 349 350 349 347 345 341 337 333 330 329 328 329 331 333 334 334 336 339 342 347 349 350 350 350 349 348 348 347 346 346 344 339 337 337 339 340
338 339 339 339 340 342 343 345 347 349 350 350 350 349 349 349 349 349 350 350 350 350 349 348 349 349 349 349 350 350 350 350 348 344 339 333 329 328 330 333 335 335 334 336 339 342 345 348 349 350 349 349 349 349 348 347 346 346 344 342 340 339 340
336 338 339 340 340 341 343 344 345 347 348 349 349 350 350 349 349 348 349 349 350 349 348 348 348 350 351 350 349 350 351 351 351 350 347 343 339 338 340 342 344 343 341 340 343 345 346 348 348 349 348 348 349 348 348 348 347 347 346 346 344 342 341
335 336 338 340 340 340 341 342 343 344 346 347 349 349 349 349 349 349 349 349 349 348 348 348 347 348 351 352 351 352 353 352 353 353 352 350 349 349 351 352 351 350 348 346 346 348 349 350 349 349 348 347 347 348 348 348 347 347 347 347 346 344 342
333 334 336 337 338 340 340 341 341 342 344 346 348 348 348 349 350 349 349 350 350 350 349 349 349 349 350 351 352 353 354 354 354 353 352 352 351 350 352 354 353 351 349 347 345 346 348 349 349 349 348 347 347 347 347 346 347 347 346 347 346 346 345
332 332 332 332 334 338 340 341 340 340 342 344 345 344 344 347 349 349 349 349 350 350 350 350 350 350 350 350 351 351 352 352 352 351 351 351 351 349 349 351 352 353 353 349 345 345 347 348 348 348 347 348 347 347 347 346 346 345 346 346 346 346 347
331 331 331 331 332 335 339 341 341 340 341 341 342 341 341 344 347 348 349 350 349 349 349 349 349 349 349 349 350 350 350 350 350 350 351 351 351 351 351 351 352 354 355 353 349 347 348 348 348 348 347 347 347 347 348 347 346 346 346 346 346 346 347
330 331 331 331 332 335 339 341 340 338 338 339 340 340 340 341 344 345 346 347 349 350 349 350 350 349 349 349 349 349 349 349 349 350 350 351 351 352 352 351 351 352 353 353 350 348 348 349 348 348 347 346 346 346 348 348 348 347 347 346 346 345 346
330 330 331 331 332 335 338 338 334 332 332 334 337 339 340 340 341 342 342 343 344 346 347 348 348 349 350 349 349 349 349 349 350 349 349 350 350 351 351 351 351 350 351 351 350 349 349 349 349 348 346 346 345 346 347 348 349 348 348 347 346 345 344
329 329 330 331 331 332 335 335 332 330 329 329 330 332 336 338 338 339 339 340 341 342 342 343 344 345 346 346 345 345 346 347 348 349 349 349 349 349 350 350 350 350 350 350 350 350 350 350 350 349 347 345 345 345 346 347 348 348 348 347 347 345 345
328 328 329 330 330 330 332 333 334 333 332 330 328 326 327 331 333 336 338 338 339 340 340 340 340 340 341 341 340 341 341 343 344 344 345 346 347 347 348 348 348 349 350 350 350 351 351 350 350 350 349 347 346 346 345 345 346 346 346 346 345 345 345
326 326 327 328 329 329 329 331 332 332 330 328 324 322 322 323 326 331 335 338 339 339 338 337 336 337 337 338 338 338 340 341 341 340 340 341 342 343 343 343 343 344 345 347 349 351 351 350 350 351 351 350 349 349 348 346 345 344 344 344 343 343 344
325 324 325 326 327 328 329 329 329 327 325 323 320 319 320 320 320 322 326 330 332 330 329 329 329 332 335 336 336 337 338 338 338 338 338 338 338 339 339 340 340 341 341 342 344 347 348 348 349 351 351 351 351 351 350 350 349 348 347 346 345 344 344
324 323 324 324 325 326 327 327 326 325 324 322 321 320 319 318 318 317 318 320 321 320 320 321 323 327 332 334 335 335 335 334 335 336 337 336 335 337 340 340 340 340 341 340 340 340 342 344 346 348 348 349 351 352 351 351 351 350 350 349 348 347 347
324 323 323 324 323 323 324 324 323 323 322 320 320 322 322 320 317 316 316 317 318 317 317 318 319 322 326 329 331 331 331 331 332 335 335 333 331 334 338 339 338 339 340 341 340 339 340 341 342 343 343 343 345 348 350 351 351 352 352 351 351 350 349
323 323 323 324 323 323 323 322 321 320 319 317 317 318 321 321 319 317 317 317 317 317 317 317 318 319 320 321 322 325 327 329 331 334 333 330 329 332 335 335 335 335 335 338 339 339 339 340 340 339 339 339 340 342 345 347 348 350 350 351 352 352 352
323 323 323 323 323 322 321 320 318 316 315 315 314 314 315 318 319 319 321 321 318 316 316 316 317 318 318 318 318 321 325 327 329 331 331 329 329 331 333 331 330 329 329 332 337 337 334 334 333 332 331 333 335 337 338 340 342 344 346 348 349 349 350
322 322 322 321 321 320 319 318 317 315 314 313 313 313 312 313 315 316 319 321 319 317 317 317 316 316 317 317 318 319 322 326 327 328 328 327 327 329 329 329 328 326 326 329 332 330 324 322 322 322 323 324 327 329 330 331 333 337 340 342 344 345 347
321 321 321 320 320 319 318 317 316 315 314 313 313 313 313 313 313 313 315 316 316 316 317 319 319 318 316 317 318 318 318 321 325 326 327 326 327 328 328 327 326 325 325 324 323 320 317 316 317 317 318 320 322 323 324 325 327 330 332 335 337 339 341
321 321 320 319 319 318 318 317 316 315 314 314 313 314 314 314 314 314 313 314 314 313 314 317 320 320 318 316 316 317 318 319 321 324 325 325 325 326 327 327 326 324 322 320 317 315 315 315 315 316 317 317 319 320 321 322 324 326 328 330 331 333 334
320 320 319 319 318 317 316 315 314 313 313 314 314 314 315 315 315 315 315 314 314 314 314 315 318 320 321 320 318 318 320 319 318 319 320 320 321 323 325 325 323 321 319 317 315 315 315 315 314 315 315 315 316 317 318 320 322 324 326 327 328 329 330
320 319 319 318 317 316 315 313 312 312 313 314 315 315 315 315 315 315 315 315 315 315 315 315 315 318 321 323 323 323 322 320 319 318 318 317 317 318 320 320 319 318 316 315 314 315 315 314 314 314 314 314 315 315 317 319 321 322 323 324 325 325 326
319 318 317 317 315 314 313 312 312 312 313 313 314 314 314 314 314 315 316 317 317 317 318 317 317 317 319 321 323 324 324 322 321 321 321 320 319 318 318 318 318 318 317 316 316 315 314 314 314 314 313 313 313 313 314 318 321 321 321 322 322 322 323
318 317 316 315 314 312 312 311 312 313 314 314 314 313 312 312 313 315 317 318 318 319 319 320 319 319 321 322 323 324 324 324 323 323 323 322 322 322 320 319 319 319 319 318 317 316 315 315 314 314 313 313 316 318 317 317 319 322 323 324 323 322 322
316 315 314 313 313 312 312 311 311 311 313 314 313 313 312 311 312 314 316 318 319 319 320 320 320 320 321 323 324 324 324 324 324 324 324 323 323 322 321 321 321 320 319 318 318 317 316 316 315 314 314 316 320 323 324 323 323 324 325 325 324 323 323
315 314 314 313 313 313 312 312 311 311 312 313 313 312 311 310 311 313 315 316 318 319 319 320 319 319 320 321 322 323 324 324 324 324 323 323 323 322 321 321 321 320 319 319 318 317 317 317 316 315 315 317 320 323 325 326 326 326 325 324 323 323 323
314 314 313 313 312 313 312 312 313 313 313 313 312 311 310 309 311 312 312 314 316 318 319 319 319 318 318 319 321 322 322 323 323 322 322 322 322 322 321 320 320 319 319 318 317 317 317 317 315 314 315 317 319 321 323 323 324 324 325 325 325 324 324